<?xml version="1.0" encoding="UTF-8" standalone="no" ?>
<gpx xmlns="http://www.topografix.com/GPX/1/1" xmlns:xsi="http://www.w3.org/2001/XMLSchema-instance" xsi:schemaLocation="http://www.topografix.com/GPX/1/1 http://www.topografix.com/GPX/1/1/gpx.xsd" version="1.1" creator="VisuGPX - https://www.visugpx.com">
  <metadata>
    <name>Roche des Béraudes</name>
    <desc><![CDATA[Monêtier les bains, Pont de l'Alpe - Roche des Béraudes]]></desc>
  </metadata>
  <trk>
    <name><![CDATA[Roche_Beraudes_21 APR 2018]]></name>
    <trkseg>
      <trkpt lat="45.01867" lon="6.46472">
        <ele>1723.3</ele>
        <time>2018-04-21T05:21:00Z</time>
      </trkpt>
      <trkpt lat="45.01866" lon="6.46476">
        <ele>1721.86</ele>
        <time>2018-04-21T05:21:15Z</time>
      </trkpt>
      <trkpt lat="45.01865" lon="6.46479">
        <ele>1721.86</ele>
        <time>2018-04-21T05:21:29Z</time>
      </trkpt>
      <trkpt lat="45.01866" lon="6.46473">
        <ele>1721.38</ele>
        <time>2018-04-21T05:21:52Z</time>
      </trkpt>
      <trkpt lat="45.0187" lon="6.46481">
        <ele>1721.38</ele>
        <time>2018-04-21T05:22:16Z</time>
      </trkpt>
      <trkpt lat="45.01867" lon="6.46478">
        <ele>1721.38</ele>
        <time>2018-04-21T05:22:48Z</time>
      </trkpt>
      <trkpt lat="45.01867" lon="6.46473">
        <ele>1722.34</ele>
        <time>2018-04-21T05:23:04Z</time>
      </trkpt>
      <trkpt lat="45.01866" lon="6.46472">
        <ele>1721.38</ele>
        <time>2018-04-21T05:23:16Z</time>
      </trkpt>
      <trkpt lat="45.01867" lon="6.46472">
        <ele>1721.38</ele>
        <time>2018-04-21T05:23:45Z</time>
      </trkpt>
      <trkpt lat="45.01867" lon="6.46474">
        <ele>1721.38</ele>
        <time>2018-04-21T05:24:07Z</time>
      </trkpt>
      <trkpt lat="45.01866" lon="6.46474">
        <ele>1721.38</ele>
        <time>2018-04-21T05:24:23Z</time>
      </trkpt>
      <trkpt lat="45.01867" lon="6.46475">
        <ele>1720.9</ele>
        <time>2018-04-21T05:24:45Z</time>
      </trkpt>
      <trkpt lat="45.01868" lon="6.46473">
        <ele>1720.9</ele>
        <time>2018-04-21T05:25:08Z</time>
      </trkpt>
      <trkpt lat="45.01869" lon="6.46474">
        <ele>1720.9</ele>
        <time>2018-04-21T05:25:43Z</time>
      </trkpt>
      <trkpt lat="45.01868" lon="6.46471">
        <ele>1721.86</ele>
        <time>2018-04-21T05:25:58Z</time>
      </trkpt>
      <trkpt lat="45.01868" lon="6.46476">
        <ele>1721.86</ele>
        <time>2018-04-21T05:26:10Z</time>
      </trkpt>
      <trkpt lat="45.01866" lon="6.4648">
        <ele>1721.38</ele>
        <time>2018-04-21T05:26:26Z</time>
      </trkpt>
      <trkpt lat="45.01868" lon="6.46475">
        <ele>1720.9</ele>
        <time>2018-04-21T05:26:43Z</time>
      </trkpt>
      <trkpt lat="45.01867" lon="6.46478">
        <ele>1720.9</ele>
        <time>2018-04-21T05:27:09Z</time>
      </trkpt>
      <trkpt lat="45.0187" lon="6.46475">
        <ele>1724.74</ele>
        <time>2018-04-21T05:27:44Z</time>
      </trkpt>
      <trkpt lat="45.01868" lon="6.46475">
        <ele>1721.86</ele>
        <time>2018-04-21T05:27:49Z</time>
      </trkpt>
      <trkpt lat="45.01867" lon="6.46477">
        <ele>1721.38</ele>
        <time>2018-04-21T05:28:01Z</time>
      </trkpt>
      <trkpt lat="45.01866" lon="6.4649">
        <ele>1720.9</ele>
        <time>2018-04-21T05:28:14Z</time>
      </trkpt>
      <trkpt lat="45.01863" lon="6.46495">
        <ele>1720.9</ele>
        <time>2018-04-21T05:28:32Z</time>
      </trkpt>
      <trkpt lat="45.01864" lon="6.46506">
        <ele>1720.42</ele>
        <time>2018-04-21T05:28:47Z</time>
      </trkpt>
      <trkpt lat="45.01865" lon="6.46514">
        <ele>1719.94</ele>
        <time>2018-04-21T05:28:59Z</time>
      </trkpt>
      <trkpt lat="45.01863" lon="6.46521">
        <ele>1720.42</ele>
        <time>2018-04-21T05:29:12Z</time>
      </trkpt>
      <trkpt lat="45.01863" lon="6.46521">
        <ele>1719.94</ele>
        <time>2018-04-21T05:29:20Z</time>
      </trkpt>
      <trkpt lat="45.01863" lon="6.46525">
        <ele>1719.94</ele>
        <time>2018-04-21T05:29:23Z</time>
      </trkpt>
      <trkpt lat="45.01863" lon="6.46527">
        <ele>1719.94</ele>
        <time>2018-04-21T05:29:25Z</time>
      </trkpt>
      <trkpt lat="45.01859" lon="6.4655">
        <ele>1718.97</ele>
        <time>2018-04-21T05:29:42Z</time>
      </trkpt>
      <trkpt lat="45.01849" lon="6.46565">
        <ele>1718.01</ele>
        <time>2018-04-21T05:29:58Z</time>
      </trkpt>
      <trkpt lat="45.01849" lon="6.46567">
        <ele>1718.01</ele>
        <time>2018-04-21T05:30:00Z</time>
      </trkpt>
      <trkpt lat="45.01837" lon="6.4658">
        <ele>1717.53</ele>
        <time>2018-04-21T05:30:14Z</time>
      </trkpt>
      <trkpt lat="45.0183" lon="6.46586">
        <ele>1717.05</ele>
        <time>2018-04-21T05:30:22Z</time>
      </trkpt>
      <trkpt lat="45.01815" lon="6.466">
        <ele>1716.09</ele>
        <time>2018-04-21T05:30:39Z</time>
      </trkpt>
      <trkpt lat="45.01803" lon="6.46607">
        <ele>1715.61</ele>
        <time>2018-04-21T05:30:54Z</time>
      </trkpt>
      <trkpt lat="45.01807" lon="6.46616">
        <ele>1715.13</ele>
        <time>2018-04-21T05:31:10Z</time>
      </trkpt>
      <trkpt lat="45.01808" lon="6.46616">
        <ele>1715.13</ele>
        <time>2018-04-21T05:31:11Z</time>
      </trkpt>
      <trkpt lat="45.01811" lon="6.46628">
        <ele>1716.57</ele>
        <time>2018-04-21T05:31:23Z</time>
      </trkpt>
      <trkpt lat="45.01816" lon="6.46637">
        <ele>1717.53</ele>
        <time>2018-04-21T05:31:38Z</time>
      </trkpt>
      <trkpt lat="45.01818" lon="6.46635">
        <ele>1717.05</ele>
        <time>2018-04-21T05:31:53Z</time>
      </trkpt>
      <trkpt lat="45.01817" lon="6.46635">
        <ele>1717.05</ele>
        <time>2018-04-21T05:32:25Z</time>
      </trkpt>
      <trkpt lat="45.0182" lon="6.46637">
        <ele>1717.05</ele>
        <time>2018-04-21T05:32:55Z</time>
      </trkpt>
      <trkpt lat="45.01817" lon="6.46634">
        <ele>1717.05</ele>
        <time>2018-04-21T05:33:20Z</time>
      </trkpt>
      <trkpt lat="45.01818" lon="6.46628">
        <ele>1718.01</ele>
        <time>2018-04-21T05:33:46Z</time>
      </trkpt>
      <trkpt lat="45.01814" lon="6.46628">
        <ele>1718.01</ele>
        <time>2018-04-21T05:34:10Z</time>
      </trkpt>
      <trkpt lat="45.01814" lon="6.46629">
        <ele>1718.01</ele>
        <time>2018-04-21T05:34:13Z</time>
      </trkpt>
      <trkpt lat="45.01815" lon="6.46639">
        <ele>1718.97</ele>
        <time>2018-04-21T05:34:20Z</time>
      </trkpt>
      <trkpt lat="45.01816" lon="6.46643">
        <ele>1719.94</ele>
        <time>2018-04-21T05:34:35Z</time>
      </trkpt>
      <trkpt lat="45.01816" lon="6.46639">
        <ele>1719.94</ele>
        <time>2018-04-21T05:34:56Z</time>
      </trkpt>
      <trkpt lat="45.01815" lon="6.46648">
        <ele>1720.9</ele>
        <time>2018-04-21T05:35:11Z</time>
      </trkpt>
      <trkpt lat="45.01817" lon="6.46662">
        <ele>1722.34</ele>
        <time>2018-04-21T05:35:24Z</time>
      </trkpt>
      <trkpt lat="45.0182" lon="6.46674">
        <ele>1723.78</ele>
        <time>2018-04-21T05:35:38Z</time>
      </trkpt>
      <trkpt lat="45.01822" lon="6.46687">
        <ele>1726.18</ele>
        <time>2018-04-21T05:35:53Z</time>
      </trkpt>
      <trkpt lat="45.01823" lon="6.46698">
        <ele>1728.11</ele>
        <time>2018-04-21T05:36:09Z</time>
      </trkpt>
      <trkpt lat="45.0182" lon="6.46711">
        <ele>1730.03</ele>
        <time>2018-04-21T05:36:26Z</time>
      </trkpt>
      <trkpt lat="45.01823" lon="6.46724">
        <ele>1732.43</ele>
        <time>2018-04-21T05:36:44Z</time>
      </trkpt>
      <trkpt lat="45.01823" lon="6.46735">
        <ele>1735.32</ele>
        <time>2018-04-21T05:37:01Z</time>
      </trkpt>
      <trkpt lat="45.01823" lon="6.4675">
        <ele>1738.2</ele>
        <time>2018-04-21T05:37:22Z</time>
      </trkpt>
      <trkpt lat="45.01824" lon="6.46762">
        <ele>1740.12</ele>
        <time>2018-04-21T05:37:35Z</time>
      </trkpt>
      <trkpt lat="45.01824" lon="6.46774">
        <ele>1742.05</ele>
        <time>2018-04-21T05:37:49Z</time>
      </trkpt>
      <trkpt lat="45.01818" lon="6.46769">
        <ele>1743.97</ele>
        <time>2018-04-21T05:38:02Z</time>
      </trkpt>
      <trkpt lat="45.01813" lon="6.46765">
        <ele>1745.41</ele>
        <time>2018-04-21T05:38:19Z</time>
      </trkpt>
      <trkpt lat="45.01808" lon="6.46759">
        <ele>1747.33</ele>
        <time>2018-04-21T05:38:31Z</time>
      </trkpt>
      <trkpt lat="45.01803" lon="6.46763">
        <ele>1749.26</ele>
        <time>2018-04-21T05:38:42Z</time>
      </trkpt>
      <trkpt lat="45.01805" lon="6.46775">
        <ele>1750.7</ele>
        <time>2018-04-21T05:38:56Z</time>
      </trkpt>
      <trkpt lat="45.01809" lon="6.46786">
        <ele>1755.02</ele>
        <time>2018-04-21T05:39:11Z</time>
      </trkpt>
      <trkpt lat="45.01813" lon="6.46795">
        <ele>1755.5</ele>
        <time>2018-04-21T05:39:27Z</time>
      </trkpt>
      <trkpt lat="45.01812" lon="6.46804">
        <ele>1757.43</ele>
        <time>2018-04-21T05:39:42Z</time>
      </trkpt>
      <trkpt lat="45.01812" lon="6.46817">
        <ele>1759.35</ele>
        <time>2018-04-21T05:39:58Z</time>
      </trkpt>
      <trkpt lat="45.01814" lon="6.46829">
        <ele>1761.75</ele>
        <time>2018-04-21T05:40:17Z</time>
      </trkpt>
      <trkpt lat="45.01817" lon="6.46839">
        <ele>1764.16</ele>
        <time>2018-04-21T05:40:33Z</time>
      </trkpt>
      <trkpt lat="45.01817" lon="6.46851">
        <ele>1766.56</ele>
        <time>2018-04-21T05:40:49Z</time>
      </trkpt>
      <trkpt lat="45.01812" lon="6.46852">
        <ele>1768</ele>
        <time>2018-04-21T05:41:02Z</time>
      </trkpt>
      <trkpt lat="45.01806" lon="6.46849">
        <ele>1771.37</ele>
        <time>2018-04-21T05:41:12Z</time>
      </trkpt>
      <trkpt lat="45.018" lon="6.46846">
        <ele>1772.33</ele>
        <time>2018-04-21T05:41:26Z</time>
      </trkpt>
      <trkpt lat="45.01797" lon="6.46846">
        <ele>1774.25</ele>
        <time>2018-04-21T05:41:42Z</time>
      </trkpt>
      <trkpt lat="45.01798" lon="6.4686">
        <ele>1776.17</ele>
        <time>2018-04-21T05:41:57Z</time>
      </trkpt>
      <trkpt lat="45.01798" lon="6.46866">
        <ele>1778.1</ele>
        <time>2018-04-21T05:42:10Z</time>
      </trkpt>
      <trkpt lat="45.01801" lon="6.46875">
        <ele>1781.46</ele>
        <time>2018-04-21T05:42:27Z</time>
      </trkpt>
      <trkpt lat="45.01801" lon="6.46884">
        <ele>1783.38</ele>
        <time>2018-04-21T05:42:42Z</time>
      </trkpt>
      <trkpt lat="45.01803" lon="6.46892">
        <ele>1785.31</ele>
        <time>2018-04-21T05:42:57Z</time>
      </trkpt>
      <trkpt lat="45.01806" lon="6.46904">
        <ele>1787.71</ele>
        <time>2018-04-21T05:43:12Z</time>
      </trkpt>
      <trkpt lat="45.01807" lon="6.4691">
        <ele>1789.63</ele>
        <time>2018-04-21T05:43:27Z</time>
      </trkpt>
      <trkpt lat="45.01811" lon="6.46917">
        <ele>1792.03</ele>
        <time>2018-04-21T05:43:43Z</time>
      </trkpt>
      <trkpt lat="45.01814" lon="6.46925">
        <ele>1795.4</ele>
        <time>2018-04-21T05:44:01Z</time>
      </trkpt>
      <trkpt lat="45.01815" lon="6.46931">
        <ele>1796.36</ele>
        <time>2018-04-21T05:44:14Z</time>
      </trkpt>
      <trkpt lat="45.01814" lon="6.46934">
        <ele>1796.84</ele>
        <time>2018-04-21T05:44:32Z</time>
      </trkpt>
      <trkpt lat="45.0181" lon="6.46934">
        <ele>1796.84</ele>
        <time>2018-04-21T05:44:50Z</time>
      </trkpt>
      <trkpt lat="45.01813" lon="6.46941">
        <ele>1796.84</ele>
        <time>2018-04-21T05:45:03Z</time>
      </trkpt>
      <trkpt lat="45.01809" lon="6.4695">
        <ele>1797.32</ele>
        <time>2018-04-21T05:45:28Z</time>
      </trkpt>
      <trkpt lat="45.01807" lon="6.46945">
        <ele>1796.84</ele>
        <time>2018-04-21T05:45:54Z</time>
      </trkpt>
      <trkpt lat="45.0181" lon="6.46929">
        <ele>1796.36</ele>
        <time>2018-04-21T05:46:10Z</time>
      </trkpt>
      <trkpt lat="45.01808" lon="6.46937">
        <ele>1796.84</ele>
        <time>2018-04-21T05:46:30Z</time>
      </trkpt>
      <trkpt lat="45.01812" lon="6.46928">
        <ele>1796.84</ele>
        <time>2018-04-21T05:46:55Z</time>
      </trkpt>
      <trkpt lat="45.01807" lon="6.46927">
        <ele>1797.32</ele>
        <time>2018-04-21T05:47:18Z</time>
      </trkpt>
      <trkpt lat="45.01808" lon="6.46934">
        <ele>1797.32</ele>
        <time>2018-04-21T05:47:42Z</time>
      </trkpt>
      <trkpt lat="45.01805" lon="6.46938">
        <ele>1797.8</ele>
        <time>2018-04-21T05:48:03Z</time>
      </trkpt>
      <trkpt lat="45.01802" lon="6.46944">
        <ele>1797.8</ele>
        <time>2018-04-21T05:48:28Z</time>
      </trkpt>
      <trkpt lat="45.01808" lon="6.4694">
        <ele>1797.8</ele>
        <time>2018-04-21T05:48:48Z</time>
      </trkpt>
      <trkpt lat="45.01814" lon="6.46948">
        <ele>1798.28</ele>
        <time>2018-04-21T05:49:02Z</time>
      </trkpt>
      <trkpt lat="45.01816" lon="6.46957">
        <ele>1799.73</ele>
        <time>2018-04-21T05:49:18Z</time>
      </trkpt>
      <trkpt lat="45.01819" lon="6.4697">
        <ele>1802.13</ele>
        <time>2018-04-21T05:49:37Z</time>
      </trkpt>
      <trkpt lat="45.01821" lon="6.4698">
        <ele>1804.05</ele>
        <time>2018-04-21T05:49:52Z</time>
      </trkpt>
      <trkpt lat="45.01823" lon="6.46992">
        <ele>1806.45</ele>
        <time>2018-04-21T05:50:06Z</time>
      </trkpt>
      <trkpt lat="45.0183" lon="6.47005">
        <ele>1808.38</ele>
        <time>2018-04-21T05:50:21Z</time>
      </trkpt>
      <trkpt lat="45.01838" lon="6.47006">
        <ele>1809.34</ele>
        <time>2018-04-21T05:50:36Z</time>
      </trkpt>
      <trkpt lat="45.01841" lon="6.47002">
        <ele>1809.82</ele>
        <time>2018-04-21T05:50:50Z</time>
      </trkpt>
      <trkpt lat="45.01841" lon="6.4701">
        <ele>1810.3</ele>
        <time>2018-04-21T05:51:10Z</time>
      </trkpt>
      <trkpt lat="45.01851" lon="6.47012">
        <ele>1813.18</ele>
        <time>2018-04-21T05:51:27Z</time>
      </trkpt>
      <trkpt lat="45.01859" lon="6.47005">
        <ele>1814.63</ele>
        <time>2018-04-21T05:51:40Z</time>
      </trkpt>
      <trkpt lat="45.01865" lon="6.47002">
        <ele>1816.55</ele>
        <time>2018-04-21T05:51:54Z</time>
      </trkpt>
      <trkpt lat="45.01868" lon="6.46991">
        <ele>1818.47</ele>
        <time>2018-04-21T05:52:08Z</time>
      </trkpt>
      <trkpt lat="45.01872" lon="6.46982">
        <ele>1819.91</ele>
        <time>2018-04-21T05:52:21Z</time>
      </trkpt>
      <trkpt lat="45.01877" lon="6.46988">
        <ele>1821.84</ele>
        <time>2018-04-21T05:52:36Z</time>
      </trkpt>
      <trkpt lat="45.0188" lon="6.4699">
        <ele>1823.28</ele>
        <time>2018-04-21T05:52:52Z</time>
      </trkpt>
      <trkpt lat="45.0188" lon="6.47001">
        <ele>1825.68</ele>
        <time>2018-04-21T05:53:08Z</time>
      </trkpt>
      <trkpt lat="45.01887" lon="6.47002">
        <ele>1827.6</ele>
        <time>2018-04-21T05:53:20Z</time>
      </trkpt>
      <trkpt lat="45.01889" lon="6.46996">
        <ele>1828.56</ele>
        <time>2018-04-21T05:53:32Z</time>
      </trkpt>
      <trkpt lat="45.01895" lon="6.46994">
        <ele>1830.49</ele>
        <time>2018-04-21T05:53:46Z</time>
      </trkpt>
      <trkpt lat="45.01903" lon="6.46993">
        <ele>1832.41</ele>
        <time>2018-04-21T05:54:00Z</time>
      </trkpt>
      <trkpt lat="45.01908" lon="6.46985">
        <ele>1833.85</ele>
        <time>2018-04-21T05:54:17Z</time>
      </trkpt>
      <trkpt lat="45.01916" lon="6.4699">
        <ele>1835.77</ele>
        <time>2018-04-21T05:54:31Z</time>
      </trkpt>
      <trkpt lat="45.01926" lon="6.46986">
        <ele>1837.7</ele>
        <time>2018-04-21T05:54:45Z</time>
      </trkpt>
      <trkpt lat="45.01936" lon="6.46987">
        <ele>1840.1</ele>
        <time>2018-04-21T05:55:05Z</time>
      </trkpt>
      <trkpt lat="45.01944" lon="6.4699">
        <ele>1842.02</ele>
        <time>2018-04-21T05:55:22Z</time>
      </trkpt>
      <trkpt lat="45.01954" lon="6.46994">
        <ele>1843.47</ele>
        <time>2018-04-21T05:55:38Z</time>
      </trkpt>
      <trkpt lat="45.0196" lon="6.46995">
        <ele>1845.39</ele>
        <time>2018-04-21T05:55:57Z</time>
      </trkpt>
      <trkpt lat="45.01967" lon="6.47003">
        <ele>1847.31</ele>
        <time>2018-04-21T05:56:13Z</time>
      </trkpt>
      <trkpt lat="45.01974" lon="6.47004">
        <ele>1847.79</ele>
        <time>2018-04-21T05:56:24Z</time>
      </trkpt>
      <trkpt lat="45.0198" lon="6.47002">
        <ele>1847.79</ele>
        <time>2018-04-21T05:56:31Z</time>
      </trkpt>
      <trkpt lat="45.01987" lon="6.46989">
        <ele>1848.75</ele>
        <time>2018-04-21T05:56:46Z</time>
      </trkpt>
      <trkpt lat="45.01991" lon="6.46978">
        <ele>1849.71</ele>
        <time>2018-04-21T05:57:05Z</time>
      </trkpt>
      <trkpt lat="45.01999" lon="6.46977">
        <ele>1851.16</ele>
        <time>2018-04-21T05:57:20Z</time>
      </trkpt>
      <trkpt lat="45.02009" lon="6.46975">
        <ele>1852.12</ele>
        <time>2018-04-21T05:57:35Z</time>
      </trkpt>
      <trkpt lat="45.02018" lon="6.46976">
        <ele>1853.56</ele>
        <time>2018-04-21T05:57:52Z</time>
      </trkpt>
      <trkpt lat="45.02029" lon="6.46976">
        <ele>1855</ele>
        <time>2018-04-21T05:58:08Z</time>
      </trkpt>
      <trkpt lat="45.02038" lon="6.46975">
        <ele>1857.4</ele>
        <time>2018-04-21T05:58:27Z</time>
      </trkpt>
      <trkpt lat="45.02046" lon="6.46977">
        <ele>1858.85</ele>
        <time>2018-04-21T05:58:40Z</time>
      </trkpt>
      <trkpt lat="45.02055" lon="6.46981">
        <ele>1860.77</ele>
        <time>2018-04-21T05:59:00Z</time>
      </trkpt>
      <trkpt lat="45.0206" lon="6.46983">
        <ele>1862.69</ele>
        <time>2018-04-21T05:59:13Z</time>
      </trkpt>
      <trkpt lat="45.02064" lon="6.46988">
        <ele>1864.13</ele>
        <time>2018-04-21T05:59:24Z</time>
      </trkpt>
      <trkpt lat="45.02073" lon="6.46995">
        <ele>1866.06</ele>
        <time>2018-04-21T05:59:40Z</time>
      </trkpt>
      <trkpt lat="45.02084" lon="6.46998">
        <ele>1867.02</ele>
        <time>2018-04-21T05:59:57Z</time>
      </trkpt>
      <trkpt lat="45.02094" lon="6.47003">
        <ele>1868.46</ele>
        <time>2018-04-21T06:00:15Z</time>
      </trkpt>
      <trkpt lat="45.02106" lon="6.47004">
        <ele>1868.94</ele>
        <time>2018-04-21T06:00:34Z</time>
      </trkpt>
      <trkpt lat="45.02119" lon="6.47001">
        <ele>1870.38</ele>
        <time>2018-04-21T06:00:54Z</time>
      </trkpt>
      <trkpt lat="45.02132" lon="6.47001">
        <ele>1872.3</ele>
        <time>2018-04-21T06:01:11Z</time>
      </trkpt>
      <trkpt lat="45.02141" lon="6.46999">
        <ele>1874.23</ele>
        <time>2018-04-21T06:01:30Z</time>
      </trkpt>
      <trkpt lat="45.02153" lon="6.46997">
        <ele>1875.19</ele>
        <time>2018-04-21T06:01:47Z</time>
      </trkpt>
      <trkpt lat="45.02163" lon="6.46997">
        <ele>1876.63</ele>
        <time>2018-04-21T06:02:03Z</time>
      </trkpt>
      <trkpt lat="45.02174" lon="6.46996">
        <ele>1878.55</ele>
        <time>2018-04-21T06:02:22Z</time>
      </trkpt>
      <trkpt lat="45.02187" lon="6.46999">
        <ele>1879.03</ele>
        <time>2018-04-21T06:02:40Z</time>
      </trkpt>
      <trkpt lat="45.02199" lon="6.47006">
        <ele>1879.51</ele>
        <time>2018-04-21T06:02:57Z</time>
      </trkpt>
      <trkpt lat="45.02209" lon="6.47011">
        <ele>1880.96</ele>
        <time>2018-04-21T06:03:14Z</time>
      </trkpt>
      <trkpt lat="45.0222" lon="6.47018">
        <ele>1881.92</ele>
        <time>2018-04-21T06:03:30Z</time>
      </trkpt>
      <trkpt lat="45.02233" lon="6.47024">
        <ele>1881.44</ele>
        <time>2018-04-21T06:03:48Z</time>
      </trkpt>
      <trkpt lat="45.02242" lon="6.47026">
        <ele>1882.4</ele>
        <time>2018-04-21T06:04:04Z</time>
      </trkpt>
      <trkpt lat="45.02247" lon="6.47028">
        <ele>1882.88</ele>
        <time>2018-04-21T06:04:15Z</time>
      </trkpt>
      <trkpt lat="45.02259" lon="6.47029">
        <ele>1884.32</ele>
        <time>2018-04-21T06:04:32Z</time>
      </trkpt>
      <trkpt lat="45.02271" lon="6.4703">
        <ele>1885.76</ele>
        <time>2018-04-21T06:04:48Z</time>
      </trkpt>
      <trkpt lat="45.02281" lon="6.4703">
        <ele>1887.21</ele>
        <time>2018-04-21T06:05:03Z</time>
      </trkpt>
      <trkpt lat="45.02293" lon="6.47027">
        <ele>1889.61</ele>
        <time>2018-04-21T06:05:23Z</time>
      </trkpt>
      <trkpt lat="45.02301" lon="6.47022">
        <ele>1891.53</ele>
        <time>2018-04-21T06:05:37Z</time>
      </trkpt>
      <trkpt lat="45.02309" lon="6.47024">
        <ele>1892.97</ele>
        <time>2018-04-21T06:05:51Z</time>
      </trkpt>
      <trkpt lat="45.02318" lon="6.47027">
        <ele>1894.42</ele>
        <time>2018-04-21T06:06:06Z</time>
      </trkpt>
      <trkpt lat="45.02325" lon="6.47029">
        <ele>1895.86</ele>
        <time>2018-04-21T06:06:22Z</time>
      </trkpt>
      <trkpt lat="45.02333" lon="6.47039">
        <ele>1897.3</ele>
        <time>2018-04-21T06:06:39Z</time>
      </trkpt>
      <trkpt lat="45.02341" lon="6.47046">
        <ele>1899.22</ele>
        <time>2018-04-21T06:06:56Z</time>
      </trkpt>
      <trkpt lat="45.02343" lon="6.47047">
        <ele>1899.22</ele>
        <time>2018-04-21T06:06:59Z</time>
      </trkpt>
      <trkpt lat="45.02351" lon="6.47057">
        <ele>1900.66</ele>
        <time>2018-04-21T06:07:16Z</time>
      </trkpt>
      <trkpt lat="45.02359" lon="6.47066">
        <ele>1901.63</ele>
        <time>2018-04-21T06:07:31Z</time>
      </trkpt>
      <trkpt lat="45.02363" lon="6.47072">
        <ele>1901.63</ele>
        <time>2018-04-21T06:07:46Z</time>
      </trkpt>
      <trkpt lat="45.02368" lon="6.47082">
        <ele>1903.07</ele>
        <time>2018-04-21T06:08:01Z</time>
      </trkpt>
      <trkpt lat="45.0237" lon="6.47085">
        <ele>1903.55</ele>
        <time>2018-04-21T06:08:17Z</time>
      </trkpt>
      <trkpt lat="45.02376" lon="6.47097">
        <ele>1904.51</ele>
        <time>2018-04-21T06:08:32Z</time>
      </trkpt>
      <trkpt lat="45.02381" lon="6.47109">
        <ele>1905.47</ele>
        <time>2018-04-21T06:08:46Z</time>
      </trkpt>
      <trkpt lat="45.02387" lon="6.47122">
        <ele>1906.43</ele>
        <time>2018-04-21T06:09:01Z</time>
      </trkpt>
      <trkpt lat="45.0239" lon="6.47133">
        <ele>1907.39</ele>
        <time>2018-04-21T06:09:15Z</time>
      </trkpt>
      <trkpt lat="45.02394" lon="6.47143">
        <ele>1908.35</ele>
        <time>2018-04-21T06:09:28Z</time>
      </trkpt>
      <trkpt lat="45.024" lon="6.47156">
        <ele>1909.32</ele>
        <time>2018-04-21T06:09:43Z</time>
      </trkpt>
      <trkpt lat="45.02406" lon="6.47168">
        <ele>1909.8</ele>
        <time>2018-04-21T06:09:58Z</time>
      </trkpt>
      <trkpt lat="45.02413" lon="6.4718">
        <ele>1910.28</ele>
        <time>2018-04-21T06:10:13Z</time>
      </trkpt>
      <trkpt lat="45.02416" lon="6.47188">
        <ele>1911.72</ele>
        <time>2018-04-21T06:10:26Z</time>
      </trkpt>
      <trkpt lat="45.0242" lon="6.47199">
        <ele>1912.68</ele>
        <time>2018-04-21T06:10:38Z</time>
      </trkpt>
      <trkpt lat="45.02425" lon="6.47208">
        <ele>1913.64</ele>
        <time>2018-04-21T06:10:51Z</time>
      </trkpt>
      <trkpt lat="45.02428" lon="6.47215">
        <ele>1915.08</ele>
        <time>2018-04-21T06:11:05Z</time>
      </trkpt>
      <trkpt lat="45.02434" lon="6.47224">
        <ele>1916.04</ele>
        <time>2018-04-21T06:11:18Z</time>
      </trkpt>
      <trkpt lat="45.02438" lon="6.47233">
        <ele>1917.49</ele>
        <time>2018-04-21T06:11:31Z</time>
      </trkpt>
      <trkpt lat="45.02444" lon="6.4724">
        <ele>1917.97</ele>
        <time>2018-04-21T06:11:45Z</time>
      </trkpt>
      <trkpt lat="45.02448" lon="6.47251">
        <ele>1920.37</ele>
        <time>2018-04-21T06:12:02Z</time>
      </trkpt>
      <trkpt lat="45.02453" lon="6.47258">
        <ele>1920.85</ele>
        <time>2018-04-21T06:12:14Z</time>
      </trkpt>
      <trkpt lat="45.02458" lon="6.47268">
        <ele>1922.29</ele>
        <time>2018-04-21T06:12:32Z</time>
      </trkpt>
      <trkpt lat="45.02458" lon="6.47273">
        <ele>1923.25</ele>
        <time>2018-04-21T06:12:49Z</time>
      </trkpt>
      <trkpt lat="45.02458" lon="6.47281">
        <ele>1925.18</ele>
        <time>2018-04-21T06:13:02Z</time>
      </trkpt>
      <trkpt lat="45.02464" lon="6.47296">
        <ele>1926.62</ele>
        <time>2018-04-21T06:13:17Z</time>
      </trkpt>
      <trkpt lat="45.02466" lon="6.47303">
        <ele>1929.98</ele>
        <time>2018-04-21T06:13:31Z</time>
      </trkpt>
      <trkpt lat="45.02471" lon="6.47316">
        <ele>1930.95</ele>
        <time>2018-04-21T06:13:50Z</time>
      </trkpt>
      <trkpt lat="45.02475" lon="6.47326">
        <ele>1932.39</ele>
        <time>2018-04-21T06:14:06Z</time>
      </trkpt>
      <trkpt lat="45.02477" lon="6.47338">
        <ele>1934.79</ele>
        <time>2018-04-21T06:14:25Z</time>
      </trkpt>
      <trkpt lat="45.02482" lon="6.47349">
        <ele>1936.23</ele>
        <time>2018-04-21T06:14:39Z</time>
      </trkpt>
      <trkpt lat="45.02484" lon="6.47356">
        <ele>1938.16</ele>
        <time>2018-04-21T06:14:52Z</time>
      </trkpt>
      <trkpt lat="45.02488" lon="6.47366">
        <ele>1939.12</ele>
        <time>2018-04-21T06:15:08Z</time>
      </trkpt>
      <trkpt lat="45.02492" lon="6.47376">
        <ele>1941.04</ele>
        <time>2018-04-21T06:15:25Z</time>
      </trkpt>
      <trkpt lat="45.02495" lon="6.47389">
        <ele>1942.48</ele>
        <time>2018-04-21T06:15:41Z</time>
      </trkpt>
      <trkpt lat="45.025" lon="6.474">
        <ele>1944.4</ele>
        <time>2018-04-21T06:15:57Z</time>
      </trkpt>
      <trkpt lat="45.02503" lon="6.47407">
        <ele>1945.85</ele>
        <time>2018-04-21T06:16:11Z</time>
      </trkpt>
      <trkpt lat="45.02506" lon="6.47419">
        <ele>1948.25</ele>
        <time>2018-04-21T06:16:29Z</time>
      </trkpt>
      <trkpt lat="45.0251" lon="6.47432">
        <ele>1950.17</ele>
        <time>2018-04-21T06:16:47Z</time>
      </trkpt>
      <trkpt lat="45.02514" lon="6.47442">
        <ele>1951.13</ele>
        <time>2018-04-21T06:17:01Z</time>
      </trkpt>
      <trkpt lat="45.02516" lon="6.47455">
        <ele>1953.54</ele>
        <time>2018-04-21T06:17:17Z</time>
      </trkpt>
      <trkpt lat="45.02519" lon="6.47469">
        <ele>1955.46</ele>
        <time>2018-04-21T06:17:35Z</time>
      </trkpt>
      <trkpt lat="45.02524" lon="6.47479">
        <ele>1956.9</ele>
        <time>2018-04-21T06:17:52Z</time>
      </trkpt>
      <trkpt lat="45.02531" lon="6.47493">
        <ele>1958.82</ele>
        <time>2018-04-21T06:18:12Z</time>
      </trkpt>
      <trkpt lat="45.02534" lon="6.47503">
        <ele>1961.23</ele>
        <time>2018-04-21T06:18:30Z</time>
      </trkpt>
      <trkpt lat="45.02537" lon="6.47518">
        <ele>1963.15</ele>
        <time>2018-04-21T06:18:46Z</time>
      </trkpt>
      <trkpt lat="45.0254" lon="6.47528">
        <ele>1965.07</ele>
        <time>2018-04-21T06:19:03Z</time>
      </trkpt>
      <trkpt lat="45.02546" lon="6.47538">
        <ele>1966.99</ele>
        <time>2018-04-21T06:19:19Z</time>
      </trkpt>
      <trkpt lat="45.02549" lon="6.47547">
        <ele>1968.44</ele>
        <time>2018-04-21T06:19:33Z</time>
      </trkpt>
      <trkpt lat="45.02554" lon="6.47553">
        <ele>1970.36</ele>
        <time>2018-04-21T06:19:50Z</time>
      </trkpt>
      <trkpt lat="45.02558" lon="6.47568">
        <ele>1972.76</ele>
        <time>2018-04-21T06:20:07Z</time>
      </trkpt>
      <trkpt lat="45.02562" lon="6.47581">
        <ele>1974.69</ele>
        <time>2018-04-21T06:20:27Z</time>
      </trkpt>
      <trkpt lat="45.02563" lon="6.47592">
        <ele>1977.09</ele>
        <time>2018-04-21T06:20:44Z</time>
      </trkpt>
      <trkpt lat="45.02564" lon="6.476">
        <ele>1979.01</ele>
        <time>2018-04-21T06:21:00Z</time>
      </trkpt>
      <trkpt lat="45.02566" lon="6.47607">
        <ele>1980.93</ele>
        <time>2018-04-21T06:21:16Z</time>
      </trkpt>
      <trkpt lat="45.02567" lon="6.47616">
        <ele>1982.86</ele>
        <time>2018-04-21T06:21:31Z</time>
      </trkpt>
      <trkpt lat="45.0257" lon="6.4763">
        <ele>1984.78</ele>
        <time>2018-04-21T06:21:47Z</time>
      </trkpt>
      <trkpt lat="45.02571" lon="6.4764">
        <ele>1987.18</ele>
        <time>2018-04-21T06:22:04Z</time>
      </trkpt>
      <trkpt lat="45.02573" lon="6.47651">
        <ele>1989.1</ele>
        <time>2018-04-21T06:22:21Z</time>
      </trkpt>
      <trkpt lat="45.02575" lon="6.4766">
        <ele>1991.51</ele>
        <time>2018-04-21T06:22:37Z</time>
      </trkpt>
      <trkpt lat="45.02575" lon="6.4767">
        <ele>1992.47</ele>
        <time>2018-04-21T06:22:52Z</time>
      </trkpt>
      <trkpt lat="45.02577" lon="6.47682">
        <ele>1994.87</ele>
        <time>2018-04-21T06:23:08Z</time>
      </trkpt>
      <trkpt lat="45.02579" lon="6.47693">
        <ele>1996.8</ele>
        <time>2018-04-21T06:23:26Z</time>
      </trkpt>
      <trkpt lat="45.0258" lon="6.47697">
        <ele>1999.68</ele>
        <time>2018-04-21T06:23:36Z</time>
      </trkpt>
      <trkpt lat="45.02582" lon="6.47706">
        <ele>1999.68</ele>
        <time>2018-04-21T06:23:51Z</time>
      </trkpt>
      <trkpt lat="45.02585" lon="6.47715">
        <ele>2002.08</ele>
        <time>2018-04-21T06:24:08Z</time>
      </trkpt>
      <trkpt lat="45.02587" lon="6.47725">
        <ele>2004.01</ele>
        <time>2018-04-21T06:24:24Z</time>
      </trkpt>
      <trkpt lat="45.02586" lon="6.47734">
        <ele>2006.41</ele>
        <time>2018-04-21T06:24:43Z</time>
      </trkpt>
      <trkpt lat="45.02585" lon="6.47741">
        <ele>2007.37</ele>
        <time>2018-04-21T06:24:58Z</time>
      </trkpt>
      <trkpt lat="45.02587" lon="6.47747">
        <ele>2008.33</ele>
        <time>2018-04-21T06:25:13Z</time>
      </trkpt>
      <trkpt lat="45.02589" lon="6.47753">
        <ele>2010.25</ele>
        <time>2018-04-21T06:25:27Z</time>
      </trkpt>
      <trkpt lat="45.02591" lon="6.47761">
        <ele>2012.18</ele>
        <time>2018-04-21T06:25:42Z</time>
      </trkpt>
      <trkpt lat="45.02593" lon="6.4777">
        <ele>2013.62</ele>
        <time>2018-04-21T06:25:58Z</time>
      </trkpt>
      <trkpt lat="45.02597" lon="6.47779">
        <ele>2015.54</ele>
        <time>2018-04-21T06:26:16Z</time>
      </trkpt>
      <trkpt lat="45.02598" lon="6.47789">
        <ele>2017.94</ele>
        <time>2018-04-21T06:26:35Z</time>
      </trkpt>
      <trkpt lat="45.026" lon="6.47797">
        <ele>2019.87</ele>
        <time>2018-04-21T06:26:52Z</time>
      </trkpt>
      <trkpt lat="45.02603" lon="6.47804">
        <ele>2021.31</ele>
        <time>2018-04-21T06:27:05Z</time>
      </trkpt>
      <trkpt lat="45.02605" lon="6.47814">
        <ele>2023.23</ele>
        <time>2018-04-21T06:27:24Z</time>
      </trkpt>
      <trkpt lat="45.02605" lon="6.4782">
        <ele>2024.67</ele>
        <time>2018-04-21T06:27:36Z</time>
      </trkpt>
      <trkpt lat="45.02604" lon="6.47828">
        <ele>2026.6</ele>
        <time>2018-04-21T06:27:53Z</time>
      </trkpt>
      <trkpt lat="45.02606" lon="6.47839">
        <ele>2029</ele>
        <time>2018-04-21T06:28:11Z</time>
      </trkpt>
      <trkpt lat="45.02608" lon="6.47848">
        <ele>2030.44</ele>
        <time>2018-04-21T06:28:25Z</time>
      </trkpt>
      <trkpt lat="45.02608" lon="6.47855">
        <ele>2031.88</ele>
        <time>2018-04-21T06:28:41Z</time>
      </trkpt>
      <trkpt lat="45.02611" lon="6.47862">
        <ele>2033.81</ele>
        <time>2018-04-21T06:28:59Z</time>
      </trkpt>
      <trkpt lat="45.02612" lon="6.4787">
        <ele>2035.73</ele>
        <time>2018-04-21T06:29:14Z</time>
      </trkpt>
      <trkpt lat="45.02619" lon="6.47879">
        <ele>2037.65</ele>
        <time>2018-04-21T06:29:31Z</time>
      </trkpt>
      <trkpt lat="45.02622" lon="6.47884">
        <ele>2039.57</ele>
        <time>2018-04-21T06:29:47Z</time>
      </trkpt>
      <trkpt lat="45.02624" lon="6.47889">
        <ele>2041.02</ele>
        <time>2018-04-21T06:30:02Z</time>
      </trkpt>
      <trkpt lat="45.02628" lon="6.47897">
        <ele>2042.94</ele>
        <time>2018-04-21T06:30:19Z</time>
      </trkpt>
      <trkpt lat="45.0263" lon="6.47903">
        <ele>2044.38</ele>
        <time>2018-04-21T06:30:34Z</time>
      </trkpt>
      <trkpt lat="45.02634" lon="6.47911">
        <ele>2046.3</ele>
        <time>2018-04-21T06:30:49Z</time>
      </trkpt>
      <trkpt lat="45.02637" lon="6.47916">
        <ele>2047.75</ele>
        <time>2018-04-21T06:31:03Z</time>
      </trkpt>
      <trkpt lat="45.02639" lon="6.47922">
        <ele>2049.19</ele>
        <time>2018-04-21T06:31:17Z</time>
      </trkpt>
      <trkpt lat="45.02641" lon="6.47928">
        <ele>2051.11</ele>
        <time>2018-04-21T06:31:34Z</time>
      </trkpt>
      <trkpt lat="45.02645" lon="6.47937">
        <ele>2052.55</ele>
        <time>2018-04-21T06:31:52Z</time>
      </trkpt>
      <trkpt lat="45.02652" lon="6.4794">
        <ele>2054.47</ele>
        <time>2018-04-21T06:32:06Z</time>
      </trkpt>
      <trkpt lat="45.02654" lon="6.47947">
        <ele>2055.92</ele>
        <time>2018-04-21T06:32:20Z</time>
      </trkpt>
      <trkpt lat="45.02659" lon="6.47951">
        <ele>2057.36</ele>
        <time>2018-04-21T06:32:35Z</time>
      </trkpt>
      <trkpt lat="45.02664" lon="6.47953">
        <ele>2059.28</ele>
        <time>2018-04-21T06:32:50Z</time>
      </trkpt>
      <trkpt lat="45.02671" lon="6.47951">
        <ele>2060.72</ele>
        <time>2018-04-21T06:33:04Z</time>
      </trkpt>
      <trkpt lat="45.02679" lon="6.47949">
        <ele>2062.17</ele>
        <time>2018-04-21T06:33:18Z</time>
      </trkpt>
      <trkpt lat="45.02685" lon="6.47951">
        <ele>2064.57</ele>
        <time>2018-04-21T06:33:34Z</time>
      </trkpt>
      <trkpt lat="45.02686" lon="6.47951">
        <ele>2066.49</ele>
        <time>2018-04-21T06:33:40Z</time>
      </trkpt>
      <trkpt lat="45.02692" lon="6.47954">
        <ele>2066.97</ele>
        <time>2018-04-21T06:33:57Z</time>
      </trkpt>
      <trkpt lat="45.02696" lon="6.47957">
        <ele>2067.93</ele>
        <time>2018-04-21T06:34:07Z</time>
      </trkpt>
      <trkpt lat="45.02704" lon="6.47958">
        <ele>2069.38</ele>
        <time>2018-04-21T06:34:21Z</time>
      </trkpt>
      <trkpt lat="45.02701" lon="6.4796">
        <ele>2072.26</ele>
        <time>2018-04-21T06:34:37Z</time>
      </trkpt>
      <trkpt lat="45.02706" lon="6.47965">
        <ele>2074.18</ele>
        <time>2018-04-21T06:34:54Z</time>
      </trkpt>
      <trkpt lat="45.02714" lon="6.47971">
        <ele>2076.59</ele>
        <time>2018-04-21T06:35:10Z</time>
      </trkpt>
      <trkpt lat="45.02715" lon="6.47976">
        <ele>2078.03</ele>
        <time>2018-04-21T06:35:25Z</time>
      </trkpt>
      <trkpt lat="45.0272" lon="6.47979">
        <ele>2079.47</ele>
        <time>2018-04-21T06:35:41Z</time>
      </trkpt>
      <trkpt lat="45.02723" lon="6.47988">
        <ele>2081.87</ele>
        <time>2018-04-21T06:36:00Z</time>
      </trkpt>
      <trkpt lat="45.02726" lon="6.47994">
        <ele>2083.79</ele>
        <time>2018-04-21T06:36:17Z</time>
      </trkpt>
      <trkpt lat="45.02729" lon="6.48001">
        <ele>2085.72</ele>
        <time>2018-04-21T06:36:35Z</time>
      </trkpt>
      <trkpt lat="45.02733" lon="6.48007">
        <ele>2087.64</ele>
        <time>2018-04-21T06:36:50Z</time>
      </trkpt>
      <trkpt lat="45.02739" lon="6.48013">
        <ele>2090.04</ele>
        <time>2018-04-21T06:37:09Z</time>
      </trkpt>
      <trkpt lat="45.02738" lon="6.4802">
        <ele>2092.45</ele>
        <time>2018-04-21T06:37:28Z</time>
      </trkpt>
      <trkpt lat="45.02738" lon="6.48027">
        <ele>2095.81</ele>
        <time>2018-04-21T06:37:42Z</time>
      </trkpt>
      <trkpt lat="45.02736" lon="6.48034">
        <ele>2095.81</ele>
        <time>2018-04-21T06:38:00Z</time>
      </trkpt>
      <trkpt lat="45.02735" lon="6.48043">
        <ele>2097.73</ele>
        <time>2018-04-21T06:38:17Z</time>
      </trkpt>
      <trkpt lat="45.02734" lon="6.4805">
        <ele>2099.18</ele>
        <time>2018-04-21T06:38:33Z</time>
      </trkpt>
      <trkpt lat="45.02734" lon="6.48059">
        <ele>2101.1</ele>
        <time>2018-04-21T06:38:49Z</time>
      </trkpt>
      <trkpt lat="45.02732" lon="6.48064">
        <ele>2102.06</ele>
        <time>2018-04-21T06:39:00Z</time>
      </trkpt>
      <trkpt lat="45.0273" lon="6.48061">
        <ele>2102.06</ele>
        <time>2018-04-21T06:39:15Z</time>
      </trkpt>
      <trkpt lat="45.02737" lon="6.48066">
        <ele>2103.02</ele>
        <time>2018-04-21T06:39:44Z</time>
      </trkpt>
      <trkpt lat="45.02742" lon="6.4807">
        <ele>2104.46</ele>
        <time>2018-04-21T06:39:59Z</time>
      </trkpt>
      <trkpt lat="45.02746" lon="6.48079">
        <ele>2106.39</ele>
        <time>2018-04-21T06:40:14Z</time>
      </trkpt>
      <trkpt lat="45.02748" lon="6.48084">
        <ele>2109.27</ele>
        <time>2018-04-21T06:40:29Z</time>
      </trkpt>
      <trkpt lat="45.02749" lon="6.48091">
        <ele>2108.79</ele>
        <time>2018-04-21T06:40:48Z</time>
      </trkpt>
      <trkpt lat="45.0275" lon="6.48091">
        <ele>2111.19</ele>
        <time>2018-04-21T06:40:50Z</time>
      </trkpt>
      <trkpt lat="45.02757" lon="6.48095">
        <ele>2113.6</ele>
        <time>2018-04-21T06:41:06Z</time>
      </trkpt>
      <trkpt lat="45.02762" lon="6.48099">
        <ele>2115.52</ele>
        <time>2018-04-21T06:41:23Z</time>
      </trkpt>
      <trkpt lat="45.02762" lon="6.48102">
        <ele>2117.44</ele>
        <time>2018-04-21T06:41:37Z</time>
      </trkpt>
      <trkpt lat="45.02761" lon="6.48109">
        <ele>2118.88</ele>
        <time>2018-04-21T06:41:50Z</time>
      </trkpt>
      <trkpt lat="45.02759" lon="6.48116">
        <ele>2120.81</ele>
        <time>2018-04-21T06:42:04Z</time>
      </trkpt>
      <trkpt lat="45.02758" lon="6.48121">
        <ele>2122.25</ele>
        <time>2018-04-21T06:42:16Z</time>
      </trkpt>
      <trkpt lat="45.02756" lon="6.48126">
        <ele>2123.69</ele>
        <time>2018-04-21T06:42:32Z</time>
      </trkpt>
      <trkpt lat="45.02754" lon="6.48133">
        <ele>2125.61</ele>
        <time>2018-04-21T06:42:47Z</time>
      </trkpt>
      <trkpt lat="45.02755" lon="6.4814">
        <ele>2127.53</ele>
        <time>2018-04-21T06:43:03Z</time>
      </trkpt>
      <trkpt lat="45.02754" lon="6.48146">
        <ele>2129.46</ele>
        <time>2018-04-21T06:43:18Z</time>
      </trkpt>
      <trkpt lat="45.02754" lon="6.4815">
        <ele>2130.9</ele>
        <time>2018-04-21T06:43:31Z</time>
      </trkpt>
      <trkpt lat="45.02756" lon="6.48157">
        <ele>2132.34</ele>
        <time>2018-04-21T06:43:44Z</time>
      </trkpt>
      <trkpt lat="45.02758" lon="6.48163">
        <ele>2134.74</ele>
        <time>2018-04-21T06:43:59Z</time>
      </trkpt>
      <trkpt lat="45.02763" lon="6.4817">
        <ele>2136.19</ele>
        <time>2018-04-21T06:44:14Z</time>
      </trkpt>
      <trkpt lat="45.02765" lon="6.48174">
        <ele>2137.63</ele>
        <time>2018-04-21T06:44:25Z</time>
      </trkpt>
      <trkpt lat="45.02768" lon="6.48184">
        <ele>2139.55</ele>
        <time>2018-04-21T06:44:41Z</time>
      </trkpt>
      <trkpt lat="45.02771" lon="6.48191">
        <ele>2140.99</ele>
        <time>2018-04-21T06:44:56Z</time>
      </trkpt>
      <trkpt lat="45.02773" lon="6.48195">
        <ele>2142.92</ele>
        <time>2018-04-21T06:45:10Z</time>
      </trkpt>
      <trkpt lat="45.02775" lon="6.482">
        <ele>2143.88</ele>
        <time>2018-04-21T06:45:22Z</time>
      </trkpt>
      <trkpt lat="45.02779" lon="6.48207">
        <ele>2144.84</ele>
        <time>2018-04-21T06:45:36Z</time>
      </trkpt>
      <trkpt lat="45.02781" lon="6.48211">
        <ele>2146.76</ele>
        <time>2018-04-21T06:45:50Z</time>
      </trkpt>
      <trkpt lat="45.02784" lon="6.48216">
        <ele>2148.2</ele>
        <time>2018-04-21T06:46:03Z</time>
      </trkpt>
      <trkpt lat="45.02788" lon="6.48219">
        <ele>2149.65</ele>
        <time>2018-04-21T06:46:16Z</time>
      </trkpt>
      <trkpt lat="45.02791" lon="6.48223">
        <ele>2151.57</ele>
        <time>2018-04-21T06:46:31Z</time>
      </trkpt>
      <trkpt lat="45.02795" lon="6.48227">
        <ele>2153.49</ele>
        <time>2018-04-21T06:46:45Z</time>
      </trkpt>
      <trkpt lat="45.02798" lon="6.48233">
        <ele>2154.93</ele>
        <time>2018-04-21T06:46:59Z</time>
      </trkpt>
      <trkpt lat="45.02802" lon="6.48233">
        <ele>2156.37</ele>
        <time>2018-04-21T06:47:14Z</time>
      </trkpt>
      <trkpt lat="45.02805" lon="6.48235">
        <ele>2157.82</ele>
        <time>2018-04-21T06:47:31Z</time>
      </trkpt>
      <trkpt lat="45.02808" lon="6.48238">
        <ele>2160.7</ele>
        <time>2018-04-21T06:47:44Z</time>
      </trkpt>
      <trkpt lat="45.02814" lon="6.48242">
        <ele>2162.14</ele>
        <time>2018-04-21T06:48:01Z</time>
      </trkpt>
      <trkpt lat="45.02815" lon="6.48246">
        <ele>2164.06</ele>
        <time>2018-04-21T06:48:15Z</time>
      </trkpt>
      <trkpt lat="45.02821" lon="6.48248">
        <ele>2165.51</ele>
        <time>2018-04-21T06:48:29Z</time>
      </trkpt>
      <trkpt lat="45.02828" lon="6.4825">
        <ele>2167.43</ele>
        <time>2018-04-21T06:48:44Z</time>
      </trkpt>
      <trkpt lat="45.02831" lon="6.48251">
        <ele>2169.35</ele>
        <time>2018-04-21T06:48:59Z</time>
      </trkpt>
      <trkpt lat="45.0284" lon="6.48255">
        <ele>2172.24</ele>
        <time>2018-04-21T06:49:18Z</time>
      </trkpt>
      <trkpt lat="45.02842" lon="6.48258">
        <ele>2174.16</ele>
        <time>2018-04-21T06:49:33Z</time>
      </trkpt>
      <trkpt lat="45.0285" lon="6.48261">
        <ele>2176.56</ele>
        <time>2018-04-21T06:49:47Z</time>
      </trkpt>
      <trkpt lat="45.0286" lon="6.4826">
        <ele>2177.04</ele>
        <time>2018-04-21T06:50:03Z</time>
      </trkpt>
      <trkpt lat="45.02868" lon="6.48264">
        <ele>2178</ele>
        <time>2018-04-21T06:50:16Z</time>
      </trkpt>
      <trkpt lat="45.02871" lon="6.48266">
        <ele>2179.45</ele>
        <time>2018-04-21T06:50:31Z</time>
      </trkpt>
      <trkpt lat="45.02877" lon="6.48269">
        <ele>2179.93</ele>
        <time>2018-04-21T06:50:40Z</time>
      </trkpt>
      <trkpt lat="45.02884" lon="6.48274">
        <ele>2180.89</ele>
        <time>2018-04-21T06:50:53Z</time>
      </trkpt>
      <trkpt lat="45.0288" lon="6.48278">
        <ele>2180.89</ele>
        <time>2018-04-21T06:50:58Z</time>
      </trkpt>
      <trkpt lat="45.02883" lon="6.48287">
        <ele>2182.81</ele>
        <time>2018-04-21T06:51:14Z</time>
      </trkpt>
      <trkpt lat="45.02889" lon="6.48296">
        <ele>2183.29</ele>
        <time>2018-04-21T06:51:29Z</time>
      </trkpt>
      <trkpt lat="45.02895" lon="6.48304">
        <ele>2183.77</ele>
        <time>2018-04-21T06:51:42Z</time>
      </trkpt>
      <trkpt lat="45.02901" lon="6.48313">
        <ele>2184.25</ele>
        <time>2018-04-21T06:51:56Z</time>
      </trkpt>
      <trkpt lat="45.02901" lon="6.48315">
        <ele>2185.69</ele>
        <time>2018-04-21T06:52:08Z</time>
      </trkpt>
      <trkpt lat="45.02897" lon="6.48323">
        <ele>2187.14</ele>
        <time>2018-04-21T06:52:21Z</time>
      </trkpt>
      <trkpt lat="45.02902" lon="6.48331">
        <ele>2188.1</ele>
        <time>2018-04-21T06:52:40Z</time>
      </trkpt>
      <trkpt lat="45.02898" lon="6.48343">
        <ele>2188.58</ele>
        <time>2018-04-21T06:52:59Z</time>
      </trkpt>
      <trkpt lat="45.02893" lon="6.48354">
        <ele>2189.54</ele>
        <time>2018-04-21T06:53:15Z</time>
      </trkpt>
      <trkpt lat="45.02892" lon="6.48365">
        <ele>2190.5</ele>
        <time>2018-04-21T06:53:30Z</time>
      </trkpt>
      <trkpt lat="45.0289" lon="6.48374">
        <ele>2190.98</ele>
        <time>2018-04-21T06:53:46Z</time>
      </trkpt>
      <trkpt lat="45.02887" lon="6.48387">
        <ele>2191.94</ele>
        <time>2018-04-21T06:54:03Z</time>
      </trkpt>
      <trkpt lat="45.02889" lon="6.48396">
        <ele>2192.42</ele>
        <time>2018-04-21T06:54:17Z</time>
      </trkpt>
      <trkpt lat="45.0289" lon="6.48403">
        <ele>2192.42</ele>
        <time>2018-04-21T06:54:30Z</time>
      </trkpt>
      <trkpt lat="45.02891" lon="6.48412">
        <ele>2193.39</ele>
        <time>2018-04-21T06:54:42Z</time>
      </trkpt>
      <trkpt lat="45.02893" lon="6.48424">
        <ele>2194.83</ele>
        <time>2018-04-21T06:54:57Z</time>
      </trkpt>
      <trkpt lat="45.02894" lon="6.48433">
        <ele>2195.79</ele>
        <time>2018-04-21T06:55:10Z</time>
      </trkpt>
      <trkpt lat="45.02895" lon="6.48442">
        <ele>2196.27</ele>
        <time>2018-04-21T06:55:23Z</time>
      </trkpt>
      <trkpt lat="45.02897" lon="6.4845">
        <ele>2197.23</ele>
        <time>2018-04-21T06:55:34Z</time>
      </trkpt>
      <trkpt lat="45.02898" lon="6.48457">
        <ele>2197.23</ele>
        <time>2018-04-21T06:55:44Z</time>
      </trkpt>
      <trkpt lat="45.029" lon="6.48464">
        <ele>2197.71</ele>
        <time>2018-04-21T06:55:54Z</time>
      </trkpt>
      <trkpt lat="45.029" lon="6.48471">
        <ele>2198.19</ele>
        <time>2018-04-21T06:56:08Z</time>
      </trkpt>
      <trkpt lat="45.02905" lon="6.48483">
        <ele>2199.15</ele>
        <time>2018-04-21T06:56:23Z</time>
      </trkpt>
      <trkpt lat="45.02907" lon="6.48486">
        <ele>2199.63</ele>
        <time>2018-04-21T06:56:39Z</time>
      </trkpt>
      <trkpt lat="45.02914" lon="6.48493">
        <ele>2201.08</ele>
        <time>2018-04-21T06:56:53Z</time>
      </trkpt>
      <trkpt lat="45.02916" lon="6.48499">
        <ele>2202.04</ele>
        <time>2018-04-21T06:57:07Z</time>
      </trkpt>
      <trkpt lat="45.02918" lon="6.48505">
        <ele>2203.48</ele>
        <time>2018-04-21T06:57:21Z</time>
      </trkpt>
      <trkpt lat="45.0292" lon="6.48507">
        <ele>2204.44</ele>
        <time>2018-04-21T06:57:35Z</time>
      </trkpt>
      <trkpt lat="45.02922" lon="6.48513">
        <ele>2205.4</ele>
        <time>2018-04-21T06:57:48Z</time>
      </trkpt>
      <trkpt lat="45.02924" lon="6.48516">
        <ele>2205.88</ele>
        <time>2018-04-21T06:57:59Z</time>
      </trkpt>
      <trkpt lat="45.02933" lon="6.48522">
        <ele>2206.36</ele>
        <time>2018-04-21T06:58:14Z</time>
      </trkpt>
      <trkpt lat="45.02943" lon="6.48527">
        <ele>2206.84</ele>
        <time>2018-04-21T06:58:28Z</time>
      </trkpt>
      <trkpt lat="45.02951" lon="6.48531">
        <ele>2208.29</ele>
        <time>2018-04-21T06:58:42Z</time>
      </trkpt>
      <trkpt lat="45.02958" lon="6.48532">
        <ele>2208.29</ele>
        <time>2018-04-21T06:58:55Z</time>
      </trkpt>
      <trkpt lat="45.02966" lon="6.48533">
        <ele>2208.77</ele>
        <time>2018-04-21T06:59:08Z</time>
      </trkpt>
      <trkpt lat="45.02974" lon="6.48533">
        <ele>2209.25</ele>
        <time>2018-04-21T06:59:21Z</time>
      </trkpt>
      <trkpt lat="45.02981" lon="6.48533">
        <ele>2209.25</ele>
        <time>2018-04-21T06:59:36Z</time>
      </trkpt>
      <trkpt lat="45.02991" lon="6.48527">
        <ele>2209.73</ele>
        <time>2018-04-21T06:59:50Z</time>
      </trkpt>
      <trkpt lat="45.03" lon="6.4852">
        <ele>2210.69</ele>
        <time>2018-04-21T07:00:04Z</time>
      </trkpt>
      <trkpt lat="45.03008" lon="6.48515">
        <ele>2211.65</ele>
        <time>2018-04-21T07:00:18Z</time>
      </trkpt>
      <trkpt lat="45.03015" lon="6.48511">
        <ele>2212.13</ele>
        <time>2018-04-21T07:00:31Z</time>
      </trkpt>
      <trkpt lat="45.03023" lon="6.48507">
        <ele>2213.09</ele>
        <time>2018-04-21T07:00:45Z</time>
      </trkpt>
      <trkpt lat="45.03032" lon="6.485">
        <ele>2213.57</ele>
        <time>2018-04-21T07:00:59Z</time>
      </trkpt>
      <trkpt lat="45.03042" lon="6.48496">
        <ele>2213.57</ele>
        <time>2018-04-21T07:01:13Z</time>
      </trkpt>
      <trkpt lat="45.0305" lon="6.4849">
        <ele>2214.53</ele>
        <time>2018-04-21T07:01:27Z</time>
      </trkpt>
      <trkpt lat="45.03056" lon="6.48485">
        <ele>2214.53</ele>
        <time>2018-04-21T07:01:37Z</time>
      </trkpt>
      <trkpt lat="45.03061" lon="6.4848">
        <ele>2214.53</ele>
        <time>2018-04-21T07:01:53Z</time>
      </trkpt>
      <trkpt lat="45.03068" lon="6.48476">
        <ele>2214.05</ele>
        <time>2018-04-21T07:02:06Z</time>
      </trkpt>
      <trkpt lat="45.03066" lon="6.48476">
        <ele>2214.53</ele>
        <time>2018-04-21T07:02:19Z</time>
      </trkpt>
      <trkpt lat="45.03066" lon="6.48477">
        <ele>2214.53</ele>
        <time>2018-04-21T07:02:32Z</time>
      </trkpt>
      <trkpt lat="45.03068" lon="6.48481">
        <ele>2215.01</ele>
        <time>2018-04-21T07:02:46Z</time>
      </trkpt>
      <trkpt lat="45.03069" lon="6.4848">
        <ele>2214.53</ele>
        <time>2018-04-21T07:02:58Z</time>
      </trkpt>
      <trkpt lat="45.03077" lon="6.48481">
        <ele>2216.46</ele>
        <time>2018-04-21T07:03:12Z</time>
      </trkpt>
      <trkpt lat="45.03086" lon="6.48488">
        <ele>2217.42</ele>
        <time>2018-04-21T07:03:27Z</time>
      </trkpt>
      <trkpt lat="45.0309" lon="6.48494">
        <ele>2218.86</ele>
        <time>2018-04-21T07:03:42Z</time>
      </trkpt>
      <trkpt lat="45.03097" lon="6.48504">
        <ele>2220.78</ele>
        <time>2018-04-21T07:04:01Z</time>
      </trkpt>
      <trkpt lat="45.03102" lon="6.4851">
        <ele>2221.74</ele>
        <time>2018-04-21T07:04:21Z</time>
      </trkpt>
      <trkpt lat="45.03105" lon="6.48511">
        <ele>2222.71</ele>
        <time>2018-04-21T07:04:41Z</time>
      </trkpt>
      <trkpt lat="45.03112" lon="6.48514">
        <ele>2224.63</ele>
        <time>2018-04-21T07:04:55Z</time>
      </trkpt>
      <trkpt lat="45.03119" lon="6.48516">
        <ele>2225.59</ele>
        <time>2018-04-21T07:05:05Z</time>
      </trkpt>
      <trkpt lat="45.03129" lon="6.48522">
        <ele>2226.07</ele>
        <time>2018-04-21T07:05:20Z</time>
      </trkpt>
      <trkpt lat="45.03135" lon="6.4853">
        <ele>2227.03</ele>
        <time>2018-04-21T07:05:33Z</time>
      </trkpt>
      <trkpt lat="45.03142" lon="6.48537">
        <ele>2227.51</ele>
        <time>2018-04-21T07:05:46Z</time>
      </trkpt>
      <trkpt lat="45.0314" lon="6.48535">
        <ele>2227.99</ele>
        <time>2018-04-21T07:05:58Z</time>
      </trkpt>
      <trkpt lat="45.03142" lon="6.48539">
        <ele>2228.47</ele>
        <time>2018-04-21T07:06:11Z</time>
      </trkpt>
      <trkpt lat="45.03146" lon="6.48539">
        <ele>2228.95</ele>
        <time>2018-04-21T07:06:24Z</time>
      </trkpt>
      <trkpt lat="45.03153" lon="6.48545">
        <ele>2229.43</ele>
        <time>2018-04-21T07:06:35Z</time>
      </trkpt>
      <trkpt lat="45.03159" lon="6.48553">
        <ele>2230.88</ele>
        <time>2018-04-21T07:06:49Z</time>
      </trkpt>
      <trkpt lat="45.03168" lon="6.48563">
        <ele>2231.84</ele>
        <time>2018-04-21T07:07:04Z</time>
      </trkpt>
      <trkpt lat="45.03176" lon="6.48569">
        <ele>2232.8</ele>
        <time>2018-04-21T07:07:17Z</time>
      </trkpt>
      <trkpt lat="45.03184" lon="6.48575">
        <ele>2233.28</ele>
        <time>2018-04-21T07:07:30Z</time>
      </trkpt>
      <trkpt lat="45.03195" lon="6.48578">
        <ele>2234.24</ele>
        <time>2018-04-21T07:07:44Z</time>
      </trkpt>
      <trkpt lat="45.03205" lon="6.48584">
        <ele>2235.68</ele>
        <time>2018-04-21T07:08:02Z</time>
      </trkpt>
      <trkpt lat="45.03214" lon="6.48593">
        <ele>2237.13</ele>
        <time>2018-04-21T07:08:17Z</time>
      </trkpt>
      <trkpt lat="45.03219" lon="6.48597">
        <ele>2237.61</ele>
        <time>2018-04-21T07:08:30Z</time>
      </trkpt>
      <trkpt lat="45.03231" lon="6.48605">
        <ele>2239.05</ele>
        <time>2018-04-21T07:08:49Z</time>
      </trkpt>
      <trkpt lat="45.0324" lon="6.48617">
        <ele>2240.01</ele>
        <time>2018-04-21T07:09:04Z</time>
      </trkpt>
      <trkpt lat="45.0325" lon="6.48621">
        <ele>2240.97</ele>
        <time>2018-04-21T07:09:20Z</time>
      </trkpt>
      <trkpt lat="45.03259" lon="6.48627">
        <ele>2242.41</ele>
        <time>2018-04-21T07:09:36Z</time>
      </trkpt>
      <trkpt lat="45.03269" lon="6.4863">
        <ele>2243.37</ele>
        <time>2018-04-21T07:09:51Z</time>
      </trkpt>
      <trkpt lat="45.03279" lon="6.48634">
        <ele>2244.33</ele>
        <time>2018-04-21T07:10:07Z</time>
      </trkpt>
      <trkpt lat="45.03285" lon="6.4864">
        <ele>2245.78</ele>
        <time>2018-04-21T07:10:23Z</time>
      </trkpt>
      <trkpt lat="45.03292" lon="6.48647">
        <ele>2247.22</ele>
        <time>2018-04-21T07:10:38Z</time>
      </trkpt>
      <trkpt lat="45.03299" lon="6.48648">
        <ele>2248.18</ele>
        <time>2018-04-21T07:10:51Z</time>
      </trkpt>
      <trkpt lat="45.03311" lon="6.48648">
        <ele>2250.1</ele>
        <time>2018-04-21T07:11:06Z</time>
      </trkpt>
      <trkpt lat="45.03324" lon="6.48646">
        <ele>2251.54</ele>
        <time>2018-04-21T07:11:23Z</time>
      </trkpt>
      <trkpt lat="45.03332" lon="6.48649">
        <ele>2252.99</ele>
        <time>2018-04-21T07:11:39Z</time>
      </trkpt>
      <trkpt lat="45.03345" lon="6.48651">
        <ele>2254.91</ele>
        <time>2018-04-21T07:11:56Z</time>
      </trkpt>
      <trkpt lat="45.03352" lon="6.48649">
        <ele>2256.35</ele>
        <time>2018-04-21T07:12:09Z</time>
      </trkpt>
      <trkpt lat="45.03357" lon="6.48651">
        <ele>2256.83</ele>
        <time>2018-04-21T07:12:24Z</time>
      </trkpt>
      <trkpt lat="45.03367" lon="6.48651">
        <ele>2257.79</ele>
        <time>2018-04-21T07:12:37Z</time>
      </trkpt>
      <trkpt lat="45.03374" lon="6.48654">
        <ele>2258.27</ele>
        <time>2018-04-21T07:12:50Z</time>
      </trkpt>
      <trkpt lat="45.03385" lon="6.48657">
        <ele>2259.24</ele>
        <time>2018-04-21T07:13:05Z</time>
      </trkpt>
      <trkpt lat="45.03392" lon="6.48657">
        <ele>2259.72</ele>
        <time>2018-04-21T07:13:19Z</time>
      </trkpt>
      <trkpt lat="45.03403" lon="6.48658">
        <ele>2260.68</ele>
        <time>2018-04-21T07:13:34Z</time>
      </trkpt>
      <trkpt lat="45.03414" lon="6.4866">
        <ele>2261.16</ele>
        <time>2018-04-21T07:13:49Z</time>
      </trkpt>
      <trkpt lat="45.03423" lon="6.48659">
        <ele>2261.64</ele>
        <time>2018-04-21T07:14:03Z</time>
      </trkpt>
      <trkpt lat="45.03435" lon="6.4866">
        <ele>2262.12</ele>
        <time>2018-04-21T07:14:19Z</time>
      </trkpt>
      <trkpt lat="45.03446" lon="6.4866">
        <ele>2264.04</ele>
        <time>2018-04-21T07:14:34Z</time>
      </trkpt>
      <trkpt lat="45.03451" lon="6.4866">
        <ele>2264.04</ele>
        <time>2018-04-21T07:14:48Z</time>
      </trkpt>
      <trkpt lat="45.03443" lon="6.48659">
        <ele>2264.04</ele>
        <time>2018-04-21T07:15:19Z</time>
      </trkpt>
      <trkpt lat="45.03441" lon="6.48656">
        <ele>2264.52</ele>
        <time>2018-04-21T07:15:57Z</time>
      </trkpt>
      <trkpt lat="45.03444" lon="6.48658">
        <ele>2264.52</ele>
        <time>2018-04-21T07:16:34Z</time>
      </trkpt>
      <trkpt lat="45.03451" lon="6.48663">
        <ele>2265</ele>
        <time>2018-04-21T07:17:03Z</time>
      </trkpt>
      <trkpt lat="45.03452" lon="6.48661">
        <ele>2265.48</ele>
        <time>2018-04-21T07:17:19Z</time>
      </trkpt>
      <trkpt lat="45.03449" lon="6.4866">
        <ele>2265.48</ele>
        <time>2018-04-21T07:17:37Z</time>
      </trkpt>
      <trkpt lat="45.03457" lon="6.48657">
        <ele>2266.93</ele>
        <time>2018-04-21T07:17:50Z</time>
      </trkpt>
      <trkpt lat="45.03464" lon="6.48654">
        <ele>2268.37</ele>
        <time>2018-04-21T07:18:01Z</time>
      </trkpt>
      <trkpt lat="45.03472" lon="6.48648">
        <ele>2269.81</ele>
        <time>2018-04-21T07:18:16Z</time>
      </trkpt>
      <trkpt lat="45.0348" lon="6.48645">
        <ele>2271.73</ele>
        <time>2018-04-21T07:18:31Z</time>
      </trkpt>
      <trkpt lat="45.03489" lon="6.48642">
        <ele>2273.17</ele>
        <time>2018-04-21T07:18:46Z</time>
      </trkpt>
      <trkpt lat="45.03494" lon="6.48639">
        <ele>2274.62</ele>
        <time>2018-04-21T07:18:58Z</time>
      </trkpt>
      <trkpt lat="45.03503" lon="6.48636">
        <ele>2276.54</ele>
        <time>2018-04-21T07:19:15Z</time>
      </trkpt>
      <trkpt lat="45.03511" lon="6.48634">
        <ele>2278.46</ele>
        <time>2018-04-21T07:19:31Z</time>
      </trkpt>
      <trkpt lat="45.03517" lon="6.48632">
        <ele>2279.9</ele>
        <time>2018-04-21T07:19:46Z</time>
      </trkpt>
      <trkpt lat="45.03524" lon="6.48629">
        <ele>2281.35</ele>
        <time>2018-04-21T07:20:01Z</time>
      </trkpt>
      <trkpt lat="45.0353" lon="6.48627">
        <ele>2282.31</ele>
        <time>2018-04-21T07:20:14Z</time>
      </trkpt>
      <trkpt lat="45.03536" lon="6.48625">
        <ele>2283.75</ele>
        <time>2018-04-21T07:20:26Z</time>
      </trkpt>
      <trkpt lat="45.03543" lon="6.48623">
        <ele>2285.19</ele>
        <time>2018-04-21T07:20:43Z</time>
      </trkpt>
      <trkpt lat="45.0355" lon="6.48621">
        <ele>2286.63</ele>
        <time>2018-04-21T07:20:57Z</time>
      </trkpt>
      <trkpt lat="45.03555" lon="6.48618">
        <ele>2287.59</ele>
        <time>2018-04-21T07:21:11Z</time>
      </trkpt>
      <trkpt lat="45.03561" lon="6.48614">
        <ele>2289.52</ele>
        <time>2018-04-21T07:21:26Z</time>
      </trkpt>
      <trkpt lat="45.03566" lon="6.4861">
        <ele>2291.44</ele>
        <time>2018-04-21T07:21:40Z</time>
      </trkpt>
      <trkpt lat="45.03572" lon="6.48606">
        <ele>2292.88</ele>
        <time>2018-04-21T07:21:55Z</time>
      </trkpt>
      <trkpt lat="45.03578" lon="6.48602">
        <ele>2293.84</ele>
        <time>2018-04-21T07:22:07Z</time>
      </trkpt>
      <trkpt lat="45.03583" lon="6.48596">
        <ele>2295.28</ele>
        <time>2018-04-21T07:22:22Z</time>
      </trkpt>
      <trkpt lat="45.0359" lon="6.48591">
        <ele>2297.21</ele>
        <time>2018-04-21T07:22:36Z</time>
      </trkpt>
      <trkpt lat="45.03596" lon="6.48587">
        <ele>2298.65</ele>
        <time>2018-04-21T07:22:50Z</time>
      </trkpt>
      <trkpt lat="45.036" lon="6.48582">
        <ele>2300.09</ele>
        <time>2018-04-21T07:23:03Z</time>
      </trkpt>
      <trkpt lat="45.03604" lon="6.48581">
        <ele>2301.05</ele>
        <time>2018-04-21T07:23:12Z</time>
      </trkpt>
      <trkpt lat="45.03608" lon="6.48578">
        <ele>2303.46</ele>
        <time>2018-04-21T07:23:26Z</time>
      </trkpt>
      <trkpt lat="45.0361" lon="6.48576">
        <ele>2304.9</ele>
        <time>2018-04-21T07:23:39Z</time>
      </trkpt>
      <trkpt lat="45.03615" lon="6.48571">
        <ele>2306.34</ele>
        <time>2018-04-21T07:23:52Z</time>
      </trkpt>
      <trkpt lat="45.03618" lon="6.4857">
        <ele>2309.7</ele>
        <time>2018-04-21T07:24:05Z</time>
      </trkpt>
      <trkpt lat="45.03621" lon="6.48566">
        <ele>2309.22</ele>
        <time>2018-04-21T07:24:23Z</time>
      </trkpt>
      <trkpt lat="45.03625" lon="6.48563">
        <ele>2310.67</ele>
        <time>2018-04-21T07:24:38Z</time>
      </trkpt>
      <trkpt lat="45.03626" lon="6.48562">
        <ele>2311.15</ele>
        <time>2018-04-21T07:24:51Z</time>
      </trkpt>
      <trkpt lat="45.03622" lon="6.48563">
        <ele>2310.67</ele>
        <time>2018-04-21T07:25:15Z</time>
      </trkpt>
      <trkpt lat="45.03624" lon="6.48563">
        <ele>2310.67</ele>
        <time>2018-04-21T07:25:40Z</time>
      </trkpt>
      <trkpt lat="45.03623" lon="6.48562">
        <ele>2312.59</ele>
        <time>2018-04-21T07:26:07Z</time>
      </trkpt>
      <trkpt lat="45.03622" lon="6.48563">
        <ele>2310.67</ele>
        <time>2018-04-21T07:26:32Z</time>
      </trkpt>
      <trkpt lat="45.03623" lon="6.48562">
        <ele>2310.67</ele>
        <time>2018-04-21T07:26:50Z</time>
      </trkpt>
      <trkpt lat="45.03626" lon="6.48563">
        <ele>2310.67</ele>
        <time>2018-04-21T07:27:22Z</time>
      </trkpt>
      <trkpt lat="45.03626" lon="6.48565">
        <ele>2310.67</ele>
        <time>2018-04-21T07:27:53Z</time>
      </trkpt>
      <trkpt lat="45.03627" lon="6.48564">
        <ele>2311.15</ele>
        <time>2018-04-21T07:28:22Z</time>
      </trkpt>
      <trkpt lat="45.03623" lon="6.48562">
        <ele>2311.15</ele>
        <time>2018-04-21T07:28:58Z</time>
      </trkpt>
      <trkpt lat="45.03623" lon="6.48563">
        <ele>2311.63</ele>
        <time>2018-04-21T07:29:41Z</time>
      </trkpt>
      <trkpt lat="45.03621" lon="6.48561">
        <ele>2311.63</ele>
        <time>2018-04-21T07:30:24Z</time>
      </trkpt>
      <trkpt lat="45.03622" lon="6.48562">
        <ele>2311.63</ele>
        <time>2018-04-21T07:30:57Z</time>
      </trkpt>
      <trkpt lat="45.03622" lon="6.48559">
        <ele>2311.63</ele>
        <time>2018-04-21T07:31:17Z</time>
      </trkpt>
      <trkpt lat="45.03623" lon="6.48565">
        <ele>2312.11</ele>
        <time>2018-04-21T07:31:54Z</time>
      </trkpt>
      <trkpt lat="45.03621" lon="6.48561">
        <ele>2312.11</ele>
        <time>2018-04-21T07:32:38Z</time>
      </trkpt>
      <trkpt lat="45.03619" lon="6.48561">
        <ele>2312.11</ele>
        <time>2018-04-21T07:33:09Z</time>
      </trkpt>
      <trkpt lat="45.0362" lon="6.4856">
        <ele>2312.11</ele>
        <time>2018-04-21T07:33:40Z</time>
      </trkpt>
      <trkpt lat="45.03621" lon="6.48561">
        <ele>2312.59</ele>
        <time>2018-04-21T07:34:16Z</time>
      </trkpt>
      <trkpt lat="45.03626" lon="6.48565">
        <ele>2312.59</ele>
        <time>2018-04-21T07:34:46Z</time>
      </trkpt>
      <trkpt lat="45.03623" lon="6.48566">
        <ele>2312.59</ele>
        <time>2018-04-21T07:35:18Z</time>
      </trkpt>
      <trkpt lat="45.03625" lon="6.48565">
        <ele>2313.07</ele>
        <time>2018-04-21T07:35:59Z</time>
      </trkpt>
      <trkpt lat="45.03622" lon="6.48563">
        <ele>2313.07</ele>
        <time>2018-04-21T07:36:31Z</time>
      </trkpt>
      <trkpt lat="45.03622" lon="6.48564">
        <ele>2313.07</ele>
        <time>2018-04-21T07:37:10Z</time>
      </trkpt>
      <trkpt lat="45.0362" lon="6.48563">
        <ele>2313.55</ele>
        <time>2018-04-21T07:37:48Z</time>
      </trkpt>
      <trkpt lat="45.0362" lon="6.48564">
        <ele>2313.07</ele>
        <time>2018-04-21T07:38:31Z</time>
      </trkpt>
      <trkpt lat="45.03623" lon="6.48563">
        <ele>2314.51</ele>
        <time>2018-04-21T07:39:00Z</time>
      </trkpt>
      <trkpt lat="45.03623" lon="6.48563">
        <ele>2314.99</ele>
        <time>2018-04-21T07:39:12Z</time>
      </trkpt>
      <trkpt lat="45.03632" lon="6.48561">
        <ele>2316.43</ele>
        <time>2018-04-21T07:39:26Z</time>
      </trkpt>
      <trkpt lat="45.03636" lon="6.48559">
        <ele>2317.4</ele>
        <time>2018-04-21T07:39:38Z</time>
      </trkpt>
      <trkpt lat="45.03644" lon="6.48556">
        <ele>2319.32</ele>
        <time>2018-04-21T07:39:55Z</time>
      </trkpt>
      <trkpt lat="45.03649" lon="6.48555">
        <ele>2320.28</ele>
        <time>2018-04-21T07:40:06Z</time>
      </trkpt>
      <trkpt lat="45.03654" lon="6.48553">
        <ele>2321.24</ele>
        <time>2018-04-21T07:40:21Z</time>
      </trkpt>
      <trkpt lat="45.03661" lon="6.4855">
        <ele>2322.2</ele>
        <time>2018-04-21T07:40:35Z</time>
      </trkpt>
      <trkpt lat="45.03669" lon="6.4855">
        <ele>2323.64</ele>
        <time>2018-04-21T07:40:53Z</time>
      </trkpt>
      <trkpt lat="45.03675" lon="6.48548">
        <ele>2324.61</ele>
        <time>2018-04-21T07:41:04Z</time>
      </trkpt>
      <trkpt lat="45.03681" lon="6.48546">
        <ele>2325.57</ele>
        <time>2018-04-21T07:41:18Z</time>
      </trkpt>
      <trkpt lat="45.03688" lon="6.48545">
        <ele>2327.01</ele>
        <time>2018-04-21T07:41:30Z</time>
      </trkpt>
      <trkpt lat="45.03693" lon="6.48541">
        <ele>2327.97</ele>
        <time>2018-04-21T07:41:43Z</time>
      </trkpt>
      <trkpt lat="45.03697" lon="6.48539">
        <ele>2328.45</ele>
        <time>2018-04-21T07:41:53Z</time>
      </trkpt>
      <trkpt lat="45.03704" lon="6.48535">
        <ele>2330.37</ele>
        <time>2018-04-21T07:42:08Z</time>
      </trkpt>
      <trkpt lat="45.03709" lon="6.48535">
        <ele>2331.33</ele>
        <time>2018-04-21T07:42:21Z</time>
      </trkpt>
      <trkpt lat="45.03714" lon="6.48534">
        <ele>2333.26</ele>
        <time>2018-04-21T07:42:35Z</time>
      </trkpt>
      <trkpt lat="45.03718" lon="6.48532">
        <ele>2335.18</ele>
        <time>2018-04-21T07:42:51Z</time>
      </trkpt>
      <trkpt lat="45.03724" lon="6.48528">
        <ele>2337.1</ele>
        <time>2018-04-21T07:43:08Z</time>
      </trkpt>
      <trkpt lat="45.03728" lon="6.48523">
        <ele>2338.54</ele>
        <time>2018-04-21T07:43:23Z</time>
      </trkpt>
      <trkpt lat="45.03733" lon="6.48521">
        <ele>2340.47</ele>
        <time>2018-04-21T07:43:39Z</time>
      </trkpt>
      <trkpt lat="45.03738" lon="6.48517">
        <ele>2342.39</ele>
        <time>2018-04-21T07:43:54Z</time>
      </trkpt>
      <trkpt lat="45.03743" lon="6.48514">
        <ele>2343.83</ele>
        <time>2018-04-21T07:44:08Z</time>
      </trkpt>
      <trkpt lat="45.03749" lon="6.4851">
        <ele>2345.27</ele>
        <time>2018-04-21T07:44:23Z</time>
      </trkpt>
      <trkpt lat="45.03754" lon="6.48507">
        <ele>2346.72</ele>
        <time>2018-04-21T07:44:36Z</time>
      </trkpt>
      <trkpt lat="45.0376" lon="6.48506">
        <ele>2348.64</ele>
        <time>2018-04-21T07:44:52Z</time>
      </trkpt>
      <trkpt lat="45.03765" lon="6.48506">
        <ele>2349.12</ele>
        <time>2018-04-21T07:45:04Z</time>
      </trkpt>
      <trkpt lat="45.03769" lon="6.48504">
        <ele>2350.08</ele>
        <time>2018-04-21T07:45:16Z</time>
      </trkpt>
      <trkpt lat="45.03769" lon="6.48502">
        <ele>2350.08</ele>
        <time>2018-04-21T07:45:36Z</time>
      </trkpt>
      <trkpt lat="45.03777" lon="6.48503">
        <ele>2351.52</ele>
        <time>2018-04-21T07:45:51Z</time>
      </trkpt>
      <trkpt lat="45.03782" lon="6.48507">
        <ele>2353.44</ele>
        <time>2018-04-21T07:46:04Z</time>
      </trkpt>
      <trkpt lat="45.03792" lon="6.48503">
        <ele>2354.89</ele>
        <time>2018-04-21T07:46:19Z</time>
      </trkpt>
      <trkpt lat="45.03799" lon="6.48504">
        <ele>2356.81</ele>
        <time>2018-04-21T07:46:35Z</time>
      </trkpt>
      <trkpt lat="45.03806" lon="6.48507">
        <ele>2358.73</ele>
        <time>2018-04-21T07:46:54Z</time>
      </trkpt>
      <trkpt lat="45.03814" lon="6.4851">
        <ele>2360.65</ele>
        <time>2018-04-21T07:47:13Z</time>
      </trkpt>
      <trkpt lat="45.03823" lon="6.48511">
        <ele>2362.58</ele>
        <time>2018-04-21T07:47:32Z</time>
      </trkpt>
      <trkpt lat="45.03831" lon="6.48512">
        <ele>2364.98</ele>
        <time>2018-04-21T07:47:53Z</time>
      </trkpt>
      <trkpt lat="45.03837" lon="6.48515">
        <ele>2366.9</ele>
        <time>2018-04-21T07:48:11Z</time>
      </trkpt>
      <trkpt lat="45.03844" lon="6.48516">
        <ele>2368.83</ele>
        <time>2018-04-21T07:48:29Z</time>
      </trkpt>
      <trkpt lat="45.03851" lon="6.48518">
        <ele>2370.27</ele>
        <time>2018-04-21T07:48:46Z</time>
      </trkpt>
      <trkpt lat="45.03859" lon="6.48518">
        <ele>2372.19</ele>
        <time>2018-04-21T07:49:06Z</time>
      </trkpt>
      <trkpt lat="45.03865" lon="6.48519">
        <ele>2374.59</ele>
        <time>2018-04-21T07:49:27Z</time>
      </trkpt>
      <trkpt lat="45.03871" lon="6.48522">
        <ele>2376.52</ele>
        <time>2018-04-21T07:49:46Z</time>
      </trkpt>
      <trkpt lat="45.03879" lon="6.48522">
        <ele>2378.92</ele>
        <time>2018-04-21T07:50:08Z</time>
      </trkpt>
      <trkpt lat="45.03884" lon="6.48524">
        <ele>2380.36</ele>
        <time>2018-04-21T07:50:29Z</time>
      </trkpt>
      <trkpt lat="45.0389" lon="6.48526">
        <ele>2383.25</ele>
        <time>2018-04-21T07:50:49Z</time>
      </trkpt>
      <trkpt lat="45.03896" lon="6.48527">
        <ele>2385.17</ele>
        <time>2018-04-21T07:51:09Z</time>
      </trkpt>
      <trkpt lat="45.03901" lon="6.48527">
        <ele>2387.09</ele>
        <time>2018-04-21T07:51:25Z</time>
      </trkpt>
      <trkpt lat="45.03904" lon="6.48526">
        <ele>2388.05</ele>
        <time>2018-04-21T07:51:44Z</time>
      </trkpt>
      <trkpt lat="45.03906" lon="6.48523">
        <ele>2389.01</ele>
        <time>2018-04-21T07:52:00Z</time>
      </trkpt>
      <trkpt lat="45.03904" lon="6.4853">
        <ele>2390.46</ele>
        <time>2018-04-21T07:52:15Z</time>
      </trkpt>
      <trkpt lat="45.039" lon="6.48537">
        <ele>2392.86</ele>
        <time>2018-04-21T07:52:33Z</time>
      </trkpt>
      <trkpt lat="45.03896" lon="6.48543">
        <ele>2394.78</ele>
        <time>2018-04-21T07:52:50Z</time>
      </trkpt>
      <trkpt lat="45.03892" lon="6.48549">
        <ele>2396.22</ele>
        <time>2018-04-21T07:53:05Z</time>
      </trkpt>
      <trkpt lat="45.0389" lon="6.48555">
        <ele>2398.63</ele>
        <time>2018-04-21T07:53:20Z</time>
      </trkpt>
      <trkpt lat="45.0389" lon="6.48562">
        <ele>2400.07</ele>
        <time>2018-04-21T07:53:34Z</time>
      </trkpt>
      <trkpt lat="45.03889" lon="6.48565">
        <ele>2400.07</ele>
        <time>2018-04-21T07:53:50Z</time>
      </trkpt>
      <trkpt lat="45.03893" lon="6.48566">
        <ele>2401.51</ele>
        <time>2018-04-21T07:54:05Z</time>
      </trkpt>
      <trkpt lat="45.03898" lon="6.48572">
        <ele>2402.95</ele>
        <time>2018-04-21T07:54:22Z</time>
      </trkpt>
      <trkpt lat="45.03907" lon="6.48578">
        <ele>2403.43</ele>
        <time>2018-04-21T07:54:39Z</time>
      </trkpt>
      <trkpt lat="45.03917" lon="6.48585">
        <ele>2404.39</ele>
        <time>2018-04-21T07:54:56Z</time>
      </trkpt>
      <trkpt lat="45.03927" lon="6.48593">
        <ele>2404.88</ele>
        <time>2018-04-21T07:55:13Z</time>
      </trkpt>
      <trkpt lat="45.03934" lon="6.486">
        <ele>2405.36</ele>
        <time>2018-04-21T07:55:28Z</time>
      </trkpt>
      <trkpt lat="45.03942" lon="6.48604">
        <ele>2406.8</ele>
        <time>2018-04-21T07:55:42Z</time>
      </trkpt>
      <trkpt lat="45.03952" lon="6.48612">
        <ele>2408.24</ele>
        <time>2018-04-21T07:56:00Z</time>
      </trkpt>
      <trkpt lat="45.0396" lon="6.48618">
        <ele>2409.2</ele>
        <time>2018-04-21T07:56:17Z</time>
      </trkpt>
      <trkpt lat="45.03971" lon="6.48625">
        <ele>2410.64</ele>
        <time>2018-04-21T07:56:36Z</time>
      </trkpt>
      <trkpt lat="45.0398" lon="6.48632">
        <ele>2411.6</ele>
        <time>2018-04-21T07:56:52Z</time>
      </trkpt>
      <trkpt lat="45.0399" lon="6.48638">
        <ele>2413.05</ele>
        <time>2018-04-21T07:57:09Z</time>
      </trkpt>
      <trkpt lat="45.04001" lon="6.48646">
        <ele>2414.49</ele>
        <time>2018-04-21T07:57:30Z</time>
      </trkpt>
      <trkpt lat="45.04008" lon="6.48651">
        <ele>2416.89</ele>
        <time>2018-04-21T07:57:50Z</time>
      </trkpt>
      <trkpt lat="45.04016" lon="6.48659">
        <ele>2418.81</ele>
        <time>2018-04-21T07:58:10Z</time>
      </trkpt>
      <trkpt lat="45.04026" lon="6.48664">
        <ele>2420.26</ele>
        <time>2018-04-21T07:58:33Z</time>
      </trkpt>
      <trkpt lat="45.04031" lon="6.48669">
        <ele>2421.7</ele>
        <time>2018-04-21T07:58:50Z</time>
      </trkpt>
      <trkpt lat="45.04036" lon="6.48673">
        <ele>2423.62</ele>
        <time>2018-04-21T07:59:04Z</time>
      </trkpt>
      <trkpt lat="45.04041" lon="6.4868">
        <ele>2424.58</ele>
        <time>2018-04-21T07:59:20Z</time>
      </trkpt>
      <trkpt lat="45.04046" lon="6.48686">
        <ele>2426.5</ele>
        <time>2018-04-21T07:59:37Z</time>
      </trkpt>
      <trkpt lat="45.04053" lon="6.48695">
        <ele>2427.47</ele>
        <time>2018-04-21T07:59:57Z</time>
      </trkpt>
      <trkpt lat="45.04057" lon="6.487">
        <ele>2428.43</ele>
        <time>2018-04-21T08:00:09Z</time>
      </trkpt>
      <trkpt lat="45.04061" lon="6.48705">
        <ele>2427.95</ele>
        <time>2018-04-21T08:00:25Z</time>
      </trkpt>
      <trkpt lat="45.04069" lon="6.48715">
        <ele>2428.43</ele>
        <time>2018-04-21T08:00:41Z</time>
      </trkpt>
      <trkpt lat="45.04074" lon="6.48723">
        <ele>2428.43</ele>
        <time>2018-04-21T08:00:57Z</time>
      </trkpt>
      <trkpt lat="45.04078" lon="6.4873">
        <ele>2428.91</ele>
        <time>2018-04-21T08:01:11Z</time>
      </trkpt>
      <trkpt lat="45.04083" lon="6.4874">
        <ele>2429.87</ele>
        <time>2018-04-21T08:01:26Z</time>
      </trkpt>
      <trkpt lat="45.0409" lon="6.48749">
        <ele>2431.31</ele>
        <time>2018-04-21T08:01:41Z</time>
      </trkpt>
      <trkpt lat="45.04094" lon="6.48757">
        <ele>2432.27</ele>
        <time>2018-04-21T08:01:54Z</time>
      </trkpt>
      <trkpt lat="45.04098" lon="6.48767">
        <ele>2433.23</ele>
        <time>2018-04-21T08:02:08Z</time>
      </trkpt>
      <trkpt lat="45.04104" lon="6.48775">
        <ele>2435.16</ele>
        <time>2018-04-21T08:02:24Z</time>
      </trkpt>
      <trkpt lat="45.04112" lon="6.48787">
        <ele>2436.6</ele>
        <time>2018-04-21T08:02:43Z</time>
      </trkpt>
      <trkpt lat="45.04116" lon="6.48796">
        <ele>2437.56</ele>
        <time>2018-04-21T08:03:02Z</time>
      </trkpt>
      <trkpt lat="45.04117" lon="6.48792">
        <ele>2437.08</ele>
        <time>2018-04-21T08:03:26Z</time>
      </trkpt>
      <trkpt lat="45.04114" lon="6.48798">
        <ele>2437.08</ele>
        <time>2018-04-21T08:03:55Z</time>
      </trkpt>
      <trkpt lat="45.04114" lon="6.48792">
        <ele>2438.04</ele>
        <time>2018-04-21T08:04:28Z</time>
      </trkpt>
      <trkpt lat="45.04117" lon="6.48795">
        <ele>2438.04</ele>
        <time>2018-04-21T08:04:44Z</time>
      </trkpt>
      <trkpt lat="45.04124" lon="6.48806">
        <ele>2439.96</ele>
        <time>2018-04-21T08:04:59Z</time>
      </trkpt>
      <trkpt lat="45.04131" lon="6.48815">
        <ele>2440.92</ele>
        <time>2018-04-21T08:05:16Z</time>
      </trkpt>
      <trkpt lat="45.04137" lon="6.48814">
        <ele>2441.89</ele>
        <time>2018-04-21T08:05:32Z</time>
      </trkpt>
      <trkpt lat="45.04136" lon="6.4881">
        <ele>2443.33</ele>
        <time>2018-04-21T08:05:45Z</time>
      </trkpt>
      <trkpt lat="45.04144" lon="6.4883">
        <ele>2445.25</ele>
        <time>2018-04-21T08:06:02Z</time>
      </trkpt>
      <trkpt lat="45.04152" lon="6.48842">
        <ele>2447.17</ele>
        <time>2018-04-21T08:06:23Z</time>
      </trkpt>
      <trkpt lat="45.04159" lon="6.48849">
        <ele>2448.62</ele>
        <time>2018-04-21T08:06:40Z</time>
      </trkpt>
      <trkpt lat="45.04164" lon="6.48858">
        <ele>2450.06</ele>
        <time>2018-04-21T08:06:54Z</time>
      </trkpt>
      <trkpt lat="45.04167" lon="6.48864">
        <ele>2451.02</ele>
        <time>2018-04-21T08:07:07Z</time>
      </trkpt>
      <trkpt lat="45.04172" lon="6.48867">
        <ele>2451.5</ele>
        <time>2018-04-21T08:07:26Z</time>
      </trkpt>
      <trkpt lat="45.04173" lon="6.48869">
        <ele>2452.94</ele>
        <time>2018-04-21T08:07:43Z</time>
      </trkpt>
      <trkpt lat="45.04176" lon="6.48873">
        <ele>2453.42</ele>
        <time>2018-04-21T08:07:59Z</time>
      </trkpt>
      <trkpt lat="45.0418" lon="6.48877">
        <ele>2453.9</ele>
        <time>2018-04-21T08:08:15Z</time>
      </trkpt>
      <trkpt lat="45.04183" lon="6.48877">
        <ele>2454.38</ele>
        <time>2018-04-21T08:08:30Z</time>
      </trkpt>
      <trkpt lat="45.04188" lon="6.48881">
        <ele>2454.86</ele>
        <time>2018-04-21T08:08:44Z</time>
      </trkpt>
      <trkpt lat="45.04192" lon="6.48881">
        <ele>2455.82</ele>
        <time>2018-04-21T08:09:00Z</time>
      </trkpt>
      <trkpt lat="45.04196" lon="6.48884">
        <ele>2457.27</ele>
        <time>2018-04-21T08:09:17Z</time>
      </trkpt>
      <trkpt lat="45.04204" lon="6.48888">
        <ele>2458.71</ele>
        <time>2018-04-21T08:09:32Z</time>
      </trkpt>
      <trkpt lat="45.04207" lon="6.48898">
        <ele>2460.15</ele>
        <time>2018-04-21T08:09:48Z</time>
      </trkpt>
      <trkpt lat="45.04214" lon="6.48907">
        <ele>2462.07</ele>
        <time>2018-04-21T08:10:06Z</time>
      </trkpt>
      <trkpt lat="45.0422" lon="6.48911">
        <ele>2463.04</ele>
        <time>2018-04-21T08:10:23Z</time>
      </trkpt>
      <trkpt lat="45.04227" lon="6.48913">
        <ele>2464</ele>
        <time>2018-04-21T08:10:40Z</time>
      </trkpt>
      <trkpt lat="45.04234" lon="6.48916">
        <ele>2464.96</ele>
        <time>2018-04-21T08:10:55Z</time>
      </trkpt>
      <trkpt lat="45.04241" lon="6.48919">
        <ele>2466.4</ele>
        <time>2018-04-21T08:11:11Z</time>
      </trkpt>
      <trkpt lat="45.04249" lon="6.48923">
        <ele>2467.84</ele>
        <time>2018-04-21T08:11:27Z</time>
      </trkpt>
      <trkpt lat="45.04252" lon="6.48928">
        <ele>2468.8</ele>
        <time>2018-04-21T08:11:45Z</time>
      </trkpt>
      <trkpt lat="45.04257" lon="6.4893">
        <ele>2469.76</ele>
        <time>2018-04-21T08:12:01Z</time>
      </trkpt>
      <trkpt lat="45.0426" lon="6.48932">
        <ele>2471.21</ele>
        <time>2018-04-21T08:12:15Z</time>
      </trkpt>
      <trkpt lat="45.04265" lon="6.48932">
        <ele>2472.17</ele>
        <time>2018-04-21T08:12:29Z</time>
      </trkpt>
      <trkpt lat="45.04268" lon="6.48934">
        <ele>2473.13</ele>
        <time>2018-04-21T08:12:43Z</time>
      </trkpt>
      <trkpt lat="45.04275" lon="6.48934">
        <ele>2474.57</ele>
        <time>2018-04-21T08:12:59Z</time>
      </trkpt>
      <trkpt lat="45.0428" lon="6.48937">
        <ele>2476.97</ele>
        <time>2018-04-21T08:13:15Z</time>
      </trkpt>
      <trkpt lat="45.04284" lon="6.48937">
        <ele>2476.97</ele>
        <time>2018-04-21T08:13:29Z</time>
      </trkpt>
      <trkpt lat="45.04293" lon="6.48938">
        <ele>2478.9</ele>
        <time>2018-04-21T08:13:46Z</time>
      </trkpt>
      <trkpt lat="45.04297" lon="6.48938">
        <ele>2479.86</ele>
        <time>2018-04-21T08:14:00Z</time>
      </trkpt>
      <trkpt lat="45.04302" lon="6.48939">
        <ele>2481.3</ele>
        <time>2018-04-21T08:14:15Z</time>
      </trkpt>
      <trkpt lat="45.04309" lon="6.48938">
        <ele>2482.26</ele>
        <time>2018-04-21T08:14:30Z</time>
      </trkpt>
      <trkpt lat="45.04315" lon="6.48937">
        <ele>2484.18</ele>
        <time>2018-04-21T08:14:47Z</time>
      </trkpt>
      <trkpt lat="45.04321" lon="6.48938">
        <ele>2485.15</ele>
        <time>2018-04-21T08:15:01Z</time>
      </trkpt>
      <trkpt lat="45.04327" lon="6.4894">
        <ele>2487.55</ele>
        <time>2018-04-21T08:15:19Z</time>
      </trkpt>
      <trkpt lat="45.04332" lon="6.48944">
        <ele>2488.51</ele>
        <time>2018-04-21T08:15:36Z</time>
      </trkpt>
      <trkpt lat="45.04339" lon="6.48942">
        <ele>2489.95</ele>
        <time>2018-04-21T08:15:53Z</time>
      </trkpt>
      <trkpt lat="45.04348" lon="6.48941">
        <ele>2490.91</ele>
        <time>2018-04-21T08:16:12Z</time>
      </trkpt>
      <trkpt lat="45.04357" lon="6.48943">
        <ele>2492.84</ele>
        <time>2018-04-21T08:16:29Z</time>
      </trkpt>
      <trkpt lat="45.04366" lon="6.48941">
        <ele>2493.8</ele>
        <time>2018-04-21T08:16:49Z</time>
      </trkpt>
      <trkpt lat="45.04377" lon="6.48945">
        <ele>2495.72</ele>
        <time>2018-04-21T08:17:10Z</time>
      </trkpt>
      <trkpt lat="45.04389" lon="6.48949">
        <ele>2496.2</ele>
        <time>2018-04-21T08:17:29Z</time>
      </trkpt>
      <trkpt lat="45.04397" lon="6.48953">
        <ele>2496.68</ele>
        <time>2018-04-21T08:17:44Z</time>
      </trkpt>
      <trkpt lat="45.04405" lon="6.4896">
        <ele>2498.12</ele>
        <time>2018-04-21T08:18:01Z</time>
      </trkpt>
      <trkpt lat="45.04415" lon="6.48963">
        <ele>2499.08</ele>
        <time>2018-04-21T08:18:19Z</time>
      </trkpt>
      <trkpt lat="45.04424" lon="6.48968">
        <ele>2500.05</ele>
        <time>2018-04-21T08:18:35Z</time>
      </trkpt>
      <trkpt lat="45.04433" lon="6.48973">
        <ele>2498.6</ele>
        <time>2018-04-21T08:18:52Z</time>
      </trkpt>
      <trkpt lat="45.04442" lon="6.48975">
        <ele>2499.57</ele>
        <time>2018-04-21T08:19:09Z</time>
      </trkpt>
      <trkpt lat="45.04451" lon="6.48975">
        <ele>2501.49</ele>
        <time>2018-04-21T08:19:30Z</time>
      </trkpt>
      <trkpt lat="45.04457" lon="6.48974">
        <ele>2501.01</ele>
        <time>2018-04-21T08:19:46Z</time>
      </trkpt>
      <trkpt lat="45.04462" lon="6.48975">
        <ele>2501.97</ele>
        <time>2018-04-21T08:20:03Z</time>
      </trkpt>
      <trkpt lat="45.04464" lon="6.48975">
        <ele>2501.01</ele>
        <time>2018-04-21T08:20:18Z</time>
      </trkpt>
      <trkpt lat="45.04467" lon="6.48974">
        <ele>2501.01</ele>
        <time>2018-04-21T08:20:33Z</time>
      </trkpt>
      <trkpt lat="45.04468" lon="6.48972">
        <ele>2501.01</ele>
        <time>2018-04-21T08:20:48Z</time>
      </trkpt>
      <trkpt lat="45.04469" lon="6.48978">
        <ele>2501.97</ele>
        <time>2018-04-21T08:21:08Z</time>
      </trkpt>
      <trkpt lat="45.04476" lon="6.48981">
        <ele>2502.45</ele>
        <time>2018-04-21T08:21:24Z</time>
      </trkpt>
      <trkpt lat="45.04485" lon="6.48986">
        <ele>2501.49</ele>
        <time>2018-04-21T08:21:42Z</time>
      </trkpt>
      <trkpt lat="45.04488" lon="6.48989">
        <ele>2502.45</ele>
        <time>2018-04-21T08:21:47Z</time>
      </trkpt>
      <trkpt lat="45.04497" lon="6.48997">
        <ele>2502.93</ele>
        <time>2018-04-21T08:22:03Z</time>
      </trkpt>
      <trkpt lat="45.04505" lon="6.49007">
        <ele>2501.97</ele>
        <time>2018-04-21T08:22:19Z</time>
      </trkpt>
      <trkpt lat="45.04516" lon="6.49012">
        <ele>2502.93</ele>
        <time>2018-04-21T08:22:37Z</time>
      </trkpt>
      <trkpt lat="45.04523" lon="6.49015">
        <ele>2504.85</ele>
        <time>2018-04-21T08:22:55Z</time>
      </trkpt>
      <trkpt lat="45.0453" lon="6.49022">
        <ele>2505.81</ele>
        <time>2018-04-21T08:23:09Z</time>
      </trkpt>
      <trkpt lat="45.04536" lon="6.49025">
        <ele>2507.26</ele>
        <time>2018-04-21T08:23:24Z</time>
      </trkpt>
      <trkpt lat="45.0454" lon="6.49028">
        <ele>2507.74</ele>
        <time>2018-04-21T08:23:36Z</time>
      </trkpt>
      <trkpt lat="45.04547" lon="6.49032">
        <ele>2508.7</ele>
        <time>2018-04-21T08:23:51Z</time>
      </trkpt>
      <trkpt lat="45.04554" lon="6.49039">
        <ele>2510.14</ele>
        <time>2018-04-21T08:24:11Z</time>
      </trkpt>
      <trkpt lat="45.04562" lon="6.49043">
        <ele>2511.58</ele>
        <time>2018-04-21T08:24:28Z</time>
      </trkpt>
      <trkpt lat="45.04569" lon="6.49048">
        <ele>2513.5</ele>
        <time>2018-04-21T08:24:45Z</time>
      </trkpt>
      <trkpt lat="45.04575" lon="6.4905">
        <ele>2514.95</ele>
        <time>2018-04-21T08:25:02Z</time>
      </trkpt>
      <trkpt lat="45.04582" lon="6.49057">
        <ele>2516.87</ele>
        <time>2018-04-21T08:25:24Z</time>
      </trkpt>
      <trkpt lat="45.04589" lon="6.49062">
        <ele>2518.31</ele>
        <time>2018-04-21T08:25:42Z</time>
      </trkpt>
      <trkpt lat="45.04598" lon="6.49069">
        <ele>2519.27</ele>
        <time>2018-04-21T08:26:01Z</time>
      </trkpt>
      <trkpt lat="45.04609" lon="6.49075">
        <ele>2520.23</ele>
        <time>2018-04-21T08:26:23Z</time>
      </trkpt>
      <trkpt lat="45.04619" lon="6.49083">
        <ele>2521.19</ele>
        <time>2018-04-21T08:26:41Z</time>
      </trkpt>
      <trkpt lat="45.04628" lon="6.4909">
        <ele>2522.16</ele>
        <time>2018-04-21T08:27:01Z</time>
      </trkpt>
      <trkpt lat="45.04636" lon="6.49097">
        <ele>2524.08</ele>
        <time>2018-04-21T08:27:21Z</time>
      </trkpt>
      <trkpt lat="45.04643" lon="6.491">
        <ele>2525.52</ele>
        <time>2018-04-21T08:27:40Z</time>
      </trkpt>
      <trkpt lat="45.04649" lon="6.49105">
        <ele>2526.96</ele>
        <time>2018-04-21T08:27:56Z</time>
      </trkpt>
      <trkpt lat="45.04654" lon="6.49107">
        <ele>2528.89</ele>
        <time>2018-04-21T08:28:11Z</time>
      </trkpt>
      <trkpt lat="45.04658" lon="6.49114">
        <ele>2530.33</ele>
        <time>2018-04-21T08:28:30Z</time>
      </trkpt>
      <trkpt lat="45.04662" lon="6.49118">
        <ele>2531.77</ele>
        <time>2018-04-21T08:28:44Z</time>
      </trkpt>
      <trkpt lat="45.04666" lon="6.49122">
        <ele>2533.69</ele>
        <time>2018-04-21T08:29:00Z</time>
      </trkpt>
      <trkpt lat="45.04672" lon="6.49126">
        <ele>2534.65</ele>
        <time>2018-04-21T08:29:17Z</time>
      </trkpt>
      <trkpt lat="45.04678" lon="6.4913">
        <ele>2536.58</ele>
        <time>2018-04-21T08:29:36Z</time>
      </trkpt>
      <trkpt lat="45.04683" lon="6.49135">
        <ele>2538.5</ele>
        <time>2018-04-21T08:29:54Z</time>
      </trkpt>
      <trkpt lat="45.04686" lon="6.4914">
        <ele>2540.42</ele>
        <time>2018-04-21T08:30:12Z</time>
      </trkpt>
      <trkpt lat="45.0469" lon="6.49148">
        <ele>2542.34</ele>
        <time>2018-04-21T08:30:34Z</time>
      </trkpt>
      <trkpt lat="45.04695" lon="6.49156">
        <ele>2543.79</ele>
        <time>2018-04-21T08:30:50Z</time>
      </trkpt>
      <trkpt lat="45.047" lon="6.49164">
        <ele>2545.23</ele>
        <time>2018-04-21T08:31:09Z</time>
      </trkpt>
      <trkpt lat="45.04706" lon="6.49174">
        <ele>2546.19</ele>
        <time>2018-04-21T08:31:28Z</time>
      </trkpt>
      <trkpt lat="45.0471" lon="6.49182">
        <ele>2547.15</ele>
        <time>2018-04-21T08:31:44Z</time>
      </trkpt>
      <trkpt lat="45.04714" lon="6.49189">
        <ele>2548.59</ele>
        <time>2018-04-21T08:31:59Z</time>
      </trkpt>
      <trkpt lat="45.04717" lon="6.49199">
        <ele>2550.03</ele>
        <time>2018-04-21T08:32:17Z</time>
      </trkpt>
      <trkpt lat="45.04722" lon="6.49206">
        <ele>2551.48</ele>
        <time>2018-04-21T08:32:34Z</time>
      </trkpt>
      <trkpt lat="45.04729" lon="6.49218">
        <ele>2552.92</ele>
        <time>2018-04-21T08:32:52Z</time>
      </trkpt>
      <trkpt lat="45.04734" lon="6.49228">
        <ele>2554.84</ele>
        <time>2018-04-21T08:33:13Z</time>
      </trkpt>
      <trkpt lat="45.04739" lon="6.49237">
        <ele>2556.28</ele>
        <time>2018-04-21T08:33:31Z</time>
      </trkpt>
      <trkpt lat="45.04741" lon="6.49242">
        <ele>2557.73</ele>
        <time>2018-04-21T08:33:49Z</time>
      </trkpt>
      <trkpt lat="45.04748" lon="6.49254">
        <ele>2559.17</ele>
        <time>2018-04-21T08:34:07Z</time>
      </trkpt>
      <trkpt lat="45.04751" lon="6.49262">
        <ele>2561.57</ele>
        <time>2018-04-21T08:34:25Z</time>
      </trkpt>
      <trkpt lat="45.04754" lon="6.4927">
        <ele>2563.49</ele>
        <time>2018-04-21T08:34:43Z</time>
      </trkpt>
      <trkpt lat="45.04757" lon="6.49276">
        <ele>2565.42</ele>
        <time>2018-04-21T08:35:03Z</time>
      </trkpt>
      <trkpt lat="45.04762" lon="6.49281">
        <ele>2567.34</ele>
        <time>2018-04-21T08:35:21Z</time>
      </trkpt>
      <trkpt lat="45.04765" lon="6.49284">
        <ele>2568.78</ele>
        <time>2018-04-21T08:35:36Z</time>
      </trkpt>
      <trkpt lat="45.04769" lon="6.4929">
        <ele>2570.7</ele>
        <time>2018-04-21T08:35:54Z</time>
      </trkpt>
      <trkpt lat="45.04776" lon="6.49293">
        <ele>2572.63</ele>
        <time>2018-04-21T08:36:12Z</time>
      </trkpt>
      <trkpt lat="45.0478" lon="6.49293">
        <ele>2574.55</ele>
        <time>2018-04-21T08:36:28Z</time>
      </trkpt>
      <trkpt lat="45.04784" lon="6.49293">
        <ele>2576.47</ele>
        <time>2018-04-21T08:36:45Z</time>
      </trkpt>
      <trkpt lat="45.04787" lon="6.49298">
        <ele>2577.91</ele>
        <time>2018-04-21T08:37:00Z</time>
      </trkpt>
      <trkpt lat="45.04792" lon="6.493">
        <ele>2579.84</ele>
        <time>2018-04-21T08:37:18Z</time>
      </trkpt>
      <trkpt lat="45.04797" lon="6.493">
        <ele>2581.28</ele>
        <time>2018-04-21T08:37:34Z</time>
      </trkpt>
      <trkpt lat="45.04802" lon="6.49301">
        <ele>2583.2</ele>
        <time>2018-04-21T08:37:49Z</time>
      </trkpt>
      <trkpt lat="45.04809" lon="6.49298">
        <ele>2584.64</ele>
        <time>2018-04-21T08:38:05Z</time>
      </trkpt>
      <trkpt lat="45.04815" lon="6.49299">
        <ele>2586.08</ele>
        <time>2018-04-21T08:38:22Z</time>
      </trkpt>
      <trkpt lat="45.04819" lon="6.493">
        <ele>2587.53</ele>
        <time>2018-04-21T08:38:39Z</time>
      </trkpt>
      <trkpt lat="45.04824" lon="6.49294">
        <ele>2589.45</ele>
        <time>2018-04-21T08:38:54Z</time>
      </trkpt>
      <trkpt lat="45.0483" lon="6.49292">
        <ele>2591.37</ele>
        <time>2018-04-21T08:39:08Z</time>
      </trkpt>
      <trkpt lat="45.04833" lon="6.49288">
        <ele>2593.29</ele>
        <time>2018-04-21T08:39:23Z</time>
      </trkpt>
      <trkpt lat="45.04837" lon="6.49284">
        <ele>2594.74</ele>
        <time>2018-04-21T08:39:36Z</time>
      </trkpt>
      <trkpt lat="45.04839" lon="6.49283">
        <ele>2595.22</ele>
        <time>2018-04-21T08:39:52Z</time>
      </trkpt>
      <trkpt lat="45.04843" lon="6.49277">
        <ele>2596.18</ele>
        <time>2018-04-21T08:40:05Z</time>
      </trkpt>
      <trkpt lat="45.04847" lon="6.49271">
        <ele>2597.62</ele>
        <time>2018-04-21T08:40:22Z</time>
      </trkpt>
      <trkpt lat="45.04854" lon="6.49262">
        <ele>2597.62</ele>
        <time>2018-04-21T08:40:41Z</time>
      </trkpt>
      <trkpt lat="45.04855" lon="6.4926">
        <ele>2596.18</ele>
        <time>2018-04-21T08:40:56Z</time>
      </trkpt>
      <trkpt lat="45.04855" lon="6.49259">
        <ele>2597.62</ele>
        <time>2018-04-21T08:41:25Z</time>
      </trkpt>
      <trkpt lat="45.04855" lon="6.49259">
        <ele>2598.1</ele>
        <time>2018-04-21T08:41:49Z</time>
      </trkpt>
      <trkpt lat="45.04854" lon="6.49258">
        <ele>2598.1</ele>
        <time>2018-04-21T08:42:17Z</time>
      </trkpt>
      <trkpt lat="45.04855" lon="6.4926">
        <ele>2598.1</ele>
        <time>2018-04-21T08:42:51Z</time>
      </trkpt>
      <trkpt lat="45.04856" lon="6.49261">
        <ele>2599.06</ele>
        <time>2018-04-21T08:43:15Z</time>
      </trkpt>
      <trkpt lat="45.04855" lon="6.49263">
        <ele>2598.58</ele>
        <time>2018-04-21T08:43:37Z</time>
      </trkpt>
      <trkpt lat="45.04854" lon="6.49259">
        <ele>2599.06</ele>
        <time>2018-04-21T08:43:49Z</time>
      </trkpt>
      <trkpt lat="45.04856" lon="6.4926">
        <ele>2598.58</ele>
        <time>2018-04-21T08:44:03Z</time>
      </trkpt>
      <trkpt lat="45.04855" lon="6.49259">
        <ele>2599.54</ele>
        <time>2018-04-21T08:44:19Z</time>
      </trkpt>
      <trkpt lat="45.04852" lon="6.49258">
        <ele>2600.5</ele>
        <time>2018-04-21T08:44:35Z</time>
      </trkpt>
      <trkpt lat="45.04852" lon="6.49257">
        <ele>2599.06</ele>
        <time>2018-04-21T08:44:37Z</time>
      </trkpt>
      <trkpt lat="45.04853" lon="6.49258">
        <ele>2599.06</ele>
        <time>2018-04-21T08:44:55Z</time>
      </trkpt>
      <trkpt lat="45.04859" lon="6.49259">
        <ele>2599.54</ele>
        <time>2018-04-21T08:45:08Z</time>
      </trkpt>
      <trkpt lat="45.0487" lon="6.49253">
        <ele>2597.62</ele>
        <time>2018-04-21T08:45:23Z</time>
      </trkpt>
      <trkpt lat="45.04874" lon="6.49247">
        <ele>2596.66</ele>
        <time>2018-04-21T08:45:29Z</time>
      </trkpt>
      <trkpt lat="45.04883" lon="6.49235">
        <ele>2596.66</ele>
        <time>2018-04-21T08:45:47Z</time>
      </trkpt>
      <trkpt lat="45.04893" lon="6.49223">
        <ele>2598.1</ele>
        <time>2018-04-21T08:46:04Z</time>
      </trkpt>
      <trkpt lat="45.04897" lon="6.49217">
        <ele>2599.06</ele>
        <time>2018-04-21T08:46:18Z</time>
      </trkpt>
      <trkpt lat="45.04905" lon="6.49213">
        <ele>2600.5</ele>
        <time>2018-04-21T08:46:38Z</time>
      </trkpt>
      <trkpt lat="45.04911" lon="6.49209">
        <ele>2601.95</ele>
        <time>2018-04-21T08:46:53Z</time>
      </trkpt>
      <trkpt lat="45.04914" lon="6.4921">
        <ele>2603.39</ele>
        <time>2018-04-21T08:47:11Z</time>
      </trkpt>
      <trkpt lat="45.04921" lon="6.49209">
        <ele>2604.83</ele>
        <time>2018-04-21T08:47:27Z</time>
      </trkpt>
      <trkpt lat="45.04929" lon="6.49209">
        <ele>2606.75</ele>
        <time>2018-04-21T08:47:46Z</time>
      </trkpt>
      <trkpt lat="45.04934" lon="6.49214">
        <ele>2608.19</ele>
        <time>2018-04-21T08:48:03Z</time>
      </trkpt>
      <trkpt lat="45.04938" lon="6.49215">
        <ele>2609.64</ele>
        <time>2018-04-21T08:48:19Z</time>
      </trkpt>
      <trkpt lat="45.04942" lon="6.49219">
        <ele>2611.56</ele>
        <time>2018-04-21T08:48:36Z</time>
      </trkpt>
      <trkpt lat="45.04947" lon="6.4922">
        <ele>2612.52</ele>
        <time>2018-04-21T08:48:52Z</time>
      </trkpt>
      <trkpt lat="45.04954" lon="6.4922">
        <ele>2613.96</ele>
        <time>2018-04-21T08:49:11Z</time>
      </trkpt>
      <trkpt lat="45.04959" lon="6.49221">
        <ele>2615.4</ele>
        <time>2018-04-21T08:49:29Z</time>
      </trkpt>
      <trkpt lat="45.04964" lon="6.49222">
        <ele>2617.33</ele>
        <time>2018-04-21T08:49:49Z</time>
      </trkpt>
      <trkpt lat="45.04967" lon="6.49227">
        <ele>2619.25</ele>
        <time>2018-04-21T08:50:06Z</time>
      </trkpt>
      <trkpt lat="45.04972" lon="6.49231">
        <ele>2620.21</ele>
        <time>2018-04-21T08:50:23Z</time>
      </trkpt>
      <trkpt lat="45.04976" lon="6.49234">
        <ele>2621.65</ele>
        <time>2018-04-21T08:50:38Z</time>
      </trkpt>
      <trkpt lat="45.0498" lon="6.49237">
        <ele>2623.09</ele>
        <time>2018-04-21T08:50:54Z</time>
      </trkpt>
      <trkpt lat="45.04983" lon="6.49236">
        <ele>2624.54</ele>
        <time>2018-04-21T08:51:09Z</time>
      </trkpt>
      <trkpt lat="45.04985" lon="6.49229">
        <ele>2625.5</ele>
        <time>2018-04-21T08:51:26Z</time>
      </trkpt>
      <trkpt lat="45.04986" lon="6.49224">
        <ele>2626.94</ele>
        <time>2018-04-21T08:51:40Z</time>
      </trkpt>
      <trkpt lat="45.04986" lon="6.49217">
        <ele>2628.38</ele>
        <time>2018-04-21T08:51:57Z</time>
      </trkpt>
      <trkpt lat="45.04988" lon="6.49214">
        <ele>2629.34</ele>
        <time>2018-04-21T08:52:12Z</time>
      </trkpt>
      <trkpt lat="45.04988" lon="6.49218">
        <ele>2630.79</ele>
        <time>2018-04-21T08:52:25Z</time>
      </trkpt>
      <trkpt lat="45.04991" lon="6.49222">
        <ele>2631.75</ele>
        <time>2018-04-21T08:52:40Z</time>
      </trkpt>
      <trkpt lat="45.04995" lon="6.49224">
        <ele>2633.19</ele>
        <time>2018-04-21T08:52:55Z</time>
      </trkpt>
      <trkpt lat="45.04998" lon="6.49228">
        <ele>2634.63</ele>
        <time>2018-04-21T08:53:11Z</time>
      </trkpt>
      <trkpt lat="45.05003" lon="6.49224">
        <ele>2636.07</ele>
        <time>2018-04-21T08:53:25Z</time>
      </trkpt>
      <trkpt lat="45.05006" lon="6.49217">
        <ele>2637.51</ele>
        <time>2018-04-21T08:53:41Z</time>
      </trkpt>
      <trkpt lat="45.05007" lon="6.49211">
        <ele>2638.48</ele>
        <time>2018-04-21T08:53:55Z</time>
      </trkpt>
      <trkpt lat="45.05008" lon="6.49207">
        <ele>2640.4</ele>
        <time>2018-04-21T08:54:12Z</time>
      </trkpt>
      <trkpt lat="45.05008" lon="6.49208">
        <ele>2641.36</ele>
        <time>2018-04-21T08:54:27Z</time>
      </trkpt>
      <trkpt lat="45.05012" lon="6.49212">
        <ele>2642.8</ele>
        <time>2018-04-21T08:54:41Z</time>
      </trkpt>
      <trkpt lat="45.05015" lon="6.49218">
        <ele>2644.24</ele>
        <time>2018-04-21T08:54:57Z</time>
      </trkpt>
      <trkpt lat="45.05019" lon="6.49222">
        <ele>2645.69</ele>
        <time>2018-04-21T08:55:14Z</time>
      </trkpt>
      <trkpt lat="45.05023" lon="6.49215">
        <ele>2646.65</ele>
        <time>2018-04-21T08:55:32Z</time>
      </trkpt>
      <trkpt lat="45.05027" lon="6.4921">
        <ele>2648.09</ele>
        <time>2018-04-21T08:55:51Z</time>
      </trkpt>
      <trkpt lat="45.05028" lon="6.49206">
        <ele>2650.01</ele>
        <time>2018-04-21T08:56:06Z</time>
      </trkpt>
      <trkpt lat="45.05031" lon="6.49203">
        <ele>2651.45</ele>
        <time>2018-04-21T08:56:23Z</time>
      </trkpt>
      <trkpt lat="45.05035" lon="6.492">
        <ele>2652.9</ele>
        <time>2018-04-21T08:56:42Z</time>
      </trkpt>
      <trkpt lat="45.05039" lon="6.49196">
        <ele>2654.82</ele>
        <time>2018-04-21T08:57:00Z</time>
      </trkpt>
      <trkpt lat="45.05044" lon="6.49194">
        <ele>2655.78</ele>
        <time>2018-04-21T08:57:15Z</time>
      </trkpt>
      <trkpt lat="45.05049" lon="6.4919">
        <ele>2657.7</ele>
        <time>2018-04-21T08:57:34Z</time>
      </trkpt>
      <trkpt lat="45.05053" lon="6.49186">
        <ele>2659.14</ele>
        <time>2018-04-21T08:57:50Z</time>
      </trkpt>
      <trkpt lat="45.05057" lon="6.49182">
        <ele>2660.59</ele>
        <time>2018-04-21T08:58:07Z</time>
      </trkpt>
      <trkpt lat="45.0506" lon="6.49175">
        <ele>2662.03</ele>
        <time>2018-04-21T08:58:23Z</time>
      </trkpt>
      <trkpt lat="45.05062" lon="6.49174">
        <ele>2663.95</ele>
        <time>2018-04-21T08:58:40Z</time>
      </trkpt>
      <trkpt lat="45.05067" lon="6.49178">
        <ele>2665.39</ele>
        <time>2018-04-21T08:58:57Z</time>
      </trkpt>
      <trkpt lat="45.05072" lon="6.4918">
        <ele>2667.31</ele>
        <time>2018-04-21T08:59:14Z</time>
      </trkpt>
      <trkpt lat="45.05075" lon="6.49185">
        <ele>2668.76</ele>
        <time>2018-04-21T08:59:30Z</time>
      </trkpt>
      <trkpt lat="45.05078" lon="6.49188">
        <ele>2669.72</ele>
        <time>2018-04-21T08:59:46Z</time>
      </trkpt>
      <trkpt lat="45.0508" lon="6.49194">
        <ele>2671.16</ele>
        <time>2018-04-21T09:00:01Z</time>
      </trkpt>
      <trkpt lat="45.0508" lon="6.49201">
        <ele>2672.12</ele>
        <time>2018-04-21T09:00:15Z</time>
      </trkpt>
      <trkpt lat="45.05085" lon="6.49201">
        <ele>2673.56</ele>
        <time>2018-04-21T09:00:30Z</time>
      </trkpt>
      <trkpt lat="45.05089" lon="6.49198">
        <ele>2675.49</ele>
        <time>2018-04-21T09:00:49Z</time>
      </trkpt>
      <trkpt lat="45.05094" lon="6.49198">
        <ele>2676.45</ele>
        <time>2018-04-21T09:01:06Z</time>
      </trkpt>
      <trkpt lat="45.05098" lon="6.49196">
        <ele>2678.37</ele>
        <time>2018-04-21T09:01:23Z</time>
      </trkpt>
      <trkpt lat="45.051" lon="6.49195">
        <ele>2679.81</ele>
        <time>2018-04-21T09:01:37Z</time>
      </trkpt>
      <trkpt lat="45.051" lon="6.49198">
        <ele>2681.73</ele>
        <time>2018-04-21T09:01:53Z</time>
      </trkpt>
      <trkpt lat="45.05101" lon="6.49203">
        <ele>2682.7</ele>
        <time>2018-04-21T09:02:08Z</time>
      </trkpt>
      <trkpt lat="45.05101" lon="6.49209">
        <ele>2684.14</ele>
        <time>2018-04-21T09:02:23Z</time>
      </trkpt>
      <trkpt lat="45.05101" lon="6.49215">
        <ele>2686.06</ele>
        <time>2018-04-21T09:02:37Z</time>
      </trkpt>
      <trkpt lat="45.05102" lon="6.49222">
        <ele>2686.54</ele>
        <time>2018-04-21T09:02:52Z</time>
      </trkpt>
      <trkpt lat="45.05101" lon="6.49229">
        <ele>2687.98</ele>
        <time>2018-04-21T09:03:09Z</time>
      </trkpt>
      <trkpt lat="45.05101" lon="6.49236">
        <ele>2689.91</ele>
        <time>2018-04-21T09:03:25Z</time>
      </trkpt>
      <trkpt lat="45.05103" lon="6.49243">
        <ele>2691.35</ele>
        <time>2018-04-21T09:03:41Z</time>
      </trkpt>
      <trkpt lat="45.05105" lon="6.4925">
        <ele>2692.79</ele>
        <time>2018-04-21T09:03:57Z</time>
      </trkpt>
      <trkpt lat="45.05109" lon="6.49257">
        <ele>2694.23</ele>
        <time>2018-04-21T09:04:14Z</time>
      </trkpt>
      <trkpt lat="45.05112" lon="6.49265">
        <ele>2695.67</ele>
        <time>2018-04-21T09:04:30Z</time>
      </trkpt>
      <trkpt lat="45.05114" lon="6.49271">
        <ele>2696.64</ele>
        <time>2018-04-21T09:04:46Z</time>
      </trkpt>
      <trkpt lat="45.05119" lon="6.4928">
        <ele>2698.08</ele>
        <time>2018-04-21T09:05:04Z</time>
      </trkpt>
      <trkpt lat="45.05123" lon="6.49286">
        <ele>2699.52</ele>
        <time>2018-04-21T09:05:18Z</time>
      </trkpt>
      <trkpt lat="45.05127" lon="6.49296">
        <ele>2700.48</ele>
        <time>2018-04-21T09:05:35Z</time>
      </trkpt>
      <trkpt lat="45.05132" lon="6.49306">
        <ele>2700.96</ele>
        <time>2018-04-21T09:05:53Z</time>
      </trkpt>
      <trkpt lat="45.05135" lon="6.49315">
        <ele>2702.4</ele>
        <time>2018-04-21T09:06:09Z</time>
      </trkpt>
      <trkpt lat="45.05139" lon="6.49323">
        <ele>2704.81</ele>
        <time>2018-04-21T09:06:29Z</time>
      </trkpt>
      <trkpt lat="45.05138" lon="6.49331">
        <ele>2706.25</ele>
        <time>2018-04-21T09:06:45Z</time>
      </trkpt>
      <trkpt lat="45.05136" lon="6.49338">
        <ele>2707.69</ele>
        <time>2018-04-21T09:07:01Z</time>
      </trkpt>
      <trkpt lat="45.05135" lon="6.49347">
        <ele>2708.65</ele>
        <time>2018-04-21T09:07:17Z</time>
      </trkpt>
      <trkpt lat="45.05131" lon="6.49356">
        <ele>2709.61</ele>
        <time>2018-04-21T09:07:35Z</time>
      </trkpt>
      <trkpt lat="45.05128" lon="6.49363">
        <ele>2709.61</ele>
        <time>2018-04-21T09:07:50Z</time>
      </trkpt>
      <trkpt lat="45.05125" lon="6.49374">
        <ele>2710.09</ele>
        <time>2018-04-21T09:08:04Z</time>
      </trkpt>
      <trkpt lat="45.05128" lon="6.49386">
        <ele>2711.06</ele>
        <time>2018-04-21T09:08:19Z</time>
      </trkpt>
      <trkpt lat="45.0513" lon="6.49394">
        <ele>2712.02</ele>
        <time>2018-04-21T09:08:32Z</time>
      </trkpt>
      <trkpt lat="45.0513" lon="6.49403">
        <ele>2713.46</ele>
        <time>2018-04-21T09:08:49Z</time>
      </trkpt>
      <trkpt lat="45.05133" lon="6.49415">
        <ele>2714.9</ele>
        <time>2018-04-21T09:09:08Z</time>
      </trkpt>
      <trkpt lat="45.05136" lon="6.49423">
        <ele>2716.34</ele>
        <time>2018-04-21T09:09:25Z</time>
      </trkpt>
      <trkpt lat="45.05138" lon="6.49429">
        <ele>2717.78</ele>
        <time>2018-04-21T09:09:41Z</time>
      </trkpt>
      <trkpt lat="45.0514" lon="6.49433">
        <ele>2719.71</ele>
        <time>2018-04-21T09:09:59Z</time>
      </trkpt>
      <trkpt lat="45.05143" lon="6.49436">
        <ele>2721.63</ele>
        <time>2018-04-21T09:10:17Z</time>
      </trkpt>
      <trkpt lat="45.05146" lon="6.49441">
        <ele>2723.07</ele>
        <time>2018-04-21T09:10:31Z</time>
      </trkpt>
      <trkpt lat="45.05148" lon="6.49446">
        <ele>2724.51</ele>
        <time>2018-04-21T09:10:48Z</time>
      </trkpt>
      <trkpt lat="45.05152" lon="6.49452">
        <ele>2726.44</ele>
        <time>2018-04-21T09:11:03Z</time>
      </trkpt>
      <trkpt lat="45.05155" lon="6.49459">
        <ele>2727.88</ele>
        <time>2018-04-21T09:11:20Z</time>
      </trkpt>
      <trkpt lat="45.05158" lon="6.49463">
        <ele>2729.8</ele>
        <time>2018-04-21T09:11:38Z</time>
      </trkpt>
      <trkpt lat="45.05162" lon="6.49467">
        <ele>2730.76</ele>
        <time>2018-04-21T09:11:55Z</time>
      </trkpt>
      <trkpt lat="45.05166" lon="6.49471">
        <ele>2732.2</ele>
        <time>2018-04-21T09:12:13Z</time>
      </trkpt>
      <trkpt lat="45.0517" lon="6.49475">
        <ele>2733.65</ele>
        <time>2018-04-21T09:12:32Z</time>
      </trkpt>
      <trkpt lat="45.05173" lon="6.49479">
        <ele>2735.57</ele>
        <time>2018-04-21T09:12:47Z</time>
      </trkpt>
      <trkpt lat="45.05177" lon="6.49481">
        <ele>2737.01</ele>
        <time>2018-04-21T09:13:03Z</time>
      </trkpt>
      <trkpt lat="45.05179" lon="6.49485">
        <ele>2738.45</ele>
        <time>2018-04-21T09:13:18Z</time>
      </trkpt>
      <trkpt lat="45.05181" lon="6.49489">
        <ele>2739.41</ele>
        <time>2018-04-21T09:13:34Z</time>
      </trkpt>
      <trkpt lat="45.05183" lon="6.49491">
        <ele>2739.89</ele>
        <time>2018-04-21T09:13:57Z</time>
      </trkpt>
      <trkpt lat="45.05186" lon="6.49496">
        <ele>2741.34</ele>
        <time>2018-04-21T09:14:13Z</time>
      </trkpt>
      <trkpt lat="45.05187" lon="6.495">
        <ele>2742.78</ele>
        <time>2018-04-21T09:14:29Z</time>
      </trkpt>
      <trkpt lat="45.05189" lon="6.49506">
        <ele>2744.7</ele>
        <time>2018-04-21T09:14:46Z</time>
      </trkpt>
      <trkpt lat="45.05188" lon="6.4951">
        <ele>2745.66</ele>
        <time>2018-04-21T09:15:06Z</time>
      </trkpt>
      <trkpt lat="45.05191" lon="6.49513">
        <ele>2747.1</ele>
        <time>2018-04-21T09:15:26Z</time>
      </trkpt>
      <trkpt lat="45.05194" lon="6.49517">
        <ele>2748.55</ele>
        <time>2018-04-21T09:15:42Z</time>
      </trkpt>
      <trkpt lat="45.05196" lon="6.49522">
        <ele>2749.99</ele>
        <time>2018-04-21T09:16:00Z</time>
      </trkpt>
      <trkpt lat="45.05198" lon="6.49527">
        <ele>2751.91</ele>
        <time>2018-04-21T09:16:19Z</time>
      </trkpt>
      <trkpt lat="45.05202" lon="6.4953">
        <ele>2753.35</ele>
        <time>2018-04-21T09:16:35Z</time>
      </trkpt>
      <trkpt lat="45.05205" lon="6.49534">
        <ele>2755.28</ele>
        <time>2018-04-21T09:16:54Z</time>
      </trkpt>
      <trkpt lat="45.05206" lon="6.4954">
        <ele>2757.2</ele>
        <time>2018-04-21T09:17:12Z</time>
      </trkpt>
      <trkpt lat="45.05205" lon="6.49539">
        <ele>2757.68</ele>
        <time>2018-04-21T09:17:26Z</time>
      </trkpt>
      <trkpt lat="45.05203" lon="6.49542">
        <ele>2758.16</ele>
        <time>2018-04-21T09:17:45Z</time>
      </trkpt>
      <trkpt lat="45.05199" lon="6.49545">
        <ele>2759.6</ele>
        <time>2018-04-21T09:17:59Z</time>
      </trkpt>
      <trkpt lat="45.05195" lon="6.49547">
        <ele>2761.04</ele>
        <time>2018-04-21T09:18:14Z</time>
      </trkpt>
      <trkpt lat="45.05193" lon="6.49549">
        <ele>2762</ele>
        <time>2018-04-21T09:18:27Z</time>
      </trkpt>
      <trkpt lat="45.0519" lon="6.49552">
        <ele>2763.45</ele>
        <time>2018-04-21T09:18:41Z</time>
      </trkpt>
      <trkpt lat="45.05188" lon="6.49553">
        <ele>2764.89</ele>
        <time>2018-04-21T09:18:54Z</time>
      </trkpt>
      <trkpt lat="45.05185" lon="6.49556">
        <ele>2766.33</ele>
        <time>2018-04-21T09:19:08Z</time>
      </trkpt>
      <trkpt lat="45.05183" lon="6.49557">
        <ele>2766.81</ele>
        <time>2018-04-21T09:19:23Z</time>
      </trkpt>
      <trkpt lat="45.05181" lon="6.49559">
        <ele>2766.81</ele>
        <time>2018-04-21T09:19:38Z</time>
      </trkpt>
      <trkpt lat="45.05181" lon="6.49563">
        <ele>2768.25</ele>
        <time>2018-04-21T09:19:54Z</time>
      </trkpt>
      <trkpt lat="45.0518" lon="6.49566">
        <ele>2769.21</ele>
        <time>2018-04-21T09:20:10Z</time>
      </trkpt>
      <trkpt lat="45.05181" lon="6.4957">
        <ele>2770.18</ele>
        <time>2018-04-21T09:20:27Z</time>
      </trkpt>
      <trkpt lat="45.05183" lon="6.49575">
        <ele>2771.62</ele>
        <time>2018-04-21T09:20:40Z</time>
      </trkpt>
      <trkpt lat="45.05183" lon="6.4958">
        <ele>2772.58</ele>
        <time>2018-04-21T09:20:55Z</time>
      </trkpt>
      <trkpt lat="45.05185" lon="6.49584">
        <ele>2774.02</ele>
        <time>2018-04-21T09:21:10Z</time>
      </trkpt>
      <trkpt lat="45.05186" lon="6.49587">
        <ele>2775.46</ele>
        <time>2018-04-21T09:21:22Z</time>
      </trkpt>
      <trkpt lat="45.05188" lon="6.49592">
        <ele>2776.91</ele>
        <time>2018-04-21T09:21:38Z</time>
      </trkpt>
      <trkpt lat="45.05187" lon="6.49596">
        <ele>2778.35</ele>
        <time>2018-04-21T09:21:55Z</time>
      </trkpt>
      <trkpt lat="45.05187" lon="6.496">
        <ele>2779.79</ele>
        <time>2018-04-21T09:22:10Z</time>
      </trkpt>
      <trkpt lat="45.05186" lon="6.49604">
        <ele>2781.23</ele>
        <time>2018-04-21T09:22:27Z</time>
      </trkpt>
      <trkpt lat="45.05188" lon="6.49609">
        <ele>2782.19</ele>
        <time>2018-04-21T09:22:41Z</time>
      </trkpt>
      <trkpt lat="45.05188" lon="6.49612">
        <ele>2783.15</ele>
        <time>2018-04-21T09:22:56Z</time>
      </trkpt>
      <trkpt lat="45.05189" lon="6.49614">
        <ele>2784.12</ele>
        <time>2018-04-21T09:23:12Z</time>
      </trkpt>
      <trkpt lat="45.05187" lon="6.49615">
        <ele>2784.6</ele>
        <time>2018-04-21T09:23:30Z</time>
      </trkpt>
      <trkpt lat="45.0519" lon="6.49619">
        <ele>2786.04</ele>
        <time>2018-04-21T09:23:43Z</time>
      </trkpt>
      <trkpt lat="45.0519" lon="6.49621">
        <ele>2786.52</ele>
        <time>2018-04-21T09:24:04Z</time>
      </trkpt>
      <trkpt lat="45.05191" lon="6.49625">
        <ele>2787.96</ele>
        <time>2018-04-21T09:24:21Z</time>
      </trkpt>
      <trkpt lat="45.05194" lon="6.49628">
        <ele>2789.4</ele>
        <time>2018-04-21T09:24:38Z</time>
      </trkpt>
      <trkpt lat="45.05194" lon="6.4963">
        <ele>2790.36</ele>
        <time>2018-04-21T09:24:58Z</time>
      </trkpt>
      <trkpt lat="45.05205" lon="6.4963">
        <ele>2791.81</ele>
        <time>2018-04-21T09:25:13Z</time>
      </trkpt>
      <trkpt lat="45.05208" lon="6.49631">
        <ele>2793.73</ele>
        <time>2018-04-21T09:25:28Z</time>
      </trkpt>
      <trkpt lat="45.05212" lon="6.4963">
        <ele>2795.17</ele>
        <time>2018-04-21T09:25:44Z</time>
      </trkpt>
      <trkpt lat="45.05214" lon="6.4963">
        <ele>2796.13</ele>
        <time>2018-04-21T09:26:02Z</time>
      </trkpt>
      <trkpt lat="45.05215" lon="6.49629">
        <ele>2796.61</ele>
        <time>2018-04-21T09:26:26Z</time>
      </trkpt>
      <trkpt lat="45.0521" lon="6.49627">
        <ele>2797.09</ele>
        <time>2018-04-21T09:26:41Z</time>
      </trkpt>
      <trkpt lat="45.05208" lon="6.49634">
        <ele>2799.02</ele>
        <time>2018-04-21T09:26:56Z</time>
      </trkpt>
      <trkpt lat="45.05206" lon="6.49639">
        <ele>2800.94</ele>
        <time>2018-04-21T09:27:11Z</time>
      </trkpt>
      <trkpt lat="45.05205" lon="6.49642">
        <ele>2802.38</ele>
        <time>2018-04-21T09:27:25Z</time>
      </trkpt>
      <trkpt lat="45.05209" lon="6.49648">
        <ele>2802.38</ele>
        <time>2018-04-21T09:27:46Z</time>
      </trkpt>
      <trkpt lat="45.05214" lon="6.49646">
        <ele>2802.86</ele>
        <time>2018-04-21T09:28:05Z</time>
      </trkpt>
      <trkpt lat="45.0522" lon="6.49646">
        <ele>2805.26</ele>
        <time>2018-04-21T09:28:20Z</time>
      </trkpt>
      <trkpt lat="45.05223" lon="6.49645">
        <ele>2806.71</ele>
        <time>2018-04-21T09:28:34Z</time>
      </trkpt>
      <trkpt lat="45.05227" lon="6.49643">
        <ele>2808.15</ele>
        <time>2018-04-21T09:28:51Z</time>
      </trkpt>
      <trkpt lat="45.05229" lon="6.49642">
        <ele>2808.63</ele>
        <time>2018-04-21T09:29:07Z</time>
      </trkpt>
      <trkpt lat="45.05227" lon="6.49641">
        <ele>2808.63</ele>
        <time>2018-04-21T09:29:25Z</time>
      </trkpt>
      <trkpt lat="45.0523" lon="6.49643">
        <ele>2808.63</ele>
        <time>2018-04-21T09:29:43Z</time>
      </trkpt>
      <trkpt lat="45.05228" lon="6.49642">
        <ele>2808.63</ele>
        <time>2018-04-21T09:29:58Z</time>
      </trkpt>
      <trkpt lat="45.05225" lon="6.49641">
        <ele>2807.67</ele>
        <time>2018-04-21T09:30:20Z</time>
      </trkpt>
      <trkpt lat="45.05222" lon="6.4964">
        <ele>2808.15</ele>
        <time>2018-04-21T09:30:58Z</time>
      </trkpt>
      <trkpt lat="45.05221" lon="6.49639">
        <ele>2808.63</ele>
        <time>2018-04-21T09:31:40Z</time>
      </trkpt>
      <trkpt lat="45.05221" lon="6.49639">
        <ele>2808.63</ele>
        <time>2018-04-21T09:32:23Z</time>
      </trkpt>
      <trkpt lat="45.0522" lon="6.49638">
        <ele>2808.63</ele>
        <time>2018-04-21T09:32:56Z</time>
      </trkpt>
      <trkpt lat="45.05223" lon="6.49641">
        <ele>2809.11</ele>
        <time>2018-04-21T09:33:28Z</time>
      </trkpt>
      <trkpt lat="45.05225" lon="6.49639">
        <ele>2810.07</ele>
        <time>2018-04-21T09:33:44Z</time>
      </trkpt>
      <trkpt lat="45.05227" lon="6.4964">
        <ele>2809.59</ele>
        <time>2018-04-21T09:33:57Z</time>
      </trkpt>
      <trkpt lat="45.05227" lon="6.49641">
        <ele>2810.55</ele>
        <time>2018-04-21T09:34:11Z</time>
      </trkpt>
      <trkpt lat="45.05226" lon="6.49639">
        <ele>2809.59</ele>
        <time>2018-04-21T09:34:24Z</time>
      </trkpt>
      <trkpt lat="45.05227" lon="6.49637">
        <ele>2809.59</ele>
        <time>2018-04-21T09:34:41Z</time>
      </trkpt>
      <trkpt lat="45.05226" lon="6.49638">
        <ele>2809.11</ele>
        <time>2018-04-21T09:34:59Z</time>
      </trkpt>
      <trkpt lat="45.05226" lon="6.49637">
        <ele>2809.11</ele>
        <time>2018-04-21T09:35:13Z</time>
      </trkpt>
      <trkpt lat="45.05226" lon="6.49638">
        <ele>2809.59</ele>
        <time>2018-04-21T09:35:30Z</time>
      </trkpt>
      <trkpt lat="45.05227" lon="6.49638">
        <ele>2809.59</ele>
        <time>2018-04-21T09:35:45Z</time>
      </trkpt>
      <trkpt lat="45.05227" lon="6.49639">
        <ele>2809.59</ele>
        <time>2018-04-21T09:36:05Z</time>
      </trkpt>
      <trkpt lat="45.05226" lon="6.49638">
        <ele>2809.59</ele>
        <time>2018-04-21T09:36:21Z</time>
      </trkpt>
      <trkpt lat="45.05225" lon="6.49637">
        <ele>2809.59</ele>
        <time>2018-04-21T09:36:32Z</time>
      </trkpt>
      <trkpt lat="45.05227" lon="6.4964">
        <ele>2809.59</ele>
        <time>2018-04-21T09:36:57Z</time>
      </trkpt>
      <trkpt lat="45.05225" lon="6.49639">
        <ele>2810.07</ele>
        <time>2018-04-21T09:37:20Z</time>
      </trkpt>
      <trkpt lat="45.05225" lon="6.49639">
        <ele>2810.07</ele>
        <time>2018-04-21T09:37:40Z</time>
      </trkpt>
      <trkpt lat="45.05225" lon="6.49639">
        <ele>2810.07</ele>
        <time>2018-04-21T09:37:54Z</time>
      </trkpt>
      <trkpt lat="45.05224" lon="6.49638">
        <ele>2810.07</ele>
        <time>2018-04-21T09:38:13Z</time>
      </trkpt>
      <trkpt lat="45.05228" lon="6.49636">
        <ele>2810.55</ele>
        <time>2018-04-21T09:38:25Z</time>
      </trkpt>
      <trkpt lat="45.05232" lon="6.49632">
        <ele>2811.51</ele>
        <time>2018-04-21T09:38:38Z</time>
      </trkpt>
      <trkpt lat="45.05236" lon="6.4963">
        <ele>2811.99</ele>
        <time>2018-04-21T09:38:50Z</time>
      </trkpt>
      <trkpt lat="45.05238" lon="6.49631">
        <ele>2812.47</ele>
        <time>2018-04-21T09:39:08Z</time>
      </trkpt>
      <trkpt lat="45.05241" lon="6.49631">
        <ele>2813.92</ele>
        <time>2018-04-21T09:39:23Z</time>
      </trkpt>
      <trkpt lat="45.05242" lon="6.49634">
        <ele>2815.84</ele>
        <time>2018-04-21T09:39:43Z</time>
      </trkpt>
      <trkpt lat="45.05242" lon="6.49634">
        <ele>2817.28</ele>
        <time>2018-04-21T09:40:03Z</time>
      </trkpt>
      <trkpt lat="45.05243" lon="6.49639">
        <ele>2817.76</ele>
        <time>2018-04-21T09:40:22Z</time>
      </trkpt>
      <trkpt lat="45.05243" lon="6.49635">
        <ele>2819.2</ele>
        <time>2018-04-21T09:40:41Z</time>
      </trkpt>
      <trkpt lat="45.05245" lon="6.49636">
        <ele>2820.65</ele>
        <time>2018-04-21T09:40:56Z</time>
      </trkpt>
      <trkpt lat="45.05247" lon="6.49642">
        <ele>2822.57</ele>
        <time>2018-04-21T09:41:13Z</time>
      </trkpt>
      <trkpt lat="45.05249" lon="6.49645">
        <ele>2823.53</ele>
        <time>2018-04-21T09:41:30Z</time>
      </trkpt>
      <trkpt lat="45.05248" lon="6.49648">
        <ele>2824.49</ele>
        <time>2018-04-21T09:41:47Z</time>
      </trkpt>
      <trkpt lat="45.05247" lon="6.49647">
        <ele>2825.45</ele>
        <time>2018-04-21T09:42:07Z</time>
      </trkpt>
      <trkpt lat="45.05246" lon="6.49649">
        <ele>2827.37</ele>
        <time>2018-04-21T09:42:22Z</time>
      </trkpt>
      <trkpt lat="45.05247" lon="6.49647">
        <ele>2828.34</ele>
        <time>2018-04-21T09:42:38Z</time>
      </trkpt>
      <trkpt lat="45.05247" lon="6.49645">
        <ele>2828.82</ele>
        <time>2018-04-21T09:42:55Z</time>
      </trkpt>
      <trkpt lat="45.05248" lon="6.49646">
        <ele>2829.3</ele>
        <time>2018-04-21T09:43:14Z</time>
      </trkpt>
      <trkpt lat="45.05251" lon="6.49646">
        <ele>2830.74</ele>
        <time>2018-04-21T09:43:29Z</time>
      </trkpt>
      <trkpt lat="45.05252" lon="6.49649">
        <ele>2832.66</ele>
        <time>2018-04-21T09:43:43Z</time>
      </trkpt>
      <trkpt lat="45.05253" lon="6.49652">
        <ele>2834.1</ele>
        <time>2018-04-21T09:43:58Z</time>
      </trkpt>
      <trkpt lat="45.05252" lon="6.49653">
        <ele>2834.58</ele>
        <time>2018-04-21T09:44:21Z</time>
      </trkpt>
      <trkpt lat="45.05253" lon="6.49658">
        <ele>2836.03</ele>
        <time>2018-04-21T09:44:39Z</time>
      </trkpt>
      <trkpt lat="45.05253" lon="6.49659">
        <ele>2836.99</ele>
        <time>2018-04-21T09:44:55Z</time>
      </trkpt>
      <trkpt lat="45.05255" lon="6.49662">
        <ele>2837.95</ele>
        <time>2018-04-21T09:45:11Z</time>
      </trkpt>
      <trkpt lat="45.05257" lon="6.49665">
        <ele>2838.43</ele>
        <time>2018-04-21T09:45:33Z</time>
      </trkpt>
      <trkpt lat="45.05256" lon="6.49665">
        <ele>2839.39</ele>
        <time>2018-04-21T09:45:50Z</time>
      </trkpt>
      <trkpt lat="45.05256" lon="6.49666">
        <ele>2840.83</ele>
        <time>2018-04-21T09:46:07Z</time>
      </trkpt>
      <trkpt lat="45.05257" lon="6.4967">
        <ele>2843.72</ele>
        <time>2018-04-21T09:46:18Z</time>
      </trkpt>
      <trkpt lat="45.05256" lon="6.49669">
        <ele>2843.72</ele>
        <time>2018-04-21T09:46:37Z</time>
      </trkpt>
      <trkpt lat="45.05257" lon="6.49671">
        <ele>2844.68</ele>
        <time>2018-04-21T09:46:52Z</time>
      </trkpt>
      <trkpt lat="45.05258" lon="6.49672">
        <ele>2846.12</ele>
        <time>2018-04-21T09:47:10Z</time>
      </trkpt>
      <trkpt lat="45.05259" lon="6.49673">
        <ele>2847.08</ele>
        <time>2018-04-21T09:47:27Z</time>
      </trkpt>
      <trkpt lat="45.05261" lon="6.49674">
        <ele>2848.04</ele>
        <time>2018-04-21T09:47:42Z</time>
      </trkpt>
      <trkpt lat="45.05261" lon="6.49677">
        <ele>2849.48</ele>
        <time>2018-04-21T09:47:58Z</time>
      </trkpt>
      <trkpt lat="45.05263" lon="6.49679">
        <ele>2851.41</ele>
        <time>2018-04-21T09:48:13Z</time>
      </trkpt>
      <trkpt lat="45.05265" lon="6.49681">
        <ele>2851.41</ele>
        <time>2018-04-21T09:48:33Z</time>
      </trkpt>
      <trkpt lat="45.05264" lon="6.4968">
        <ele>2851.41</ele>
        <time>2018-04-21T09:48:56Z</time>
      </trkpt>
      <trkpt lat="45.05264" lon="6.49678">
        <ele>2851.89</ele>
        <time>2018-04-21T09:49:16Z</time>
      </trkpt>
      <trkpt lat="45.05267" lon="6.49683">
        <ele>2853.81</ele>
        <time>2018-04-21T09:49:30Z</time>
      </trkpt>
      <trkpt lat="45.05267" lon="6.49683">
        <ele>2854.29</ele>
        <time>2018-04-21T09:49:48Z</time>
      </trkpt>
      <trkpt lat="45.05267" lon="6.49685">
        <ele>2854.29</ele>
        <time>2018-04-21T09:50:02Z</time>
      </trkpt>
      <trkpt lat="45.05268" lon="6.49685">
        <ele>2854.77</ele>
        <time>2018-04-21T09:50:23Z</time>
      </trkpt>
      <trkpt lat="45.05267" lon="6.49687">
        <ele>2854.77</ele>
        <time>2018-04-21T09:50:36Z</time>
      </trkpt>
      <trkpt lat="45.05267" lon="6.49689">
        <ele>2855.25</ele>
        <time>2018-04-21T09:50:53Z</time>
      </trkpt>
      <trkpt lat="45.05268" lon="6.49688">
        <ele>2855.25</ele>
        <time>2018-04-21T09:51:10Z</time>
      </trkpt>
      <trkpt lat="45.05266" lon="6.4969">
        <ele>2856.21</ele>
        <time>2018-04-21T09:51:25Z</time>
      </trkpt>
      <trkpt lat="45.05264" lon="6.49692">
        <ele>2858.14</ele>
        <time>2018-04-21T09:51:45Z</time>
      </trkpt>
      <trkpt lat="45.05264" lon="6.49693">
        <ele>2859.58</ele>
        <time>2018-04-21T09:51:59Z</time>
      </trkpt>
      <trkpt lat="45.05263" lon="6.49697">
        <ele>2861.98</ele>
        <time>2018-04-21T09:52:15Z</time>
      </trkpt>
      <trkpt lat="45.05263" lon="6.49696">
        <ele>2862.46</ele>
        <time>2018-04-21T09:52:38Z</time>
      </trkpt>
      <trkpt lat="45.05263" lon="6.49696">
        <ele>2862.46</ele>
        <time>2018-04-21T09:52:58Z</time>
      </trkpt>
      <trkpt lat="45.05262" lon="6.497">
        <ele>2864.39</ele>
        <time>2018-04-21T09:53:20Z</time>
      </trkpt>
      <trkpt lat="45.05262" lon="6.49704">
        <ele>2865.83</ele>
        <time>2018-04-21T09:53:39Z</time>
      </trkpt>
      <trkpt lat="45.05261" lon="6.49705">
        <ele>2866.79</ele>
        <time>2018-04-21T09:53:54Z</time>
      </trkpt>
      <trkpt lat="45.05261" lon="6.49708">
        <ele>2868.23</ele>
        <time>2018-04-21T09:54:12Z</time>
      </trkpt>
      <trkpt lat="45.05261" lon="6.4971">
        <ele>2868.71</ele>
        <time>2018-04-21T09:54:26Z</time>
      </trkpt>
      <trkpt lat="45.05259" lon="6.49709">
        <ele>2869.67</ele>
        <time>2018-04-21T09:54:41Z</time>
      </trkpt>
      <trkpt lat="45.05255" lon="6.49709">
        <ele>2871.11</ele>
        <time>2018-04-21T09:54:56Z</time>
      </trkpt>
      <trkpt lat="45.05252" lon="6.49709">
        <ele>2873.04</ele>
        <time>2018-04-21T09:55:11Z</time>
      </trkpt>
      <trkpt lat="45.05253" lon="6.49709">
        <ele>2873.52</ele>
        <time>2018-04-21T09:55:31Z</time>
      </trkpt>
      <trkpt lat="45.05248" lon="6.49709">
        <ele>2874.48</ele>
        <time>2018-04-21T09:55:46Z</time>
      </trkpt>
      <trkpt lat="45.05247" lon="6.49714">
        <ele>2876.4</ele>
        <time>2018-04-21T09:56:04Z</time>
      </trkpt>
      <trkpt lat="45.05247" lon="6.49716">
        <ele>2877.84</ele>
        <time>2018-04-21T09:56:19Z</time>
      </trkpt>
      <trkpt lat="45.05249" lon="6.49719">
        <ele>2878.32</ele>
        <time>2018-04-21T09:56:36Z</time>
      </trkpt>
      <trkpt lat="45.05248" lon="6.49722">
        <ele>2879.29</ele>
        <time>2018-04-21T09:56:52Z</time>
      </trkpt>
      <trkpt lat="45.05246" lon="6.49721">
        <ele>2880.25</ele>
        <time>2018-04-21T09:57:06Z</time>
      </trkpt>
      <trkpt lat="45.05246" lon="6.49722">
        <ele>2880.73</ele>
        <time>2018-04-21T09:57:28Z</time>
      </trkpt>
      <trkpt lat="45.05244" lon="6.49724">
        <ele>2882.65</ele>
        <time>2018-04-21T09:57:40Z</time>
      </trkpt>
      <trkpt lat="45.05243" lon="6.49726">
        <ele>2883.13</ele>
        <time>2018-04-21T09:57:54Z</time>
      </trkpt>
      <trkpt lat="45.05242" lon="6.49731">
        <ele>2884.57</ele>
        <time>2018-04-21T09:58:09Z</time>
      </trkpt>
      <trkpt lat="45.0524" lon="6.49734">
        <ele>2885.53</ele>
        <time>2018-04-21T09:58:22Z</time>
      </trkpt>
      <trkpt lat="45.05239" lon="6.49735">
        <ele>2886.98</ele>
        <time>2018-04-21T09:58:37Z</time>
      </trkpt>
      <trkpt lat="45.0524" lon="6.49737">
        <ele>2887.46</ele>
        <time>2018-04-21T09:58:58Z</time>
      </trkpt>
      <trkpt lat="45.05239" lon="6.49738">
        <ele>2888.9</ele>
        <time>2018-04-21T09:59:15Z</time>
      </trkpt>
      <trkpt lat="45.05238" lon="6.4974">
        <ele>2889.38</ele>
        <time>2018-04-21T09:59:32Z</time>
      </trkpt>
      <trkpt lat="45.05239" lon="6.49739">
        <ele>2889.38</ele>
        <time>2018-04-21T09:59:49Z</time>
      </trkpt>
      <trkpt lat="45.05237" lon="6.49744">
        <ele>2890.82</ele>
        <time>2018-04-21T10:00:06Z</time>
      </trkpt>
      <trkpt lat="45.05235" lon="6.49745">
        <ele>2892.74</ele>
        <time>2018-04-21T10:00:21Z</time>
      </trkpt>
      <trkpt lat="45.05233" lon="6.49747">
        <ele>2894.19</ele>
        <time>2018-04-21T10:00:35Z</time>
      </trkpt>
      <trkpt lat="45.05232" lon="6.4975">
        <ele>2895.15</ele>
        <time>2018-04-21T10:00:49Z</time>
      </trkpt>
      <trkpt lat="45.0523" lon="6.49753">
        <ele>2897.07</ele>
        <time>2018-04-21T10:01:03Z</time>
      </trkpt>
      <trkpt lat="45.0523" lon="6.49753">
        <ele>2896.59</ele>
        <time>2018-04-21T10:01:18Z</time>
      </trkpt>
      <trkpt lat="45.05229" lon="6.49758">
        <ele>2897.07</ele>
        <time>2018-04-21T10:01:35Z</time>
      </trkpt>
      <trkpt lat="45.05227" lon="6.4976">
        <ele>2898.51</ele>
        <time>2018-04-21T10:01:46Z</time>
      </trkpt>
      <trkpt lat="45.05226" lon="6.49761">
        <ele>2898.99</ele>
        <time>2018-04-21T10:02:07Z</time>
      </trkpt>
      <trkpt lat="45.05226" lon="6.49761">
        <ele>2900.44</ele>
        <time>2018-04-21T10:02:27Z</time>
      </trkpt>
      <trkpt lat="45.05226" lon="6.4976">
        <ele>2899.95</ele>
        <time>2018-04-21T10:02:44Z</time>
      </trkpt>
      <trkpt lat="45.05226" lon="6.49759">
        <ele>2899.95</ele>
        <time>2018-04-21T10:03:11Z</time>
      </trkpt>
      <trkpt lat="45.05225" lon="6.4976">
        <ele>2900.44</ele>
        <time>2018-04-21T10:03:32Z</time>
      </trkpt>
      <trkpt lat="45.05225" lon="6.49759">
        <ele>2900.44</ele>
        <time>2018-04-21T10:03:58Z</time>
      </trkpt>
      <trkpt lat="45.05227" lon="6.4976">
        <ele>2899.95</ele>
        <time>2018-04-21T10:04:20Z</time>
      </trkpt>
      <trkpt lat="45.05226" lon="6.49759">
        <ele>2899.95</ele>
        <time>2018-04-21T10:04:49Z</time>
      </trkpt>
      <trkpt lat="45.05227" lon="6.4976">
        <ele>2899.47</ele>
        <time>2018-04-21T10:05:16Z</time>
      </trkpt>
      <trkpt lat="45.05227" lon="6.4976">
        <ele>2899.95</ele>
        <time>2018-04-21T10:05:45Z</time>
      </trkpt>
      <trkpt lat="45.05226" lon="6.4976">
        <ele>2899.95</ele>
        <time>2018-04-21T10:06:18Z</time>
      </trkpt>
      <trkpt lat="45.05226" lon="6.49761">
        <ele>2900.92</ele>
        <time>2018-04-21T10:06:40Z</time>
      </trkpt>
      <trkpt lat="45.05227" lon="6.49761">
        <ele>2899.95</ele>
        <time>2018-04-21T10:06:53Z</time>
      </trkpt>
      <trkpt lat="45.05226" lon="6.4976">
        <ele>2900.44</ele>
        <time>2018-04-21T10:07:08Z</time>
      </trkpt>
      <trkpt lat="45.05226" lon="6.49761">
        <ele>2900.44</ele>
        <time>2018-04-21T10:07:29Z</time>
      </trkpt>
      <trkpt lat="45.05224" lon="6.49761">
        <ele>2899.95</ele>
        <time>2018-04-21T10:07:48Z</time>
      </trkpt>
      <trkpt lat="45.05226" lon="6.49764">
        <ele>2899.47</ele>
        <time>2018-04-21T10:08:00Z</time>
      </trkpt>
      <trkpt lat="45.05224" lon="6.49763">
        <ele>2901.4</ele>
        <time>2018-04-21T10:08:31Z</time>
      </trkpt>
      <trkpt lat="45.05223" lon="6.49761">
        <ele>2900.44</ele>
        <time>2018-04-21T10:08:53Z</time>
      </trkpt>
      <trkpt lat="45.05224" lon="6.4976">
        <ele>2900.92</ele>
        <time>2018-04-21T10:09:14Z</time>
      </trkpt>
      <trkpt lat="45.05224" lon="6.49761">
        <ele>2899.47</ele>
        <time>2018-04-21T10:09:35Z</time>
      </trkpt>
      <trkpt lat="45.05226" lon="6.49762">
        <ele>2899.47</ele>
        <time>2018-04-21T10:09:54Z</time>
      </trkpt>
      <trkpt lat="45.05226" lon="6.49762">
        <ele>2899.47</ele>
        <time>2018-04-21T10:10:13Z</time>
      </trkpt>
      <trkpt lat="45.05225" lon="6.49761">
        <ele>2899.47</ele>
        <time>2018-04-21T10:10:33Z</time>
      </trkpt>
      <trkpt lat="45.05224" lon="6.49761">
        <ele>2898.99</ele>
        <time>2018-04-21T10:10:54Z</time>
      </trkpt>
      <trkpt lat="45.05226" lon="6.49762">
        <ele>2898.51</ele>
        <time>2018-04-21T10:11:14Z</time>
      </trkpt>
      <trkpt lat="45.05227" lon="6.49763">
        <ele>2898.99</ele>
        <time>2018-04-21T10:11:36Z</time>
      </trkpt>
      <trkpt lat="45.05227" lon="6.49763">
        <ele>2898.51</ele>
        <time>2018-04-21T10:11:57Z</time>
      </trkpt>
      <trkpt lat="45.05227" lon="6.49763">
        <ele>2898.51</ele>
        <time>2018-04-21T10:12:17Z</time>
      </trkpt>
      <trkpt lat="45.05226" lon="6.49762">
        <ele>2898.99</ele>
        <time>2018-04-21T10:12:40Z</time>
      </trkpt>
      <trkpt lat="45.05227" lon="6.49762">
        <ele>2899.47</ele>
        <time>2018-04-21T10:13:05Z</time>
      </trkpt>
      <trkpt lat="45.05225" lon="6.49763">
        <ele>2899.47</ele>
        <time>2018-04-21T10:13:23Z</time>
      </trkpt>
      <trkpt lat="45.05226" lon="6.49761">
        <ele>2899.47</ele>
        <time>2018-04-21T10:13:41Z</time>
      </trkpt>
      <trkpt lat="45.05224" lon="6.49761">
        <ele>2899.47</ele>
        <time>2018-04-21T10:14:04Z</time>
      </trkpt>
      <trkpt lat="45.05223" lon="6.49757">
        <ele>2900.44</ele>
        <time>2018-04-21T10:14:17Z</time>
      </trkpt>
      <trkpt lat="45.05225" lon="6.49762">
        <ele>2899.95</ele>
        <time>2018-04-21T10:14:39Z</time>
      </trkpt>
      <trkpt lat="45.05224" lon="6.4976">
        <ele>2899.47</ele>
        <time>2018-04-21T10:14:54Z</time>
      </trkpt>
      <trkpt lat="45.05224" lon="6.4976">
        <ele>2899.47</ele>
        <time>2018-04-21T10:15:14Z</time>
      </trkpt>
      <trkpt lat="45.05226" lon="6.49757">
        <ele>2897.55</ele>
        <time>2018-04-21T10:15:31Z</time>
      </trkpt>
      <trkpt lat="45.0523" lon="6.4975">
        <ele>2896.11</ele>
        <time>2018-04-21T10:15:46Z</time>
      </trkpt>
      <trkpt lat="45.05231" lon="6.49746">
        <ele>2895.15</ele>
        <time>2018-04-21T10:16:03Z</time>
      </trkpt>
      <trkpt lat="45.05233" lon="6.49745">
        <ele>2894.19</ele>
        <time>2018-04-21T10:16:23Z</time>
      </trkpt>
      <trkpt lat="45.05234" lon="6.49738">
        <ele>2892.74</ele>
        <time>2018-04-21T10:16:33Z</time>
      </trkpt>
      <trkpt lat="45.05233" lon="6.49736">
        <ele>2891.3</ele>
        <time>2018-04-21T10:16:38Z</time>
      </trkpt>
      <trkpt lat="45.05236" lon="6.49732">
        <ele>2888.9</ele>
        <time>2018-04-21T10:16:51Z</time>
      </trkpt>
      <trkpt lat="45.05238" lon="6.4973">
        <ele>2887.46</ele>
        <time>2018-04-21T10:17:12Z</time>
      </trkpt>
      <trkpt lat="45.05241" lon="6.49726">
        <ele>2885.53</ele>
        <time>2018-04-21T10:17:26Z</time>
      </trkpt>
      <trkpt lat="45.05243" lon="6.4972">
        <ele>2883.13</ele>
        <time>2018-04-21T10:17:41Z</time>
      </trkpt>
      <trkpt lat="45.05246" lon="6.49721">
        <ele>2882.17</ele>
        <time>2018-04-21T10:17:54Z</time>
      </trkpt>
      <trkpt lat="45.05248" lon="6.4972">
        <ele>2880.25</ele>
        <time>2018-04-21T10:18:07Z</time>
      </trkpt>
      <trkpt lat="45.0525" lon="6.49718">
        <ele>2879.29</ele>
        <time>2018-04-21T10:18:24Z</time>
      </trkpt>
      <trkpt lat="45.05253" lon="6.49719">
        <ele>2879.29</ele>
        <time>2018-04-21T10:18:44Z</time>
      </trkpt>
      <trkpt lat="45.05255" lon="6.4972">
        <ele>2877.84</ele>
        <time>2018-04-21T10:18:58Z</time>
      </trkpt>
      <trkpt lat="45.05254" lon="6.49719">
        <ele>2876.4</ele>
        <time>2018-04-21T10:19:12Z</time>
      </trkpt>
      <trkpt lat="45.05252" lon="6.49714">
        <ele>2875.92</ele>
        <time>2018-04-21T10:19:29Z</time>
      </trkpt>
      <trkpt lat="45.05252" lon="6.4971">
        <ele>2874.96</ele>
        <time>2018-04-21T10:19:44Z</time>
      </trkpt>
      <trkpt lat="45.0525" lon="6.49705">
        <ele>2874.48</ele>
        <time>2018-04-21T10:20:04Z</time>
      </trkpt>
      <trkpt lat="45.05253" lon="6.49707">
        <ele>2874</ele>
        <time>2018-04-21T10:20:16Z</time>
      </trkpt>
      <trkpt lat="45.05256" lon="6.49708">
        <ele>2872.56</ele>
        <time>2018-04-21T10:20:29Z</time>
      </trkpt>
      <trkpt lat="45.05256" lon="6.49708">
        <ele>2872.56</ele>
        <time>2018-04-21T10:20:52Z</time>
      </trkpt>
      <trkpt lat="45.05259" lon="6.49709">
        <ele>2871.11</ele>
        <time>2018-04-21T10:21:07Z</time>
      </trkpt>
      <trkpt lat="45.0526" lon="6.49708">
        <ele>2869.19</ele>
        <time>2018-04-21T10:21:21Z</time>
      </trkpt>
      <trkpt lat="45.0526" lon="6.49703">
        <ele>2868.23</ele>
        <time>2018-04-21T10:21:38Z</time>
      </trkpt>
      <trkpt lat="45.05261" lon="6.49703">
        <ele>2868.23</ele>
        <time>2018-04-21T10:22:03Z</time>
      </trkpt>
      <trkpt lat="45.05261" lon="6.49703">
        <ele>2868.71</ele>
        <time>2018-04-21T10:22:27Z</time>
      </trkpt>
      <trkpt lat="45.0526" lon="6.49699">
        <ele>2867.27</ele>
        <time>2018-04-21T10:22:43Z</time>
      </trkpt>
      <trkpt lat="45.05261" lon="6.49697">
        <ele>2865.35</ele>
        <time>2018-04-21T10:22:57Z</time>
      </trkpt>
      <trkpt lat="45.05261" lon="6.49694">
        <ele>2864.87</ele>
        <time>2018-04-21T10:23:13Z</time>
      </trkpt>
      <trkpt lat="45.05262" lon="6.49693">
        <ele>2863.42</ele>
        <time>2018-04-21T10:23:29Z</time>
      </trkpt>
      <trkpt lat="45.05263" lon="6.49691">
        <ele>2861.98</ele>
        <time>2018-04-21T10:23:40Z</time>
      </trkpt>
      <trkpt lat="45.05265" lon="6.49689">
        <ele>2859.58</ele>
        <time>2018-04-21T10:23:56Z</time>
      </trkpt>
      <trkpt lat="45.05265" lon="6.49684">
        <ele>2858.14</ele>
        <time>2018-04-21T10:24:10Z</time>
      </trkpt>
      <trkpt lat="45.05265" lon="6.49686">
        <ele>2858.14</ele>
        <time>2018-04-21T10:24:29Z</time>
      </trkpt>
      <trkpt lat="45.05265" lon="6.49683">
        <ele>2857.18</ele>
        <time>2018-04-21T10:24:50Z</time>
      </trkpt>
      <trkpt lat="45.05266" lon="6.49683">
        <ele>2857.66</ele>
        <time>2018-04-21T10:25:09Z</time>
      </trkpt>
      <trkpt lat="45.05265" lon="6.49683">
        <ele>2857.18</ele>
        <time>2018-04-21T10:25:28Z</time>
      </trkpt>
      <trkpt lat="45.05265" lon="6.49684">
        <ele>2857.18</ele>
        <time>2018-04-21T10:25:48Z</time>
      </trkpt>
      <trkpt lat="45.05265" lon="6.49682">
        <ele>2857.18</ele>
        <time>2018-04-21T10:26:09Z</time>
      </trkpt>
      <trkpt lat="45.05265" lon="6.49683">
        <ele>2856.69</ele>
        <time>2018-04-21T10:26:26Z</time>
      </trkpt>
      <trkpt lat="45.05264" lon="6.49684">
        <ele>2855.25</ele>
        <time>2018-04-21T10:26:39Z</time>
      </trkpt>
      <trkpt lat="45.0526" lon="6.49679">
        <ele>2852.85</ele>
        <time>2018-04-21T10:26:56Z</time>
      </trkpt>
      <trkpt lat="45.05257" lon="6.49677">
        <ele>2850.45</ele>
        <time>2018-04-21T10:27:08Z</time>
      </trkpt>
      <trkpt lat="45.05256" lon="6.49675">
        <ele>2848.04</ele>
        <time>2018-04-21T10:27:23Z</time>
      </trkpt>
      <trkpt lat="45.05255" lon="6.49672">
        <ele>2846.6</ele>
        <time>2018-04-21T10:27:34Z</time>
      </trkpt>
      <trkpt lat="45.05255" lon="6.49669">
        <ele>2845.64</ele>
        <time>2018-04-21T10:27:48Z</time>
      </trkpt>
      <trkpt lat="45.05253" lon="6.49668">
        <ele>2843.72</ele>
        <time>2018-04-21T10:28:02Z</time>
      </trkpt>
      <trkpt lat="45.05253" lon="6.49667">
        <ele>2843.72</ele>
        <time>2018-04-21T10:28:17Z</time>
      </trkpt>
      <trkpt lat="45.05253" lon="6.49664">
        <ele>2840.83</ele>
        <time>2018-04-21T10:28:32Z</time>
      </trkpt>
      <trkpt lat="45.05251" lon="6.49661">
        <ele>2838.91</ele>
        <time>2018-04-21T10:28:49Z</time>
      </trkpt>
      <trkpt lat="45.05251" lon="6.49659">
        <ele>2837.47</ele>
        <time>2018-04-21T10:29:03Z</time>
      </trkpt>
      <trkpt lat="45.0525" lon="6.49658">
        <ele>2836.99</ele>
        <time>2018-04-21T10:29:22Z</time>
      </trkpt>
      <trkpt lat="45.0525" lon="6.49657">
        <ele>2837.47</ele>
        <time>2018-04-21T10:29:41Z</time>
      </trkpt>
      <trkpt lat="45.05249" lon="6.49656">
        <ele>2836.51</ele>
        <time>2018-04-21T10:29:59Z</time>
      </trkpt>
      <trkpt lat="45.05247" lon="6.49655">
        <ele>2834.58</ele>
        <time>2018-04-21T10:30:10Z</time>
      </trkpt>
      <trkpt lat="45.05246" lon="6.49655">
        <ele>2832.18</ele>
        <time>2018-04-21T10:30:25Z</time>
      </trkpt>
      <trkpt lat="45.05245" lon="6.49652">
        <ele>2831.22</ele>
        <time>2018-04-21T10:30:39Z</time>
      </trkpt>
      <trkpt lat="45.05244" lon="6.49648">
        <ele>2829.78</ele>
        <time>2018-04-21T10:30:55Z</time>
      </trkpt>
      <trkpt lat="45.05246" lon="6.49645">
        <ele>2828.82</ele>
        <time>2018-04-21T10:31:07Z</time>
      </trkpt>
      <trkpt lat="45.05246" lon="6.49644">
        <ele>2828.34</ele>
        <time>2018-04-21T10:31:20Z</time>
      </trkpt>
      <trkpt lat="45.05246" lon="6.49643">
        <ele>2827.37</ele>
        <time>2018-04-21T10:31:32Z</time>
      </trkpt>
      <trkpt lat="45.05246" lon="6.49644">
        <ele>2827.37</ele>
        <time>2018-04-21T10:31:50Z</time>
      </trkpt>
      <trkpt lat="45.05244" lon="6.49642">
        <ele>2825.93</ele>
        <time>2018-04-21T10:32:02Z</time>
      </trkpt>
      <trkpt lat="45.05243" lon="6.49641">
        <ele>2824.49</ele>
        <time>2018-04-21T10:32:18Z</time>
      </trkpt>
      <trkpt lat="45.05241" lon="6.4964">
        <ele>2822.09</ele>
        <time>2018-04-21T10:32:30Z</time>
      </trkpt>
      <trkpt lat="45.05239" lon="6.49638">
        <ele>2821.13</ele>
        <time>2018-04-21T10:32:48Z</time>
      </trkpt>
      <trkpt lat="45.05239" lon="6.49637">
        <ele>2819.2</ele>
        <time>2018-04-21T10:33:04Z</time>
      </trkpt>
      <trkpt lat="45.05238" lon="6.49635">
        <ele>2818.24</ele>
        <time>2018-04-21T10:33:15Z</time>
      </trkpt>
      <trkpt lat="45.05236" lon="6.49633">
        <ele>2816.8</ele>
        <time>2018-04-21T10:33:32Z</time>
      </trkpt>
      <trkpt lat="45.05235" lon="6.49633">
        <ele>2815.84</ele>
        <time>2018-04-21T10:33:43Z</time>
      </trkpt>
      <trkpt lat="45.05232" lon="6.49637">
        <ele>2814.88</ele>
        <time>2018-04-21T10:33:59Z</time>
      </trkpt>
      <trkpt lat="45.05229" lon="6.49637">
        <ele>2814.4</ele>
        <time>2018-04-21T10:34:15Z</time>
      </trkpt>
      <trkpt lat="45.05225" lon="6.49639">
        <ele>2812.96</ele>
        <time>2018-04-21T10:34:28Z</time>
      </trkpt>
      <trkpt lat="45.05225" lon="6.49639">
        <ele>2813.44</ele>
        <time>2018-04-21T10:34:41Z</time>
      </trkpt>
      <trkpt lat="45.05225" lon="6.49638">
        <ele>2813.44</ele>
        <time>2018-04-21T10:34:57Z</time>
      </trkpt>
      <trkpt lat="45.05226" lon="6.4964">
        <ele>2812.96</ele>
        <time>2018-04-21T10:35:14Z</time>
      </trkpt>
      <trkpt lat="45.05228" lon="6.4964">
        <ele>2812.47</ele>
        <time>2018-04-21T10:35:49Z</time>
      </trkpt>
      <trkpt lat="45.05227" lon="6.4964">
        <ele>2812.47</ele>
        <time>2018-04-21T10:36:15Z</time>
      </trkpt>
      <trkpt lat="45.05226" lon="6.49641">
        <ele>2812.47</ele>
        <time>2018-04-21T10:36:52Z</time>
      </trkpt>
      <trkpt lat="45.05228" lon="6.49642">
        <ele>2812.47</ele>
        <time>2018-04-21T10:37:18Z</time>
      </trkpt>
      <trkpt lat="45.05229" lon="6.49645">
        <ele>2812.47</ele>
        <time>2018-04-21T10:37:56Z</time>
      </trkpt>
      <trkpt lat="45.05228" lon="6.49641">
        <ele>2812.47</ele>
        <time>2018-04-21T10:38:25Z</time>
      </trkpt>
      <trkpt lat="45.05223" lon="6.49637">
        <ele>2812.47</ele>
        <time>2018-04-21T10:38:56Z</time>
      </trkpt>
      <trkpt lat="45.05225" lon="6.49639">
        <ele>2812.47</ele>
        <time>2018-04-21T10:39:36Z</time>
      </trkpt>
      <trkpt lat="45.05227" lon="6.49644">
        <ele>2812.47</ele>
        <time>2018-04-21T10:40:04Z</time>
      </trkpt>
      <trkpt lat="45.0523" lon="6.49646">
        <ele>2804.3</ele>
        <time>2018-04-21T10:40:22Z</time>
      </trkpt>
      <trkpt lat="45.05229" lon="6.49646">
        <ele>2811.99</ele>
        <time>2018-04-21T10:40:23Z</time>
      </trkpt>
      <trkpt lat="45.05229" lon="6.49646">
        <ele>2816.32</ele>
        <time>2018-04-21T10:40:25Z</time>
      </trkpt>
      <trkpt lat="45.05229" lon="6.49645">
        <ele>2813.92</ele>
        <time>2018-04-21T10:40:26Z</time>
      </trkpt>
      <trkpt lat="45.05227" lon="6.49639">
        <ele>2812.47</ele>
        <time>2018-04-21T10:40:57Z</time>
      </trkpt>
      <trkpt lat="45.05228" lon="6.4964">
        <ele>2811.99</ele>
        <time>2018-04-21T10:41:34Z</time>
      </trkpt>
      <trkpt lat="45.05229" lon="6.49641">
        <ele>2811.99</ele>
        <time>2018-04-21T10:42:01Z</time>
      </trkpt>
      <trkpt lat="45.05227" lon="6.49643">
        <ele>2811.99</ele>
        <time>2018-04-21T10:42:30Z</time>
      </trkpt>
      <trkpt lat="45.05227" lon="6.49645">
        <ele>2811.99</ele>
        <time>2018-04-21T10:43:05Z</time>
      </trkpt>
      <trkpt lat="45.05224" lon="6.4964">
        <ele>2811.99</ele>
        <time>2018-04-21T10:43:32Z</time>
      </trkpt>
      <trkpt lat="45.05225" lon="6.49641">
        <ele>2811.99</ele>
        <time>2018-04-21T10:44:09Z</time>
      </trkpt>
      <trkpt lat="45.05225" lon="6.49643">
        <ele>2811.99</ele>
        <time>2018-04-21T10:44:44Z</time>
      </trkpt>
      <trkpt lat="45.05223" lon="6.49637">
        <ele>2811.51</ele>
        <time>2018-04-21T10:45:15Z</time>
      </trkpt>
      <trkpt lat="45.05227" lon="6.49642">
        <ele>2812.47</ele>
        <time>2018-04-21T10:45:29Z</time>
      </trkpt>
      <trkpt lat="45.05227" lon="6.49644">
        <ele>2812.47</ele>
        <time>2018-04-21T10:45:48Z</time>
      </trkpt>
      <trkpt lat="45.05227" lon="6.49645">
        <ele>2812.47</ele>
        <time>2018-04-21T10:46:08Z</time>
      </trkpt>
      <trkpt lat="45.05228" lon="6.49644">
        <ele>2812.47</ele>
        <time>2018-04-21T10:46:26Z</time>
      </trkpt>
      <trkpt lat="45.05227" lon="6.49643">
        <ele>2812.96</ele>
        <time>2018-04-21T10:46:45Z</time>
      </trkpt>
      <trkpt lat="45.05227" lon="6.49643">
        <ele>2812.96</ele>
        <time>2018-04-21T10:47:00Z</time>
      </trkpt>
      <trkpt lat="45.05228" lon="6.49645">
        <ele>2812.47</ele>
        <time>2018-04-21T10:47:19Z</time>
      </trkpt>
      <trkpt lat="45.05228" lon="6.49644">
        <ele>2812.96</ele>
        <time>2018-04-21T10:47:20Z</time>
      </trkpt>
      <trkpt lat="45.05229" lon="6.49633">
        <ele>2810.07</ele>
        <time>2018-04-21T10:47:24Z</time>
      </trkpt>
      <trkpt lat="45.05216" lon="6.49634">
        <ele>2804.3</ele>
        <time>2018-04-21T10:47:27Z</time>
      </trkpt>
      <trkpt lat="45.05209" lon="6.49627">
        <ele>2799.98</ele>
        <time>2018-04-21T10:47:30Z</time>
      </trkpt>
      <trkpt lat="45.05209" lon="6.49615">
        <ele>2795.17</ele>
        <time>2018-04-21T10:47:33Z</time>
      </trkpt>
      <trkpt lat="45.052" lon="6.49616">
        <ele>2792.29</ele>
        <time>2018-04-21T10:47:35Z</time>
      </trkpt>
      <trkpt lat="45.05195" lon="6.49618">
        <ele>2790.36</ele>
        <time>2018-04-21T10:47:40Z</time>
      </trkpt>
      <trkpt lat="45.05194" lon="6.49613">
        <ele>2788.44</ele>
        <time>2018-04-21T10:47:52Z</time>
      </trkpt>
      <trkpt lat="45.05195" lon="6.49606">
        <ele>2788.44</ele>
        <time>2018-04-21T10:48:00Z</time>
      </trkpt>
      <trkpt lat="45.05184" lon="6.49588">
        <ele>2782.67</ele>
        <time>2018-04-21T10:48:04Z</time>
      </trkpt>
      <trkpt lat="45.05182" lon="6.49584">
        <ele>2779.31</ele>
        <time>2018-04-21T10:48:07Z</time>
      </trkpt>
      <trkpt lat="45.0518" lon="6.49585">
        <ele>2779.31</ele>
        <time>2018-04-21T10:48:23Z</time>
      </trkpt>
      <trkpt lat="45.05181" lon="6.49585">
        <ele>2779.31</ele>
        <time>2018-04-21T10:48:49Z</time>
      </trkpt>
      <trkpt lat="45.0518" lon="6.49585">
        <ele>2779.31</ele>
        <time>2018-04-21T10:49:07Z</time>
      </trkpt>
      <trkpt lat="45.05181" lon="6.49586">
        <ele>2779.31</ele>
        <time>2018-04-21T10:49:18Z</time>
      </trkpt>
      <trkpt lat="45.05176" lon="6.49567">
        <ele>2776.42</ele>
        <time>2018-04-21T10:49:22Z</time>
      </trkpt>
      <trkpt lat="45.05169" lon="6.49544">
        <ele>2772.1</ele>
        <time>2018-04-21T10:49:25Z</time>
      </trkpt>
      <trkpt lat="45.05163" lon="6.49529">
        <ele>2767.77</ele>
        <time>2018-04-21T10:49:28Z</time>
      </trkpt>
      <trkpt lat="45.05162" lon="6.49526">
        <ele>2765.37</ele>
        <time>2018-04-21T10:49:31Z</time>
      </trkpt>
      <trkpt lat="45.05163" lon="6.49527">
        <ele>2765.37</ele>
        <time>2018-04-21T10:49:56Z</time>
      </trkpt>
      <trkpt lat="45.05163" lon="6.49529">
        <ele>2764.89</ele>
        <time>2018-04-21T10:50:23Z</time>
      </trkpt>
      <trkpt lat="45.05165" lon="6.49517">
        <ele>2761.04</ele>
        <time>2018-04-21T10:50:27Z</time>
      </trkpt>
      <trkpt lat="45.05175" lon="6.49507">
        <ele>2757.2</ele>
        <time>2018-04-21T10:50:30Z</time>
      </trkpt>
      <trkpt lat="45.05178" lon="6.49496">
        <ele>2751.91</ele>
        <time>2018-04-21T10:50:32Z</time>
      </trkpt>
      <trkpt lat="45.05179" lon="6.49483">
        <ele>2747.1</ele>
        <time>2018-04-21T10:50:34Z</time>
      </trkpt>
      <trkpt lat="45.05168" lon="6.49472">
        <ele>2742.3</ele>
        <time>2018-04-21T10:50:36Z</time>
      </trkpt>
      <trkpt lat="45.0515" lon="6.49437">
        <ele>2731.72</ele>
        <time>2018-04-21T10:50:42Z</time>
      </trkpt>
      <trkpt lat="45.05148" lon="6.49417">
        <ele>2728.36</ele>
        <time>2018-04-21T10:50:44Z</time>
      </trkpt>
      <trkpt lat="45.05142" lon="6.49391">
        <ele>2722.11</ele>
        <time>2018-04-21T10:50:46Z</time>
      </trkpt>
      <trkpt lat="45.05137" lon="6.49362">
        <ele>2717.78</ele>
        <time>2018-04-21T10:50:48Z</time>
      </trkpt>
      <trkpt lat="45.05136" lon="6.49341">
        <ele>2713.46</ele>
        <time>2018-04-21T10:50:50Z</time>
      </trkpt>
      <trkpt lat="45.05138" lon="6.49309">
        <ele>2709.61</ele>
        <time>2018-04-21T10:50:55Z</time>
      </trkpt>
      <trkpt lat="45.05137" lon="6.49283">
        <ele>2707.69</ele>
        <time>2018-04-21T10:50:58Z</time>
      </trkpt>
      <trkpt lat="45.05136" lon="6.49274">
        <ele>2705.77</ele>
        <time>2018-04-21T10:51:01Z</time>
      </trkpt>
      <trkpt lat="45.05136" lon="6.49279">
        <ele>2705.77</ele>
        <time>2018-04-21T10:51:15Z</time>
      </trkpt>
      <trkpt lat="45.05135" lon="6.49279">
        <ele>2705.77</ele>
        <time>2018-04-21T10:51:32Z</time>
      </trkpt>
      <trkpt lat="45.05134" lon="6.49281">
        <ele>2705.77</ele>
        <time>2018-04-21T10:52:00Z</time>
      </trkpt>
      <trkpt lat="45.05133" lon="6.49281">
        <ele>2705.29</ele>
        <time>2018-04-21T10:52:02Z</time>
      </trkpt>
      <trkpt lat="45.05115" lon="6.49271">
        <ele>2700.96</ele>
        <time>2018-04-21T10:52:09Z</time>
      </trkpt>
      <trkpt lat="45.05103" lon="6.49264">
        <ele>2698.08</ele>
        <time>2018-04-21T10:52:12Z</time>
      </trkpt>
      <trkpt lat="45.05088" lon="6.49255">
        <ele>2690.87</ele>
        <time>2018-04-21T10:52:17Z</time>
      </trkpt>
      <trkpt lat="45.05082" lon="6.49253">
        <ele>2687.98</ele>
        <time>2018-04-21T10:52:21Z</time>
      </trkpt>
      <trkpt lat="45.05082" lon="6.49253">
        <ele>2688.46</ele>
        <time>2018-04-21T10:52:37Z</time>
      </trkpt>
      <trkpt lat="45.05082" lon="6.49253">
        <ele>2688.46</ele>
        <time>2018-04-21T10:53:03Z</time>
      </trkpt>
      <trkpt lat="45.05082" lon="6.49252">
        <ele>2688.46</ele>
        <time>2018-04-21T10:53:16Z</time>
      </trkpt>
      <trkpt lat="45.05066" lon="6.49246">
        <ele>2683.66</ele>
        <time>2018-04-21T10:53:21Z</time>
      </trkpt>
      <trkpt lat="45.0506" lon="6.49241">
        <ele>2679.33</ele>
        <time>2018-04-21T10:53:23Z</time>
      </trkpt>
      <trkpt lat="45.05054" lon="6.4924">
        <ele>2673.56</ele>
        <time>2018-04-21T10:53:25Z</time>
      </trkpt>
      <trkpt lat="45.05046" lon="6.49236">
        <ele>2668.28</ele>
        <time>2018-04-21T10:53:27Z</time>
      </trkpt>
      <trkpt lat="45.05037" lon="6.49222">
        <ele>2663.47</ele>
        <time>2018-04-21T10:53:29Z</time>
      </trkpt>
      <trkpt lat="45.05031" lon="6.49199">
        <ele>2659.62</ele>
        <time>2018-04-21T10:53:31Z</time>
      </trkpt>
      <trkpt lat="45.05027" lon="6.49175">
        <ele>2656.74</ele>
        <time>2018-04-21T10:53:34Z</time>
      </trkpt>
      <trkpt lat="45.05017" lon="6.49177">
        <ele>2654.34</ele>
        <time>2018-04-21T10:53:40Z</time>
      </trkpt>
      <trkpt lat="45.05014" lon="6.49181">
        <ele>2655.3</ele>
        <time>2018-04-21T10:53:54Z</time>
      </trkpt>
      <trkpt lat="45.05014" lon="6.49182">
        <ele>2655.3</ele>
        <time>2018-04-21T10:54:08Z</time>
      </trkpt>
      <trkpt lat="45.05014" lon="6.49183">
        <ele>2654.82</ele>
        <time>2018-04-21T10:54:20Z</time>
      </trkpt>
      <trkpt lat="45.05015" lon="6.49185">
        <ele>2654.82</ele>
        <time>2018-04-21T10:54:28Z</time>
      </trkpt>
      <trkpt lat="45.05017" lon="6.49203">
        <ele>2653.38</ele>
        <time>2018-04-21T10:54:32Z</time>
      </trkpt>
      <trkpt lat="45.05017" lon="6.49219">
        <ele>2651.45</ele>
        <time>2018-04-21T10:54:34Z</time>
      </trkpt>
      <trkpt lat="45.05015" lon="6.49246">
        <ele>2648.09</ele>
        <time>2018-04-21T10:54:38Z</time>
      </trkpt>
      <trkpt lat="45.05012" lon="6.49266">
        <ele>2646.17</ele>
        <time>2018-04-21T10:54:43Z</time>
      </trkpt>
      <trkpt lat="45.05005" lon="6.49267">
        <ele>2640.88</ele>
        <time>2018-04-21T10:54:46Z</time>
      </trkpt>
      <trkpt lat="45.04996" lon="6.49268">
        <ele>2636.55</ele>
        <time>2018-04-21T10:54:49Z</time>
      </trkpt>
      <trkpt lat="45.04987" lon="6.49262">
        <ele>2632.23</ele>
        <time>2018-04-21T10:54:51Z</time>
      </trkpt>
      <trkpt lat="45.04979" lon="6.49247">
        <ele>2628.86</ele>
        <time>2018-04-21T10:54:53Z</time>
      </trkpt>
      <trkpt lat="45.04962" lon="6.49217">
        <ele>2623.09</ele>
        <time>2018-04-21T10:54:58Z</time>
      </trkpt>
      <trkpt lat="45.04954" lon="6.49209">
        <ele>2621.17</ele>
        <time>2018-04-21T10:55:01Z</time>
      </trkpt>
      <trkpt lat="45.04933" lon="6.49192">
        <ele>2616.85</ele>
        <time>2018-04-21T10:55:07Z</time>
      </trkpt>
      <trkpt lat="45.04926" lon="6.49179">
        <ele>2613.96</ele>
        <time>2018-04-21T10:55:10Z</time>
      </trkpt>
      <trkpt lat="45.04921" lon="6.49177">
        <ele>2612.04</ele>
        <time>2018-04-21T10:55:13Z</time>
      </trkpt>
      <trkpt lat="45.04918" lon="6.4918">
        <ele>2612.52</ele>
        <time>2018-04-21T10:55:29Z</time>
      </trkpt>
      <trkpt lat="45.0492" lon="6.49176">
        <ele>2612.04</ele>
        <time>2018-04-21T10:55:42Z</time>
      </trkpt>
      <trkpt lat="45.04911" lon="6.49158">
        <ele>2608.19</ele>
        <time>2018-04-21T10:55:47Z</time>
      </trkpt>
      <trkpt lat="45.04899" lon="6.49148">
        <ele>2603.39</ele>
        <time>2018-04-21T10:55:50Z</time>
      </trkpt>
      <trkpt lat="45.04891" lon="6.49149">
        <ele>2600.02</ele>
        <time>2018-04-21T10:55:52Z</time>
      </trkpt>
      <trkpt lat="45.04886" lon="6.49141">
        <ele>2595.7</ele>
        <time>2018-04-21T10:55:54Z</time>
      </trkpt>
      <trkpt lat="45.04881" lon="6.49136">
        <ele>2592.81</ele>
        <time>2018-04-21T10:55:56Z</time>
      </trkpt>
      <trkpt lat="45.04879" lon="6.49134">
        <ele>2577.91</ele>
        <time>2018-04-21T10:55:58Z</time>
      </trkpt>
      <trkpt lat="45.0488" lon="6.49132">
        <ele>2590.89</ele>
        <time>2018-04-21T10:56:00Z</time>
      </trkpt>
      <trkpt lat="45.04876" lon="6.49137">
        <ele>2590.41</ele>
        <time>2018-04-21T10:56:11Z</time>
      </trkpt>
      <trkpt lat="45.04875" lon="6.49138">
        <ele>2590.41</ele>
        <time>2018-04-21T10:56:31Z</time>
      </trkpt>
      <trkpt lat="45.04875" lon="6.49138">
        <ele>2590.41</ele>
        <time>2018-04-21T10:56:57Z</time>
      </trkpt>
      <trkpt lat="45.04876" lon="6.49139">
        <ele>2590.41</ele>
        <time>2018-04-21T10:57:24Z</time>
      </trkpt>
      <trkpt lat="45.04875" lon="6.4914">
        <ele>2589.93</ele>
        <time>2018-04-21T10:57:29Z</time>
      </trkpt>
      <trkpt lat="45.04861" lon="6.49156">
        <ele>2586.56</ele>
        <time>2018-04-21T10:57:37Z</time>
      </trkpt>
      <trkpt lat="45.04844" lon="6.49168">
        <ele>2583.2</ele>
        <time>2018-04-21T10:57:42Z</time>
      </trkpt>
      <trkpt lat="45.04838" lon="6.49159">
        <ele>2578.39</ele>
        <time>2018-04-21T10:57:45Z</time>
      </trkpt>
      <trkpt lat="45.04829" lon="6.49157">
        <ele>2574.07</ele>
        <time>2018-04-21T10:57:47Z</time>
      </trkpt>
      <trkpt lat="45.04824" lon="6.4916">
        <ele>2572.14</ele>
        <time>2018-04-21T10:57:48Z</time>
      </trkpt>
      <trkpt lat="45.04813" lon="6.49168">
        <ele>2568.3</ele>
        <time>2018-04-21T10:57:50Z</time>
      </trkpt>
      <trkpt lat="45.04793" lon="6.49185">
        <ele>2562.53</ele>
        <time>2018-04-21T10:57:54Z</time>
      </trkpt>
      <trkpt lat="45.04788" lon="6.49187">
        <ele>2561.57</ele>
        <time>2018-04-21T10:57:55Z</time>
      </trkpt>
      <trkpt lat="45.04757" lon="6.49182">
        <ele>2557.73</ele>
        <time>2018-04-21T10:58:00Z</time>
      </trkpt>
      <trkpt lat="45.04712" lon="6.49156">
        <ele>2552.92</ele>
        <time>2018-04-21T10:58:08Z</time>
      </trkpt>
      <trkpt lat="45.0471" lon="6.49148">
        <ele>2551.48</ele>
        <time>2018-04-21T10:58:15Z</time>
      </trkpt>
      <trkpt lat="45.04711" lon="6.49151">
        <ele>2551</ele>
        <time>2018-04-21T10:58:36Z</time>
      </trkpt>
      <trkpt lat="45.04712" lon="6.4915">
        <ele>2551</ele>
        <time>2018-04-21T10:59:09Z</time>
      </trkpt>
      <trkpt lat="45.04712" lon="6.4915">
        <ele>2554.84</ele>
        <time>2018-04-21T10:59:11Z</time>
      </trkpt>
      <trkpt lat="45.04712" lon="6.4915">
        <ele>2551.96</ele>
        <time>2018-04-21T10:59:12Z</time>
      </trkpt>
      <trkpt lat="45.04712" lon="6.49148">
        <ele>2551</ele>
        <time>2018-04-21T10:59:34Z</time>
      </trkpt>
      <trkpt lat="45.04711" lon="6.49147">
        <ele>2551</ele>
        <time>2018-04-21T10:59:51Z</time>
      </trkpt>
      <trkpt lat="45.04705" lon="6.4914">
        <ele>2550.51</ele>
        <time>2018-04-21T10:59:59Z</time>
      </trkpt>
      <trkpt lat="45.04689" lon="6.49136">
        <ele>2547.63</ele>
        <time>2018-04-21T11:00:03Z</time>
      </trkpt>
      <trkpt lat="45.0468" lon="6.49137">
        <ele>2546.67</ele>
        <time>2018-04-21T11:00:05Z</time>
      </trkpt>
      <trkpt lat="45.04677" lon="6.49122">
        <ele>2542.82</ele>
        <time>2018-04-21T11:00:09Z</time>
      </trkpt>
      <trkpt lat="45.04666" lon="6.49116">
        <ele>2539.94</ele>
        <time>2018-04-21T11:00:12Z</time>
      </trkpt>
      <trkpt lat="45.0464" lon="6.49103">
        <ele>2536.58</ele>
        <time>2018-04-21T11:00:18Z</time>
      </trkpt>
      <trkpt lat="45.04621" lon="6.49086">
        <ele>2533.21</ele>
        <time>2018-04-21T11:00:21Z</time>
      </trkpt>
      <trkpt lat="45.04608" lon="6.49076">
        <ele>2531.29</ele>
        <time>2018-04-21T11:00:23Z</time>
      </trkpt>
      <trkpt lat="45.04581" lon="6.49058">
        <ele>2526.48</ele>
        <time>2018-04-21T11:00:28Z</time>
      </trkpt>
      <trkpt lat="45.04556" lon="6.49048">
        <ele>2523.12</ele>
        <time>2018-04-21T11:00:32Z</time>
      </trkpt>
      <trkpt lat="45.04528" lon="6.49036">
        <ele>2519.27</ele>
        <time>2018-04-21T11:00:36Z</time>
      </trkpt>
      <trkpt lat="45.04521" lon="6.49033">
        <ele>2518.31</ele>
        <time>2018-04-21T11:00:37Z</time>
      </trkpt>
      <trkpt lat="45.0449" lon="6.49007">
        <ele>2513.98</ele>
        <time>2018-04-21T11:00:42Z</time>
      </trkpt>
      <trkpt lat="45.04486" lon="6.49002">
        <ele>2513.98</ele>
        <time>2018-04-21T11:00:43Z</time>
      </trkpt>
      <trkpt lat="45.04455" lon="6.48979">
        <ele>2511.1</ele>
        <time>2018-04-21T11:00:52Z</time>
      </trkpt>
      <trkpt lat="45.04433" lon="6.48969">
        <ele>2507.74</ele>
        <time>2018-04-21T11:00:56Z</time>
      </trkpt>
      <trkpt lat="45.04403" lon="6.4895">
        <ele>2504.37</ele>
        <time>2018-04-21T11:01:03Z</time>
      </trkpt>
      <trkpt lat="45.04377" lon="6.48941">
        <ele>2501.01</ele>
        <time>2018-04-21T11:01:10Z</time>
      </trkpt>
      <trkpt lat="45.04351" lon="6.48941">
        <ele>2497.64</ele>
        <time>2018-04-21T11:01:18Z</time>
      </trkpt>
      <trkpt lat="45.04338" lon="6.4894">
        <ele>2495.72</ele>
        <time>2018-04-21T11:01:22Z</time>
      </trkpt>
      <trkpt lat="45.04323" lon="6.48942">
        <ele>2493.8</ele>
        <time>2018-04-21T11:01:26Z</time>
      </trkpt>
      <trkpt lat="45.04302" lon="6.48948">
        <ele>2490.43</ele>
        <time>2018-04-21T11:01:32Z</time>
      </trkpt>
      <trkpt lat="45.04294" lon="6.48954">
        <ele>2489.47</ele>
        <time>2018-04-21T11:01:42Z</time>
      </trkpt>
      <trkpt lat="45.04293" lon="6.48954">
        <ele>2489.47</ele>
        <time>2018-04-21T11:01:44Z</time>
      </trkpt>
      <trkpt lat="45.04277" lon="6.48952">
        <ele>2486.59</ele>
        <time>2018-04-21T11:01:55Z</time>
      </trkpt>
      <trkpt lat="45.04275" lon="6.48952">
        <ele>2486.11</ele>
        <time>2018-04-21T11:02:07Z</time>
      </trkpt>
      <trkpt lat="45.04277" lon="6.48953">
        <ele>2486.11</ele>
        <time>2018-04-21T11:02:20Z</time>
      </trkpt>
      <trkpt lat="45.04281" lon="6.48951">
        <ele>2485.63</ele>
        <time>2018-04-21T11:02:31Z</time>
      </trkpt>
      <trkpt lat="45.04284" lon="6.48945">
        <ele>2485.15</ele>
        <time>2018-04-21T11:02:47Z</time>
      </trkpt>
      <trkpt lat="45.04284" lon="6.48946">
        <ele>2485.15</ele>
        <time>2018-04-21T11:03:02Z</time>
      </trkpt>
      <trkpt lat="45.04289" lon="6.48939">
        <ele>2483.7</ele>
        <time>2018-04-21T11:03:05Z</time>
      </trkpt>
      <trkpt lat="45.04286" lon="6.48927">
        <ele>2480.34</ele>
        <time>2018-04-21T11:03:08Z</time>
      </trkpt>
      <trkpt lat="45.04287" lon="6.48917">
        <ele>2476.97</ele>
        <time>2018-04-21T11:03:10Z</time>
      </trkpt>
      <trkpt lat="45.04288" lon="6.48901">
        <ele>2472.17</ele>
        <time>2018-04-21T11:03:13Z</time>
      </trkpt>
      <trkpt lat="45.04286" lon="6.48891">
        <ele>2468.32</ele>
        <time>2018-04-21T11:03:15Z</time>
      </trkpt>
      <trkpt lat="45.04282" lon="6.48867">
        <ele>2460.63</ele>
        <time>2018-04-21T11:03:20Z</time>
      </trkpt>
      <trkpt lat="45.04283" lon="6.48856">
        <ele>2457.27</ele>
        <time>2018-04-21T11:03:22Z</time>
      </trkpt>
      <trkpt lat="45.04279" lon="6.48846">
        <ele>2454.38</ele>
        <time>2018-04-21T11:03:24Z</time>
      </trkpt>
      <trkpt lat="45.04282" lon="6.48835">
        <ele>2450.06</ele>
        <time>2018-04-21T11:03:26Z</time>
      </trkpt>
      <trkpt lat="45.04285" lon="6.48831">
        <ele>2449.58</ele>
        <time>2018-04-21T11:03:27Z</time>
      </trkpt>
      <trkpt lat="45.04292" lon="6.48824">
        <ele>2447.65</ele>
        <time>2018-04-21T11:03:30Z</time>
      </trkpt>
      <trkpt lat="45.04292" lon="6.48822">
        <ele>2447.65</ele>
        <time>2018-04-21T11:03:31Z</time>
      </trkpt>
      <trkpt lat="45.04285" lon="6.48815">
        <ele>2445.73</ele>
        <time>2018-04-21T11:03:35Z</time>
      </trkpt>
      <trkpt lat="45.04257" lon="6.48794">
        <ele>2439.48</ele>
        <time>2018-04-21T11:03:40Z</time>
      </trkpt>
      <trkpt lat="45.04238" lon="6.48794">
        <ele>2436.12</ele>
        <time>2018-04-21T11:03:42Z</time>
      </trkpt>
      <trkpt lat="45.04223" lon="6.48791">
        <ele>2435.16</ele>
        <time>2018-04-21T11:03:44Z</time>
      </trkpt>
      <trkpt lat="45.04217" lon="6.48789">
        <ele>2434.68</ele>
        <time>2018-04-21T11:03:45Z</time>
      </trkpt>
      <trkpt lat="45.04189" lon="6.48767">
        <ele>2430.35</ele>
        <time>2018-04-21T11:03:50Z</time>
      </trkpt>
      <trkpt lat="45.04181" lon="6.48765">
        <ele>2429.39</ele>
        <time>2018-04-21T11:03:51Z</time>
      </trkpt>
      <trkpt lat="45.04168" lon="6.48763">
        <ele>2427.95</ele>
        <time>2018-04-21T11:03:53Z</time>
      </trkpt>
      <trkpt lat="45.0415" lon="6.48748">
        <ele>2426.02</ele>
        <time>2018-04-21T11:03:58Z</time>
      </trkpt>
      <trkpt lat="45.04128" lon="6.48723">
        <ele>2425.06</ele>
        <time>2018-04-21T11:04:11Z</time>
      </trkpt>
      <trkpt lat="45.04108" lon="6.48694">
        <ele>2423.62</ele>
        <time>2018-04-21T11:04:25Z</time>
      </trkpt>
      <trkpt lat="45.04102" lon="6.48674">
        <ele>2423.62</ele>
        <time>2018-04-21T11:04:38Z</time>
      </trkpt>
      <trkpt lat="45.04088" lon="6.48653">
        <ele>2422.66</ele>
        <time>2018-04-21T11:04:52Z</time>
      </trkpt>
      <trkpt lat="45.04072" lon="6.48646">
        <ele>2422.66</ele>
        <time>2018-04-21T11:05:06Z</time>
      </trkpt>
      <trkpt lat="45.04071" lon="6.48646">
        <ele>2422.66</ele>
        <time>2018-04-21T11:05:08Z</time>
      </trkpt>
      <trkpt lat="45.04062" lon="6.48643">
        <ele>2422.66</ele>
        <time>2018-04-21T11:05:21Z</time>
      </trkpt>
      <trkpt lat="45.04055" lon="6.48638">
        <ele>2422.66</ele>
        <time>2018-04-21T11:05:33Z</time>
      </trkpt>
      <trkpt lat="45.04051" lon="6.48636">
        <ele>2422.66</ele>
        <time>2018-04-21T11:05:38Z</time>
      </trkpt>
      <trkpt lat="45.04046" lon="6.48634">
        <ele>2422.66</ele>
        <time>2018-04-21T11:05:42Z</time>
      </trkpt>
      <trkpt lat="45.0403" lon="6.48629">
        <ele>2421.7</ele>
        <time>2018-04-21T11:05:58Z</time>
      </trkpt>
      <trkpt lat="45.04023" lon="6.48629">
        <ele>2421.7</ele>
        <time>2018-04-21T11:06:06Z</time>
      </trkpt>
      <trkpt lat="45.04015" lon="6.48627">
        <ele>2421.7</ele>
        <time>2018-04-21T11:06:16Z</time>
      </trkpt>
      <trkpt lat="45.04009" lon="6.48626">
        <ele>2421.7</ele>
        <time>2018-04-21T11:06:22Z</time>
      </trkpt>
      <trkpt lat="45.03997" lon="6.48623">
        <ele>2421.22</ele>
        <time>2018-04-21T11:06:37Z</time>
      </trkpt>
      <trkpt lat="45.03993" lon="6.48623">
        <ele>2422.66</ele>
        <time>2018-04-21T11:06:50Z</time>
      </trkpt>
      <trkpt lat="45.03994" lon="6.48623">
        <ele>2421.22</ele>
        <time>2018-04-21T11:07:06Z</time>
      </trkpt>
      <trkpt lat="45.03991" lon="6.48625">
        <ele>2420.26</ele>
        <time>2018-04-21T11:07:37Z</time>
      </trkpt>
      <trkpt lat="45.03991" lon="6.48623">
        <ele>2420.26</ele>
        <time>2018-04-21T11:08:13Z</time>
      </trkpt>
      <trkpt lat="45.03993" lon="6.48624">
        <ele>2420.74</ele>
        <time>2018-04-21T11:08:31Z</time>
      </trkpt>
      <trkpt lat="45.03989" lon="6.48626">
        <ele>2420.74</ele>
        <time>2018-04-21T11:08:47Z</time>
      </trkpt>
      <trkpt lat="45.03983" lon="6.48621">
        <ele>2420.74</ele>
        <time>2018-04-21T11:09:00Z</time>
      </trkpt>
      <trkpt lat="45.03956" lon="6.48605">
        <ele>2417.37</ele>
        <time>2018-04-21T11:09:11Z</time>
      </trkpt>
      <trkpt lat="45.03917" lon="6.4859">
        <ele>2414.49</ele>
        <time>2018-04-21T11:09:22Z</time>
      </trkpt>
      <trkpt lat="45.0389" lon="6.48577">
        <ele>2412.09</ele>
        <time>2018-04-21T11:09:33Z</time>
      </trkpt>
      <trkpt lat="45.03887" lon="6.48579">
        <ele>2411.6</ele>
        <time>2018-04-21T11:09:49Z</time>
      </trkpt>
      <trkpt lat="45.03887" lon="6.48576">
        <ele>2411.6</ele>
        <time>2018-04-21T11:09:54Z</time>
      </trkpt>
      <trkpt lat="45.03872" lon="6.48571">
        <ele>2408.24</ele>
        <time>2018-04-21T11:10:04Z</time>
      </trkpt>
      <trkpt lat="45.03877" lon="6.48555">
        <ele>2404.39</ele>
        <time>2018-04-21T11:10:08Z</time>
      </trkpt>
      <trkpt lat="45.03872" lon="6.48555">
        <ele>2402.95</ele>
        <time>2018-04-21T11:10:18Z</time>
      </trkpt>
      <trkpt lat="45.03871" lon="6.48555">
        <ele>2402.95</ele>
        <time>2018-04-21T11:10:42Z</time>
      </trkpt>
      <trkpt lat="45.0387" lon="6.48555">
        <ele>2402.95</ele>
        <time>2018-04-21T11:10:47Z</time>
      </trkpt>
      <trkpt lat="45.03864" lon="6.48554">
        <ele>2402.47</ele>
        <time>2018-04-21T11:10:51Z</time>
      </trkpt>
      <trkpt lat="45.03861" lon="6.4855">
        <ele>2399.59</ele>
        <time>2018-04-21T11:10:53Z</time>
      </trkpt>
      <trkpt lat="45.03857" lon="6.48542">
        <ele>2395.74</ele>
        <time>2018-04-21T11:10:56Z</time>
      </trkpt>
      <trkpt lat="45.0385" lon="6.48545">
        <ele>2394.78</ele>
        <time>2018-04-21T11:10:58Z</time>
      </trkpt>
      <trkpt lat="45.03845" lon="6.48538">
        <ele>2390.46</ele>
        <time>2018-04-21T11:11:01Z</time>
      </trkpt>
      <trkpt lat="45.03846" lon="6.48527">
        <ele>2385.17</ele>
        <time>2018-04-21T11:11:03Z</time>
      </trkpt>
      <trkpt lat="45.03847" lon="6.4851">
        <ele>2380.84</ele>
        <time>2018-04-21T11:11:06Z</time>
      </trkpt>
      <trkpt lat="45.03834" lon="6.48512">
        <ele>2377.96</ele>
        <time>2018-04-21T11:11:09Z</time>
      </trkpt>
      <trkpt lat="45.0382" lon="6.4852">
        <ele>2375.55</ele>
        <time>2018-04-21T11:11:12Z</time>
      </trkpt>
      <trkpt lat="45.03807" lon="6.48531">
        <ele>2373.15</ele>
        <time>2018-04-21T11:11:15Z</time>
      </trkpt>
      <trkpt lat="45.03787" lon="6.48537">
        <ele>2366.9</ele>
        <time>2018-04-21T11:11:20Z</time>
      </trkpt>
      <trkpt lat="45.03761" lon="6.48527">
        <ele>2361.62</ele>
        <time>2018-04-21T11:11:25Z</time>
      </trkpt>
      <trkpt lat="45.03746" lon="6.48534">
        <ele>2356.81</ele>
        <time>2018-04-21T11:11:29Z</time>
      </trkpt>
      <trkpt lat="45.03738" lon="6.48532">
        <ele>2353.44</ele>
        <time>2018-04-21T11:11:32Z</time>
      </trkpt>
      <trkpt lat="45.03723" lon="6.48542">
        <ele>2350.56</ele>
        <time>2018-04-21T11:11:36Z</time>
      </trkpt>
      <trkpt lat="45.03697" lon="6.48552">
        <ele>2342.87</ele>
        <time>2018-04-21T11:11:40Z</time>
      </trkpt>
      <trkpt lat="45.0369" lon="6.48553">
        <ele>2339.51</ele>
        <time>2018-04-21T11:11:41Z</time>
      </trkpt>
      <trkpt lat="45.03678" lon="6.48565">
        <ele>2336.62</ele>
        <time>2018-04-21T11:11:43Z</time>
      </trkpt>
      <trkpt lat="45.03661" lon="6.48585">
        <ele>2334.22</ele>
        <time>2018-04-21T11:11:47Z</time>
      </trkpt>
      <trkpt lat="45.03648" lon="6.48591">
        <ele>2331.81</ele>
        <time>2018-04-21T11:11:52Z</time>
      </trkpt>
      <trkpt lat="45.03648" lon="6.48591">
        <ele>2331.81</ele>
        <time>2018-04-21T11:12:09Z</time>
      </trkpt>
      <trkpt lat="45.03648" lon="6.48592">
        <ele>2331.81</ele>
        <time>2018-04-21T11:12:27Z</time>
      </trkpt>
      <trkpt lat="45.03648" lon="6.48591">
        <ele>2331.33</ele>
        <time>2018-04-21T11:12:46Z</time>
      </trkpt>
      <trkpt lat="45.03648" lon="6.48592">
        <ele>2331.81</ele>
        <time>2018-04-21T11:12:58Z</time>
      </trkpt>
      <trkpt lat="45.03648" lon="6.48593">
        <ele>2331.33</ele>
        <time>2018-04-21T11:13:15Z</time>
      </trkpt>
      <trkpt lat="45.03624" lon="6.48618">
        <ele>2327.97</ele>
        <time>2018-04-21T11:13:26Z</time>
      </trkpt>
      <trkpt lat="45.036" lon="6.48637">
        <ele>2324.61</ele>
        <time>2018-04-21T11:13:33Z</time>
      </trkpt>
      <trkpt lat="45.0358" lon="6.48651">
        <ele>2321.24</ele>
        <time>2018-04-21T11:13:39Z</time>
      </trkpt>
      <trkpt lat="45.0356" lon="6.48666">
        <ele>2317.88</ele>
        <time>2018-04-21T11:13:44Z</time>
      </trkpt>
      <trkpt lat="45.03542" lon="6.48675">
        <ele>2314.51</ele>
        <time>2018-04-21T11:13:49Z</time>
      </trkpt>
      <trkpt lat="45.03517" lon="6.48684">
        <ele>2312.11</ele>
        <time>2018-04-21T11:14:03Z</time>
      </trkpt>
      <trkpt lat="45.03492" lon="6.48699">
        <ele>2309.22</ele>
        <time>2018-04-21T11:14:16Z</time>
      </trkpt>
      <trkpt lat="45.03473" lon="6.48716">
        <ele>2305.86</ele>
        <time>2018-04-21T11:14:29Z</time>
      </trkpt>
      <trkpt lat="45.03474" lon="6.48718">
        <ele>2305.86</ele>
        <time>2018-04-21T11:14:39Z</time>
      </trkpt>
      <trkpt lat="45.0346" lon="6.48731">
        <ele>2303.46</ele>
        <time>2018-04-21T11:14:51Z</time>
      </trkpt>
      <trkpt lat="45.03438" lon="6.48749">
        <ele>2300.57</ele>
        <time>2018-04-21T11:14:58Z</time>
      </trkpt>
      <trkpt lat="45.03435" lon="6.48751">
        <ele>2300.09</ele>
        <time>2018-04-21T11:14:59Z</time>
      </trkpt>
      <trkpt lat="45.03412" lon="6.48755">
        <ele>2298.65</ele>
        <time>2018-04-21T11:15:12Z</time>
      </trkpt>
      <trkpt lat="45.03376" lon="6.48763">
        <ele>2295.77</ele>
        <time>2018-04-21T11:15:25Z</time>
      </trkpt>
      <trkpt lat="45.03342" lon="6.48775">
        <ele>2292.4</ele>
        <time>2018-04-21T11:15:38Z</time>
      </trkpt>
      <trkpt lat="45.03327" lon="6.48786">
        <ele>2290.48</ele>
        <time>2018-04-21T11:15:43Z</time>
      </trkpt>
      <trkpt lat="45.03303" lon="6.48793">
        <ele>2286.63</ele>
        <time>2018-04-21T11:15:48Z</time>
      </trkpt>
      <trkpt lat="45.03264" lon="6.48765">
        <ele>2282.79</ele>
        <time>2018-04-21T11:15:59Z</time>
      </trkpt>
      <trkpt lat="45.03246" lon="6.48751">
        <ele>2280.38</ele>
        <time>2018-04-21T11:16:05Z</time>
      </trkpt>
      <trkpt lat="45.03215" lon="6.48726">
        <ele>2277.5</ele>
        <time>2018-04-21T11:16:14Z</time>
      </trkpt>
      <trkpt lat="45.03192" lon="6.48707">
        <ele>2273.66</ele>
        <time>2018-04-21T11:16:20Z</time>
      </trkpt>
      <trkpt lat="45.03177" lon="6.48691">
        <ele>2271.73</ele>
        <time>2018-04-21T11:16:25Z</time>
      </trkpt>
      <trkpt lat="45.03156" lon="6.4866">
        <ele>2268.85</ele>
        <time>2018-04-21T11:16:35Z</time>
      </trkpt>
      <trkpt lat="45.03133" lon="6.48615">
        <ele>2265.96</ele>
        <time>2018-04-21T11:16:47Z</time>
      </trkpt>
      <trkpt lat="45.03108" lon="6.48587">
        <ele>2264.04</ele>
        <time>2018-04-21T11:17:03Z</time>
      </trkpt>
      <trkpt lat="45.03092" lon="6.48574">
        <ele>2263.08</ele>
        <time>2018-04-21T11:17:18Z</time>
      </trkpt>
      <trkpt lat="45.03088" lon="6.48573">
        <ele>2262.6</ele>
        <time>2018-04-21T11:17:31Z</time>
      </trkpt>
      <trkpt lat="45.03084" lon="6.48573">
        <ele>2262.6</ele>
        <time>2018-04-21T11:17:42Z</time>
      </trkpt>
      <trkpt lat="45.03081" lon="6.48574">
        <ele>2262.6</ele>
        <time>2018-04-21T11:17:49Z</time>
      </trkpt>
      <trkpt lat="45.03083" lon="6.48573">
        <ele>2262.12</ele>
        <time>2018-04-21T11:18:00Z</time>
      </trkpt>
      <trkpt lat="45.03084" lon="6.48574">
        <ele>2262.12</ele>
        <time>2018-04-21T11:18:13Z</time>
      </trkpt>
      <trkpt lat="45.03084" lon="6.48568">
        <ele>2262.12</ele>
        <time>2018-04-21T11:18:27Z</time>
      </trkpt>
      <trkpt lat="45.03081" lon="6.48551">
        <ele>2259.72</ele>
        <time>2018-04-21T11:18:33Z</time>
      </trkpt>
      <trkpt lat="45.0308" lon="6.48537">
        <ele>2256.35</ele>
        <time>2018-04-21T11:18:37Z</time>
      </trkpt>
      <trkpt lat="45.03068" lon="6.48541">
        <ele>2254.91</ele>
        <time>2018-04-21T11:18:48Z</time>
      </trkpt>
      <trkpt lat="45.03067" lon="6.48541">
        <ele>2254.91</ele>
        <time>2018-04-21T11:18:49Z</time>
      </trkpt>
      <trkpt lat="45.03062" lon="6.48566">
        <ele>2251.06</ele>
        <time>2018-04-21T11:18:54Z</time>
      </trkpt>
      <trkpt lat="45.03049" lon="6.48591">
        <ele>2247.22</ele>
        <time>2018-04-21T11:18:59Z</time>
      </trkpt>
      <trkpt lat="45.03044" lon="6.48593">
        <ele>2246.26</ele>
        <time>2018-04-21T11:19:01Z</time>
      </trkpt>
      <trkpt lat="45.03014" lon="6.48596">
        <ele>2243.37</ele>
        <time>2018-04-21T11:19:11Z</time>
      </trkpt>
      <trkpt lat="45.02986" lon="6.48595">
        <ele>2240.01</ele>
        <time>2018-04-21T11:19:19Z</time>
      </trkpt>
      <trkpt lat="45.02962" lon="6.48592">
        <ele>2237.13</ele>
        <time>2018-04-21T11:19:25Z</time>
      </trkpt>
      <trkpt lat="45.02955" lon="6.48591">
        <ele>2236.16</ele>
        <time>2018-04-21T11:19:27Z</time>
      </trkpt>
      <trkpt lat="45.02939" lon="6.48585">
        <ele>2233.76</ele>
        <time>2018-04-21T11:19:31Z</time>
      </trkpt>
      <trkpt lat="45.02927" lon="6.48575">
        <ele>2231.84</ele>
        <time>2018-04-21T11:19:35Z</time>
      </trkpt>
      <trkpt lat="45.02911" lon="6.48551">
        <ele>2230.4</ele>
        <time>2018-04-21T11:19:48Z</time>
      </trkpt>
      <trkpt lat="45.02912" lon="6.48551">
        <ele>2230.4</ele>
        <time>2018-04-21T11:20:09Z</time>
      </trkpt>
      <trkpt lat="45.02912" lon="6.48549">
        <ele>2229.92</ele>
        <time>2018-04-21T11:20:23Z</time>
      </trkpt>
      <trkpt lat="45.02908" lon="6.48526">
        <ele>2227.51</ele>
        <time>2018-04-21T11:20:29Z</time>
      </trkpt>
      <trkpt lat="45.02907" lon="6.48513">
        <ele>2226.07</ele>
        <time>2018-04-21T11:20:31Z</time>
      </trkpt>
      <trkpt lat="45.029" lon="6.48473">
        <ele>2222.22</ele>
        <time>2018-04-21T11:20:37Z</time>
      </trkpt>
      <trkpt lat="45.029" lon="6.48466">
        <ele>2221.26</ele>
        <time>2018-04-21T11:20:38Z</time>
      </trkpt>
      <trkpt lat="45.02899" lon="6.48427">
        <ele>2217.9</ele>
        <time>2018-04-21T11:20:43Z</time>
      </trkpt>
      <trkpt lat="45.02899" lon="6.48386">
        <ele>2212.13</ele>
        <time>2018-04-21T11:20:50Z</time>
      </trkpt>
      <trkpt lat="45.029" lon="6.48363">
        <ele>2209.25</ele>
        <time>2018-04-21T11:20:56Z</time>
      </trkpt>
      <trkpt lat="45.02901" lon="6.48354">
        <ele>2208.29</ele>
        <time>2018-04-21T11:21:00Z</time>
      </trkpt>
      <trkpt lat="45.02903" lon="6.48326">
        <ele>2205.88</ele>
        <time>2018-04-21T11:21:14Z</time>
      </trkpt>
      <trkpt lat="45.02905" lon="6.483">
        <ele>2202.52</ele>
        <time>2018-04-21T11:21:21Z</time>
      </trkpt>
      <trkpt lat="45.02895" lon="6.48284">
        <ele>2200.59</ele>
        <time>2018-04-21T11:21:29Z</time>
      </trkpt>
      <trkpt lat="45.0289" lon="6.48272">
        <ele>2199.63</ele>
        <time>2018-04-21T11:21:35Z</time>
      </trkpt>
      <trkpt lat="45.02898" lon="6.48258">
        <ele>2196.27</ele>
        <time>2018-04-21T11:21:40Z</time>
      </trkpt>
      <trkpt lat="45.02907" lon="6.48259">
        <ele>2195.31</ele>
        <time>2018-04-21T11:21:43Z</time>
      </trkpt>
      <trkpt lat="45.0291" lon="6.4824">
        <ele>2190.5</ele>
        <time>2018-04-21T11:21:47Z</time>
      </trkpt>
      <trkpt lat="45.02907" lon="6.48229">
        <ele>2189.06</ele>
        <time>2018-04-21T11:21:50Z</time>
      </trkpt>
      <trkpt lat="45.02911" lon="6.48218">
        <ele>2184.25</ele>
        <time>2018-04-21T11:21:53Z</time>
      </trkpt>
      <trkpt lat="45.0291" lon="6.48202">
        <ele>2180.89</ele>
        <time>2018-04-21T11:21:56Z</time>
      </trkpt>
      <trkpt lat="45.02902" lon="6.48187">
        <ele>2177.52</ele>
        <time>2018-04-21T11:22:01Z</time>
      </trkpt>
      <trkpt lat="45.02899" lon="6.48176">
        <ele>2176.08</ele>
        <time>2018-04-21T11:22:13Z</time>
      </trkpt>
      <trkpt lat="45.02878" lon="6.48177">
        <ele>2176.56</ele>
        <time>2018-04-21T11:22:33Z</time>
      </trkpt>
      <trkpt lat="45.0287" lon="6.48177">
        <ele>2176.08</ele>
        <time>2018-04-21T11:22:51Z</time>
      </trkpt>
      <trkpt lat="45.0287" lon="6.48179">
        <ele>2176.08</ele>
        <time>2018-04-21T11:23:09Z</time>
      </trkpt>
      <trkpt lat="45.02851" lon="6.48171">
        <ele>2172.24</ele>
        <time>2018-04-21T11:23:19Z</time>
      </trkpt>
      <trkpt lat="45.02835" lon="6.48171">
        <ele>2169.35</ele>
        <time>2018-04-21T11:23:24Z</time>
      </trkpt>
      <trkpt lat="45.02828" lon="6.48171">
        <ele>2167.91</ele>
        <time>2018-04-21T11:23:26Z</time>
      </trkpt>
      <trkpt lat="45.02826" lon="6.48159">
        <ele>2163.1</ele>
        <time>2018-04-21T11:23:29Z</time>
      </trkpt>
      <trkpt lat="45.02826" lon="6.48147">
        <ele>2159.74</ele>
        <time>2018-04-21T11:23:31Z</time>
      </trkpt>
      <trkpt lat="45.02818" lon="6.4814">
        <ele>2156.86</ele>
        <time>2018-04-21T11:23:33Z</time>
      </trkpt>
      <trkpt lat="45.02811" lon="6.48128">
        <ele>2153.49</ele>
        <time>2018-04-21T11:23:36Z</time>
      </trkpt>
      <trkpt lat="45.02817" lon="6.48116">
        <ele>2149.16</ele>
        <time>2018-04-21T11:23:39Z</time>
      </trkpt>
      <trkpt lat="45.02812" lon="6.4811">
        <ele>2146.28</ele>
        <time>2018-04-21T11:23:41Z</time>
      </trkpt>
      <trkpt lat="45.0281" lon="6.48109">
        <ele>2145.8</ele>
        <time>2018-04-21T11:23:42Z</time>
      </trkpt>
      <trkpt lat="45.02805" lon="6.48111">
        <ele>2146.76</ele>
        <time>2018-04-21T11:23:51Z</time>
      </trkpt>
      <trkpt lat="45.02796" lon="6.48104">
        <ele>2144.84</ele>
        <time>2018-04-21T11:23:56Z</time>
      </trkpt>
      <trkpt lat="45.02789" lon="6.48102">
        <ele>2143.4</ele>
        <time>2018-04-21T11:23:58Z</time>
      </trkpt>
      <trkpt lat="45.02786" lon="6.48087">
        <ele>2139.55</ele>
        <time>2018-04-21T11:24:01Z</time>
      </trkpt>
      <trkpt lat="45.02792" lon="6.48079">
        <ele>2136.67</ele>
        <time>2018-04-21T11:24:03Z</time>
      </trkpt>
      <trkpt lat="45.02791" lon="6.48067">
        <ele>2132.82</ele>
        <time>2018-04-21T11:24:06Z</time>
      </trkpt>
      <trkpt lat="45.0278" lon="6.48059">
        <ele>2128.98</ele>
        <time>2018-04-21T11:24:09Z</time>
      </trkpt>
      <trkpt lat="45.0278" lon="6.4805">
        <ele>2126.09</ele>
        <time>2018-04-21T11:24:11Z</time>
      </trkpt>
      <trkpt lat="45.02783" lon="6.48036">
        <ele>2122.73</ele>
        <time>2018-04-21T11:24:15Z</time>
      </trkpt>
      <trkpt lat="45.02782" lon="6.48035">
        <ele>2122.25</ele>
        <time>2018-04-21T11:24:16Z</time>
      </trkpt>
      <trkpt lat="45.02779" lon="6.48035">
        <ele>2122.25</ele>
        <time>2018-04-21T11:24:18Z</time>
      </trkpt>
      <trkpt lat="45.02764" lon="6.48032">
        <ele>2118.88</ele>
        <time>2018-04-21T11:24:24Z</time>
      </trkpt>
      <trkpt lat="45.02744" lon="6.4802">
        <ele>2115.04</ele>
        <time>2018-04-21T11:24:31Z</time>
      </trkpt>
      <trkpt lat="45.02743" lon="6.48">
        <ele>2110.23</ele>
        <time>2018-04-21T11:24:35Z</time>
      </trkpt>
      <trkpt lat="45.02729" lon="6.47992">
        <ele>2106.87</ele>
        <time>2018-04-21T11:24:39Z</time>
      </trkpt>
      <trkpt lat="45.02729" lon="6.47979">
        <ele>2103.5</ele>
        <time>2018-04-21T11:24:42Z</time>
      </trkpt>
      <trkpt lat="45.02727" lon="6.47964">
        <ele>2099.66</ele>
        <time>2018-04-21T11:24:45Z</time>
      </trkpt>
      <trkpt lat="45.02722" lon="6.47965">
        <ele>2099.18</ele>
        <time>2018-04-21T11:24:47Z</time>
      </trkpt>
      <trkpt lat="45.02718" lon="6.47967">
        <ele>2101.1</ele>
        <time>2018-04-21T11:25:01Z</time>
      </trkpt>
      <trkpt lat="45.02719" lon="6.47967">
        <ele>2099.18</ele>
        <time>2018-04-21T11:25:23Z</time>
      </trkpt>
      <trkpt lat="45.02716" lon="6.47966">
        <ele>2099.18</ele>
        <time>2018-04-21T11:25:40Z</time>
      </trkpt>
      <trkpt lat="45.02691" lon="6.47967">
        <ele>2096.29</ele>
        <time>2018-04-21T11:25:52Z</time>
      </trkpt>
      <trkpt lat="45.02678" lon="6.4797">
        <ele>2093.89</ele>
        <time>2018-04-21T11:25:57Z</time>
      </trkpt>
      <trkpt lat="45.02659" lon="6.4797">
        <ele>2089.08</ele>
        <time>2018-04-21T11:26:01Z</time>
      </trkpt>
      <trkpt lat="45.0265" lon="6.47969">
        <ele>2087.64</ele>
        <time>2018-04-21T11:26:03Z</time>
      </trkpt>
      <trkpt lat="45.02636" lon="6.47962">
        <ele>2085.24</ele>
        <time>2018-04-21T11:26:07Z</time>
      </trkpt>
      <trkpt lat="45.02639" lon="6.47952">
        <ele>2081.87</ele>
        <time>2018-04-21T11:26:09Z</time>
      </trkpt>
      <trkpt lat="45.02636" lon="6.47941">
        <ele>2078.51</ele>
        <time>2018-04-21T11:26:11Z</time>
      </trkpt>
      <trkpt lat="45.02637" lon="6.47929">
        <ele>2074.66</ele>
        <time>2018-04-21T11:26:13Z</time>
      </trkpt>
      <trkpt lat="45.02637" lon="6.47913">
        <ele>2070.34</ele>
        <time>2018-04-21T11:26:15Z</time>
      </trkpt>
      <trkpt lat="45.02625" lon="6.47899">
        <ele>2066.49</ele>
        <time>2018-04-21T11:26:18Z</time>
      </trkpt>
      <trkpt lat="45.02626" lon="6.47886">
        <ele>2062.65</ele>
        <time>2018-04-21T11:26:20Z</time>
      </trkpt>
      <trkpt lat="45.02624" lon="6.47873">
        <ele>2058.8</ele>
        <time>2018-04-21T11:26:22Z</time>
      </trkpt>
      <trkpt lat="45.0262" lon="6.47868">
        <ele>2057.84</ele>
        <time>2018-04-21T11:26:23Z</time>
      </trkpt>
      <trkpt lat="45.02611" lon="6.4786">
        <ele>2055.92</ele>
        <time>2018-04-21T11:26:25Z</time>
      </trkpt>
      <trkpt lat="45.02608" lon="6.4784">
        <ele>2050.63</ele>
        <time>2018-04-21T11:26:28Z</time>
      </trkpt>
      <trkpt lat="45.02603" lon="6.47827">
        <ele>2047.75</ele>
        <time>2018-04-21T11:26:30Z</time>
      </trkpt>
      <trkpt lat="45.02592" lon="6.4782">
        <ele>2046.78</ele>
        <time>2018-04-21T11:26:38Z</time>
      </trkpt>
      <trkpt lat="45.02591" lon="6.4782">
        <ele>2047.26</ele>
        <time>2018-04-21T11:26:56Z</time>
      </trkpt>
      <trkpt lat="45.02591" lon="6.47819">
        <ele>2047.26</ele>
        <time>2018-04-21T11:27:07Z</time>
      </trkpt>
      <trkpt lat="45.02586" lon="6.47808">
        <ele>2044.86</ele>
        <time>2018-04-21T11:27:11Z</time>
      </trkpt>
      <trkpt lat="45.02578" lon="6.47795">
        <ele>2042.46</ele>
        <time>2018-04-21T11:27:14Z</time>
      </trkpt>
      <trkpt lat="45.02577" lon="6.47775">
        <ele>2037.65</ele>
        <time>2018-04-21T11:27:17Z</time>
      </trkpt>
      <trkpt lat="45.02573" lon="6.4776">
        <ele>2033.81</ele>
        <time>2018-04-21T11:27:19Z</time>
      </trkpt>
      <trkpt lat="45.02573" lon="6.47744">
        <ele>2030.44</ele>
        <time>2018-04-21T11:27:21Z</time>
      </trkpt>
      <trkpt lat="45.02568" lon="6.4773">
        <ele>2027.08</ele>
        <time>2018-04-21T11:27:23Z</time>
      </trkpt>
      <trkpt lat="45.02567" lon="6.47717">
        <ele>2024.19</ele>
        <time>2018-04-21T11:27:25Z</time>
      </trkpt>
      <trkpt lat="45.02566" lon="6.47702">
        <ele>2021.31</ele>
        <time>2018-04-21T11:27:27Z</time>
      </trkpt>
      <trkpt lat="45.0256" lon="6.4767">
        <ele>2014.58</ele>
        <time>2018-04-21T11:27:31Z</time>
      </trkpt>
      <trkpt lat="45.02552" lon="6.4766">
        <ele>2011.7</ele>
        <time>2018-04-21T11:27:33Z</time>
      </trkpt>
      <trkpt lat="45.02544" lon="6.47656">
        <ele>2011.22</ele>
        <time>2018-04-21T11:27:35Z</time>
      </trkpt>
      <trkpt lat="45.02544" lon="6.47651">
        <ele>2008.81</ele>
        <time>2018-04-21T11:27:38Z</time>
      </trkpt>
      <trkpt lat="45.02543" lon="6.4765">
        <ele>2008.81</ele>
        <time>2018-04-21T11:27:55Z</time>
      </trkpt>
      <trkpt lat="45.02546" lon="6.4765">
        <ele>2008.81</ele>
        <time>2018-04-21T11:28:16Z</time>
      </trkpt>
      <trkpt lat="45.02545" lon="6.47651">
        <ele>2008.33</ele>
        <time>2018-04-21T11:28:33Z</time>
      </trkpt>
      <trkpt lat="45.02546" lon="6.47649">
        <ele>2008.33</ele>
        <time>2018-04-21T11:28:48Z</time>
      </trkpt>
      <trkpt lat="45.02549" lon="6.47617">
        <ele>2003.52</ele>
        <time>2018-04-21T11:28:53Z</time>
      </trkpt>
      <trkpt lat="45.02547" lon="6.476">
        <ele>2000.64</ele>
        <time>2018-04-21T11:28:55Z</time>
      </trkpt>
      <trkpt lat="45.02548" lon="6.4757">
        <ele>1994.39</ele>
        <time>2018-04-21T11:28:59Z</time>
      </trkpt>
      <trkpt lat="45.02548" lon="6.47561">
        <ele>1992.95</ele>
        <time>2018-04-21T11:29:00Z</time>
      </trkpt>
      <trkpt lat="45.02551" lon="6.47549">
        <ele>1991.51</ele>
        <time>2018-04-21T11:29:01Z</time>
      </trkpt>
      <trkpt lat="45.02543" lon="6.47524">
        <ele>1986.22</ele>
        <time>2018-04-21T11:29:04Z</time>
      </trkpt>
      <trkpt lat="45.02533" lon="6.47501">
        <ele>1982.38</ele>
        <time>2018-04-21T11:29:07Z</time>
      </trkpt>
      <trkpt lat="45.02523" lon="6.47478">
        <ele>1979.01</ele>
        <time>2018-04-21T11:29:10Z</time>
      </trkpt>
      <trkpt lat="45.02517" lon="6.47465">
        <ele>1977.09</ele>
        <time>2018-04-21T11:29:12Z</time>
      </trkpt>
      <trkpt lat="45.02508" lon="6.4745">
        <ele>1975.65</ele>
        <time>2018-04-21T11:29:20Z</time>
      </trkpt>
      <trkpt lat="45.02506" lon="6.47452">
        <ele>1974.69</ele>
        <time>2018-04-21T11:29:33Z</time>
      </trkpt>
      <trkpt lat="45.02506" lon="6.47451">
        <ele>1974.2</ele>
        <time>2018-04-21T11:30:10Z</time>
      </trkpt>
      <trkpt lat="45.02507" lon="6.47453">
        <ele>1975.17</ele>
        <time>2018-04-21T11:30:28Z</time>
      </trkpt>
      <trkpt lat="45.02505" lon="6.4745">
        <ele>1974.69</ele>
        <time>2018-04-21T11:30:45Z</time>
      </trkpt>
      <trkpt lat="45.02506" lon="6.47449">
        <ele>1974.69</ele>
        <time>2018-04-21T11:30:54Z</time>
      </trkpt>
      <trkpt lat="45.02495" lon="6.47421">
        <ele>1971.8</ele>
        <time>2018-04-21T11:31:02Z</time>
      </trkpt>
      <trkpt lat="45.02485" lon="6.47398">
        <ele>1968.44</ele>
        <time>2018-04-21T11:31:07Z</time>
      </trkpt>
      <trkpt lat="45.02468" lon="6.47371">
        <ele>1965.07</ele>
        <time>2018-04-21T11:31:15Z</time>
      </trkpt>
      <trkpt lat="45.02451" lon="6.47349">
        <ele>1961.23</ele>
        <time>2018-04-21T11:31:21Z</time>
      </trkpt>
      <trkpt lat="45.02437" lon="6.47326">
        <ele>1957.86</ele>
        <time>2018-04-21T11:31:25Z</time>
      </trkpt>
      <trkpt lat="45.02424" lon="6.47304">
        <ele>1954.98</ele>
        <time>2018-04-21T11:31:29Z</time>
      </trkpt>
      <trkpt lat="45.02409" lon="6.47279">
        <ele>1951.61</ele>
        <time>2018-04-21T11:31:34Z</time>
      </trkpt>
      <trkpt lat="45.02406" lon="6.47274">
        <ele>1951.13</ele>
        <time>2018-04-21T11:31:35Z</time>
      </trkpt>
      <trkpt lat="45.02395" lon="6.47249">
        <ele>1947.77</ele>
        <time>2018-04-21T11:31:39Z</time>
      </trkpt>
      <trkpt lat="45.02384" lon="6.47214">
        <ele>1942.96</ele>
        <time>2018-04-21T11:31:44Z</time>
      </trkpt>
      <trkpt lat="45.02381" lon="6.47202">
        <ele>1942.48</ele>
        <time>2018-04-21T11:31:46Z</time>
      </trkpt>
      <trkpt lat="45.02369" lon="6.47164">
        <ele>1939.12</ele>
        <time>2018-04-21T11:31:53Z</time>
      </trkpt>
      <trkpt lat="45.02346" lon="6.47125">
        <ele>1936.71</ele>
        <time>2018-04-21T11:32:06Z</time>
      </trkpt>
      <trkpt lat="45.02332" lon="6.47114">
        <ele>1935.27</ele>
        <time>2018-04-21T11:32:17Z</time>
      </trkpt>
      <trkpt lat="45.02331" lon="6.47114">
        <ele>1934.79</ele>
        <time>2018-04-21T11:32:43Z</time>
      </trkpt>
      <trkpt lat="45.02307" lon="6.471">
        <ele>1931.43</ele>
        <time>2018-04-21T11:32:54Z</time>
      </trkpt>
      <trkpt lat="45.02288" lon="6.47096">
        <ele>1929.98</ele>
        <time>2018-04-21T11:33:05Z</time>
      </trkpt>
      <trkpt lat="45.02281" lon="6.47095">
        <ele>1927.58</ele>
        <time>2018-04-21T11:33:08Z</time>
      </trkpt>
      <trkpt lat="45.02263" lon="6.47096">
        <ele>1924.22</ele>
        <time>2018-04-21T11:33:15Z</time>
      </trkpt>
      <trkpt lat="45.02243" lon="6.47093">
        <ele>1920.85</ele>
        <time>2018-04-21T11:33:25Z</time>
      </trkpt>
      <trkpt lat="45.02224" lon="6.47091">
        <ele>1917.97</ele>
        <time>2018-04-21T11:33:32Z</time>
      </trkpt>
      <trkpt lat="45.02222" lon="6.47092">
        <ele>1917.49</ele>
        <time>2018-04-21T11:33:39Z</time>
      </trkpt>
      <trkpt lat="45.02202" lon="6.47089">
        <ele>1914.12</ele>
        <time>2018-04-21T11:33:46Z</time>
      </trkpt>
      <trkpt lat="45.02184" lon="6.47081">
        <ele>1909.8</ele>
        <time>2018-04-21T11:33:50Z</time>
      </trkpt>
      <trkpt lat="45.02173" lon="6.47074">
        <ele>1907.87</ele>
        <time>2018-04-21T11:33:52Z</time>
      </trkpt>
      <trkpt lat="45.02165" lon="6.47068">
        <ele>1906.43</ele>
        <time>2018-04-21T11:33:54Z</time>
      </trkpt>
      <trkpt lat="45.02159" lon="6.47062">
        <ele>1904.99</ele>
        <time>2018-04-21T11:33:56Z</time>
      </trkpt>
      <trkpt lat="45.02143" lon="6.47047">
        <ele>1901.14</ele>
        <time>2018-04-21T11:34:02Z</time>
      </trkpt>
      <trkpt lat="45.02141" lon="6.47047">
        <ele>1901.14</ele>
        <time>2018-04-21T11:34:03Z</time>
      </trkpt>
      <trkpt lat="45.0214" lon="6.47049">
        <ele>1901.63</ele>
        <time>2018-04-21T11:34:14Z</time>
      </trkpt>
      <trkpt lat="45.02138" lon="6.47048">
        <ele>1901.14</ele>
        <time>2018-04-21T11:34:32Z</time>
      </trkpt>
      <trkpt lat="45.02124" lon="6.47047">
        <ele>1899.7</ele>
        <time>2018-04-21T11:34:44Z</time>
      </trkpt>
      <trkpt lat="45.02122" lon="6.47048">
        <ele>1899.7</ele>
        <time>2018-04-21T11:34:47Z</time>
      </trkpt>
      <trkpt lat="45.02116" lon="6.47049">
        <ele>1899.7</ele>
        <time>2018-04-21T11:34:56Z</time>
      </trkpt>
      <trkpt lat="45.02096" lon="6.47046">
        <ele>1896.34</ele>
        <time>2018-04-21T11:35:03Z</time>
      </trkpt>
      <trkpt lat="45.02063" lon="6.47048">
        <ele>1892.97</ele>
        <time>2018-04-21T11:35:14Z</time>
      </trkpt>
      <trkpt lat="45.02042" lon="6.47051">
        <ele>1891.05</ele>
        <time>2018-04-21T11:35:25Z</time>
      </trkpt>
      <trkpt lat="45.02033" lon="6.47048">
        <ele>1890.57</ele>
        <time>2018-04-21T11:35:37Z</time>
      </trkpt>
      <trkpt lat="45.02027" lon="6.47048">
        <ele>1890.57</ele>
        <time>2018-04-21T11:35:52Z</time>
      </trkpt>
      <trkpt lat="45.02023" lon="6.4705">
        <ele>1890.57</ele>
        <time>2018-04-21T11:36:04Z</time>
      </trkpt>
      <trkpt lat="45.02021" lon="6.47049">
        <ele>1890.09</ele>
        <time>2018-04-21T11:36:23Z</time>
      </trkpt>
      <trkpt lat="45.02012" lon="6.47062">
        <ele>1888.17</ele>
        <time>2018-04-21T11:36:27Z</time>
      </trkpt>
      <trkpt lat="45.02012" lon="6.4705">
        <ele>1884.32</ele>
        <time>2018-04-21T11:36:32Z</time>
      </trkpt>
      <trkpt lat="45.02013" lon="6.47048">
        <ele>1883.84</ele>
        <time>2018-04-21T11:36:33Z</time>
      </trkpt>
      <trkpt lat="45.02007" lon="6.47046">
        <ele>1881.44</ele>
        <time>2018-04-21T11:36:38Z</time>
      </trkpt>
      <trkpt lat="45.02006" lon="6.47046">
        <ele>1881.92</ele>
        <time>2018-04-21T11:36:42Z</time>
      </trkpt>
      <trkpt lat="45.02001" lon="6.47037">
        <ele>1878.07</ele>
        <time>2018-04-21T11:36:46Z</time>
      </trkpt>
      <trkpt lat="45.01997" lon="6.47021">
        <ele>1876.63</ele>
        <time>2018-04-21T11:36:49Z</time>
      </trkpt>
      <trkpt lat="45.0199" lon="6.47011">
        <ele>1872.3</ele>
        <time>2018-04-21T11:36:51Z</time>
      </trkpt>
      <trkpt lat="45.01985" lon="6.46999">
        <ele>1868.94</ele>
        <time>2018-04-21T11:36:53Z</time>
      </trkpt>
      <trkpt lat="45.01969" lon="6.46996">
        <ele>1865.09</ele>
        <time>2018-04-21T11:36:57Z</time>
      </trkpt>
      <trkpt lat="45.01951" lon="6.46983">
        <ele>1861.73</ele>
        <time>2018-04-21T11:37:03Z</time>
      </trkpt>
      <trkpt lat="45.01943" lon="6.46983">
        <ele>1860.77</ele>
        <time>2018-04-21T11:37:05Z</time>
      </trkpt>
      <trkpt lat="45.01931" lon="6.46983">
        <ele>1858.37</ele>
        <time>2018-04-21T11:37:09Z</time>
      </trkpt>
      <trkpt lat="45.0193" lon="6.46985">
        <ele>1857.89</ele>
        <time>2018-04-21T11:37:24Z</time>
      </trkpt>
      <trkpt lat="45.0193" lon="6.46985">
        <ele>1857.89</ele>
        <time>2018-04-21T11:37:28Z</time>
      </trkpt>
      <trkpt lat="45.01913" lon="6.46984">
        <ele>1855</ele>
        <time>2018-04-21T11:37:34Z</time>
      </trkpt>
      <trkpt lat="45.01902" lon="6.46982">
        <ele>1851.64</ele>
        <time>2018-04-21T11:37:38Z</time>
      </trkpt>
      <trkpt lat="45.01901" lon="6.46985">
        <ele>1851.16</ele>
        <time>2018-04-21T11:37:49Z</time>
      </trkpt>
      <trkpt lat="45.01889" lon="6.46991">
        <ele>1848.75</ele>
        <time>2018-04-21T11:37:56Z</time>
      </trkpt>
      <trkpt lat="45.01879" lon="6.47004">
        <ele>1844.43</ele>
        <time>2018-04-21T11:38:02Z</time>
      </trkpt>
      <trkpt lat="45.0188" lon="6.47002">
        <ele>1844.43</ele>
        <time>2018-04-21T11:38:14Z</time>
      </trkpt>
      <trkpt lat="45.01881" lon="6.47002">
        <ele>1844.43</ele>
        <time>2018-04-21T11:38:21Z</time>
      </trkpt>
      <trkpt lat="45.01883" lon="6.46993">
        <ele>1842.98</ele>
        <time>2018-04-21T11:38:25Z</time>
      </trkpt>
      <trkpt lat="45.01881" lon="6.46984">
        <ele>1841.06</ele>
        <time>2018-04-21T11:38:28Z</time>
      </trkpt>
      <trkpt lat="45.01881" lon="6.46985">
        <ele>1841.54</ele>
        <time>2018-04-21T11:38:49Z</time>
      </trkpt>
      <trkpt lat="45.01878" lon="6.46985">
        <ele>1841.06</ele>
        <time>2018-04-21T11:39:01Z</time>
      </trkpt>
      <trkpt lat="45.01878" lon="6.46985">
        <ele>1841.06</ele>
        <time>2018-04-21T11:39:14Z</time>
      </trkpt>
      <trkpt lat="45.01873" lon="6.46985">
        <ele>1839.62</ele>
        <time>2018-04-21T11:39:17Z</time>
      </trkpt>
      <trkpt lat="45.01862" lon="6.47009">
        <ele>1835.29</ele>
        <time>2018-04-21T11:39:24Z</time>
      </trkpt>
      <trkpt lat="45.01861" lon="6.47011">
        <ele>1834.33</ele>
        <time>2018-04-21T11:39:26Z</time>
      </trkpt>
      <trkpt lat="45.01862" lon="6.47009">
        <ele>1834.33</ele>
        <time>2018-04-21T11:39:30Z</time>
      </trkpt>
      <trkpt lat="45.0185" lon="6.47011">
        <ele>1831.45</ele>
        <time>2018-04-21T11:39:35Z</time>
      </trkpt>
      <trkpt lat="45.01847" lon="6.47011">
        <ele>1830.01</ele>
        <time>2018-04-21T11:39:38Z</time>
      </trkpt>
      <trkpt lat="45.01838" lon="6.47011">
        <ele>1829.05</ele>
        <time>2018-04-21T11:39:42Z</time>
      </trkpt>
      <trkpt lat="45.01829" lon="6.47013">
        <ele>1827.6</ele>
        <time>2018-04-21T11:39:50Z</time>
      </trkpt>
      <trkpt lat="45.01831" lon="6.47009">
        <ele>1826.16</ele>
        <time>2018-04-21T11:39:59Z</time>
      </trkpt>
      <trkpt lat="45.01831" lon="6.4701">
        <ele>1826.16</ele>
        <time>2018-04-21T11:40:21Z</time>
      </trkpt>
      <trkpt lat="45.01836" lon="6.4701">
        <ele>1826.16</ele>
        <time>2018-04-21T11:40:44Z</time>
      </trkpt>
      <trkpt lat="45.01826" lon="6.46994">
        <ele>1824.24</ele>
        <time>2018-04-21T11:40:51Z</time>
      </trkpt>
      <trkpt lat="45.01825" lon="6.46971">
        <ele>1820.39</ele>
        <time>2018-04-21T11:40:58Z</time>
      </trkpt>
      <trkpt lat="45.01821" lon="6.46945">
        <ele>1817.03</ele>
        <time>2018-04-21T11:41:05Z</time>
      </trkpt>
      <trkpt lat="45.01809" lon="6.46921">
        <ele>1814.15</ele>
        <time>2018-04-21T11:41:15Z</time>
      </trkpt>
      <trkpt lat="45.01791" lon="6.46901">
        <ele>1811.26</ele>
        <time>2018-04-21T11:41:23Z</time>
      </trkpt>
      <trkpt lat="45.01788" lon="6.46896">
        <ele>1810.3</ele>
        <time>2018-04-21T11:41:24Z</time>
      </trkpt>
      <trkpt lat="45.01776" lon="6.46883">
        <ele>1806.94</ele>
        <time>2018-04-21T11:41:28Z</time>
      </trkpt>
      <trkpt lat="45.01783" lon="6.46868">
        <ele>1801.65</ele>
        <time>2018-04-21T11:41:33Z</time>
      </trkpt>
      <trkpt lat="45.01784" lon="6.46856">
        <ele>1798.28</ele>
        <time>2018-04-21T11:41:37Z</time>
      </trkpt>
      <trkpt lat="45.01793" lon="6.46852">
        <ele>1794.92</ele>
        <time>2018-04-21T11:41:40Z</time>
      </trkpt>
      <trkpt lat="45.01788" lon="6.46842">
        <ele>1791.55</ele>
        <time>2018-04-21T11:41:42Z</time>
      </trkpt>
      <trkpt lat="45.01796" lon="6.46829">
        <ele>1788.19</ele>
        <time>2018-04-21T11:41:46Z</time>
      </trkpt>
      <trkpt lat="45.01791" lon="6.46818">
        <ele>1785.31</ele>
        <time>2018-04-21T11:41:49Z</time>
      </trkpt>
      <trkpt lat="45.01783" lon="6.46815">
        <ele>1785.31</ele>
        <time>2018-04-21T11:41:57Z</time>
      </trkpt>
      <trkpt lat="45.01784" lon="6.46812">
        <ele>1785.31</ele>
        <time>2018-04-21T11:42:09Z</time>
      </trkpt>
      <trkpt lat="45.01777" lon="6.46802">
        <ele>1783.38</ele>
        <time>2018-04-21T11:42:15Z</time>
      </trkpt>
      <trkpt lat="45.01794" lon="6.46785">
        <ele>1778.58</ele>
        <time>2018-04-21T11:42:20Z</time>
      </trkpt>
      <trkpt lat="45.01797" lon="6.46775">
        <ele>1774.25</ele>
        <time>2018-04-21T11:42:22Z</time>
      </trkpt>
      <trkpt lat="45.018" lon="6.46764">
        <ele>1772.33</ele>
        <time>2018-04-21T11:42:24Z</time>
      </trkpt>
      <trkpt lat="45.01804" lon="6.46743">
        <ele>1765.6</ele>
        <time>2018-04-21T11:42:28Z</time>
      </trkpt>
      <trkpt lat="45.018" lon="6.46738">
        <ele>1764.16</ele>
        <time>2018-04-21T11:42:29Z</time>
      </trkpt>
      <trkpt lat="45.01793" lon="6.46729">
        <ele>1763.2</ele>
        <time>2018-04-21T11:42:31Z</time>
      </trkpt>
      <trkpt lat="45.01793" lon="6.46709">
        <ele>1759.35</ele>
        <time>2018-04-21T11:42:37Z</time>
      </trkpt>
      <trkpt lat="45.01798" lon="6.46711">
        <ele>1758.39</ele>
        <time>2018-04-21T11:42:39Z</time>
      </trkpt>
      <trkpt lat="45.01799" lon="6.46702">
        <ele>1755.02</ele>
        <time>2018-04-21T11:42:43Z</time>
      </trkpt>
      <trkpt lat="45.01799" lon="6.467">
        <ele>1755.02</ele>
        <time>2018-04-21T11:42:46Z</time>
      </trkpt>
      <trkpt lat="45.01799" lon="6.467">
        <ele>1753.58</ele>
        <time>2018-04-21T11:42:55Z</time>
      </trkpt>
      <trkpt lat="45.01807" lon="6.46708">
        <ele>1752.62</ele>
        <time>2018-04-21T11:42:59Z</time>
      </trkpt>
      <trkpt lat="45.01822" lon="6.467">
        <ele>1748.29</ele>
        <time>2018-04-21T11:43:05Z</time>
      </trkpt>
      <trkpt lat="45.01819" lon="6.46672">
        <ele>1745.41</ele>
        <time>2018-04-21T11:43:10Z</time>
      </trkpt>
      <trkpt lat="45.01817" lon="6.46636">
        <ele>1740.12</ele>
        <time>2018-04-21T11:43:16Z</time>
      </trkpt>
      <trkpt lat="45.01815" lon="6.46628">
        <ele>1738.68</ele>
        <time>2018-04-21T11:43:19Z</time>
      </trkpt>
      <trkpt lat="45.01808" lon="6.46627">
        <ele>1739.16</ele>
        <time>2018-04-21T11:43:37Z</time>
      </trkpt>
      <trkpt lat="45.01808" lon="6.46626">
        <ele>1738.68</ele>
        <time>2018-04-21T11:43:38Z</time>
      </trkpt>
      <trkpt lat="45.01804" lon="6.46621">
        <ele>1737.24</ele>
        <time>2018-04-21T11:43:48Z</time>
      </trkpt>
      <trkpt lat="45.01806" lon="6.46621">
        <ele>1737.24</ele>
        <time>2018-04-21T11:43:59Z</time>
      </trkpt>
      <trkpt lat="45.01804" lon="6.46623">
        <ele>1737.24</ele>
        <time>2018-04-21T11:44:13Z</time>
      </trkpt>
      <trkpt lat="45.01806" lon="6.4662">
        <ele>1736.28</ele>
        <time>2018-04-21T11:44:33Z</time>
      </trkpt>
      <trkpt lat="45.01805" lon="6.46622">
        <ele>1736.28</ele>
        <time>2018-04-21T11:44:55Z</time>
      </trkpt>
      <trkpt lat="45.01806" lon="6.46621">
        <ele>1736.28</ele>
        <time>2018-04-21T11:45:18Z</time>
      </trkpt>
      <trkpt lat="45.0181" lon="6.46617">
        <ele>1736.28</ele>
        <time>2018-04-21T11:45:37Z</time>
      </trkpt>
      <trkpt lat="45.01808" lon="6.46613">
        <ele>1736.28</ele>
        <time>2018-04-21T11:45:57Z</time>
      </trkpt>
      <trkpt lat="45.01805" lon="6.46607">
        <ele>1736.28</ele>
        <time>2018-04-21T11:46:10Z</time>
      </trkpt>
      <trkpt lat="45.01811" lon="6.46603">
        <ele>1736.76</ele>
        <time>2018-04-21T11:46:15Z</time>
      </trkpt>
      <trkpt lat="45.01825" lon="6.46592">
        <ele>1737.24</ele>
        <time>2018-04-21T11:46:31Z</time>
      </trkpt>
      <trkpt lat="45.01836" lon="6.46581">
        <ele>1738.2</ele>
        <time>2018-04-21T11:46:46Z</time>
      </trkpt>
      <trkpt lat="45.01845" lon="6.4657">
        <ele>1738.2</ele>
        <time>2018-04-21T11:47:02Z</time>
      </trkpt>
      <trkpt lat="45.01856" lon="6.46559">
        <ele>1738.2</ele>
        <time>2018-04-21T11:47:16Z</time>
      </trkpt>
      <trkpt lat="45.01857" lon="6.46556">
        <ele>1738.2</ele>
        <time>2018-04-21T11:47:19Z</time>
      </trkpt>
      <trkpt lat="45.0186" lon="6.46547">
        <ele>1738.68</ele>
        <time>2018-04-21T11:47:27Z</time>
      </trkpt>
      <trkpt lat="45.01862" lon="6.46546">
        <ele>1738.68</ele>
        <time>2018-04-21T11:47:29Z</time>
      </trkpt>
      <trkpt lat="45.01867" lon="6.46519">
        <ele>1739.64</ele>
        <time>2018-04-21T11:47:49Z</time>
      </trkpt>
      <trkpt lat="45.01868" lon="6.46495">
        <ele>1739.64</ele>
        <time>2018-04-21T11:48:06Z</time>
      </trkpt>
      <trkpt lat="45.01868" lon="6.46482">
        <ele>1740.12</ele>
        <time>2018-04-21T11:48:20Z</time>
      </trkpt>
      <trkpt lat="45.01867" lon="6.46477">
        <ele>1739.64</ele>
        <time>2018-04-21T11:48:34Z</time>
      </trkpt>
      <trkpt lat="45.01866" lon="6.46481">
        <ele>1738.68</ele>
        <time>2018-04-21T11:48:46Z</time>
      </trkpt>
      <trkpt lat="45.01866" lon="6.46479">
        <ele>1738.68</ele>
        <time>2018-04-21T11:49:21Z</time>
      </trkpt>
      <trkpt lat="45.01867" lon="6.46474">
        <ele>1739.16</ele>
        <time>2018-04-21T11:49:44Z</time>
      </trkpt>
      <trkpt lat="45.01869" lon="6.46474">
        <ele>1738.68</ele>
        <time>2018-04-21T11:50:18Z</time>
      </trkpt>
      <trkpt lat="45.01865" lon="6.46476">
        <ele>1738.2</ele>
        <time>2018-04-21T11:50:54Z</time>
      </trkpt>
      <trkpt lat="45.01865" lon="6.46475">
        <ele>1738.2</ele>
        <time>2018-04-21T11:51:23Z</time>
      </trkpt>
      <trkpt lat="45.01867" lon="6.46473">
        <ele>1738.2</ele>
        <time>2018-04-21T11:51:58Z</time>
      </trkpt>
      <trkpt lat="45.01867" lon="6.46472">
        <ele>1738.2</ele>
        <time>2018-04-21T11:52:24Z</time>
      </trkpt>
      <trkpt lat="45.01866" lon="6.46471">
        <ele>1737.72</ele>
        <time>2018-04-21T11:52:56Z</time>
      </trkpt>
      <trkpt lat="45.01866" lon="6.46473">
        <ele>1737.24</ele>
        <time>2018-04-21T11:53:32Z</time>
      </trkpt>
      <trkpt lat="45.01866" lon="6.46474">
        <ele>1736.76</ele>
        <time>2018-04-21T11:54:13Z</time>
      </trkpt>
      <trkpt lat="45.01867" lon="6.46477">
        <ele>1736.76</ele>
        <time>2018-04-21T11:54:56Z</time>
      </trkpt>
      <trkpt lat="45.01867" lon="6.46475">
        <ele>1735.8</ele>
        <time>2018-04-21T11:55:34Z</time>
      </trkpt>
      <trkpt lat="45.01866" lon="6.46475">
        <ele>1735.8</ele>
        <time>2018-04-21T11:56:12Z</time>
      </trkpt>
      <trkpt lat="45.01866" lon="6.46473">
        <ele>1735.8</ele>
        <time>2018-04-21T11:56:46Z</time>
      </trkpt>
      <trkpt lat="45.01868" lon="6.46473">
        <ele>1735.32</ele>
        <time>2018-04-21T11:57:19Z</time>
      </trkpt>
      <trkpt lat="45.01866" lon="6.46473">
        <ele>1734.84</ele>
        <time>2018-04-21T11:57:52Z</time>
      </trkpt>
      <trkpt lat="45.01866" lon="6.46473">
        <ele>1734.36</ele>
        <time>2018-04-21T11:58:23Z</time>
      </trkpt>
      <trkpt lat="45.01865" lon="6.46474">
        <ele>1734.84</ele>
        <time>2018-04-21T11:58:53Z</time>
      </trkpt>
      <trkpt lat="45.01866" lon="6.46471">
        <ele>1734.36</ele>
        <time>2018-04-21T11:59:23Z</time>
      </trkpt>
      <trkpt lat="45.01864" lon="6.46472">
        <ele>1734.36</ele>
        <time>2018-04-21T11:59:54Z</time>
      </trkpt>
      <trkpt lat="45.01866" lon="6.4647">
        <ele>1733.88</ele>
        <time>2018-04-21T12:00:27Z</time>
      </trkpt>
      <trkpt lat="45.01866" lon="6.46475">
        <ele>1733.88</ele>
        <time>2018-04-21T12:00:57Z</time>
      </trkpt>
      <trkpt lat="45.01868" lon="6.46474">
        <ele>1733.39</ele>
        <time>2018-04-21T12:01:34Z</time>
      </trkpt>
      <trkpt lat="45.01869" lon="6.46475">
        <ele>1733.39</ele>
        <time>2018-04-21T12:02:08Z</time>
      </trkpt>
      <trkpt lat="45.01872" lon="6.4648">
        <ele>1732.91</ele>
        <time>2018-04-21T12:02:40Z</time>
      </trkpt>
      <trkpt lat="45.01872" lon="6.46479">
        <ele>1732.91</ele>
        <time>2018-04-21T12:03:09Z</time>
      </trkpt>
      <trkpt lat="45.01867" lon="6.46481">
        <ele>1733.39</ele>
        <time>2018-04-21T12:03:34Z</time>
      </trkpt>
      <trkpt lat="45.01868" lon="6.46479">
        <ele>1733.39</ele>
        <time>2018-04-21T12:03:39Z</time>
      </trkpt>
    </trkseg>
  </trk>
</gpx>